[[{"header":{"parameterUnit":"m.s-1","parameterCategory":1,"la1":30.6,"la2":29.2853,"lo1":-89.7004,"lo2":-87.6739,"dy":0.0162,"dx":0.0183,"nx":112,"ny":82,"refTime":"2023-09-15T00:00:00:Z","depth":0,"parameterNumber":2,"parameterNumberName":"U-component_of_WINDS"},"data":[0.0,0.0,0.0,0.0,0.0,0.0,0.0,0.0,0.0,0.0,0.0,0.0,0.0,0.0,0.0,0.0,0.0,0.0,0.0,0.0,0.0,0.0,0.0,0.0,0.0,0.0,0.0,0.0,0.0,0.0,0.0,0.0,0.0,0.0,0.0,0.0,0.0,0.0,0.0,0.0,0.0,0.0,0.0,0.0,0.0,0.0,0.0,0.0,0.0,0.0,0.0,0.0,0.0,0.0,0.0,0.0,0.0,0.0,0.0,0.0,0.0,0.0,0.0,0.0,0.0,0.0,0.0,0.0,0.0,0.0,0.0,0.0,0.0,0.0,0.0,0.0,0.0,0.0,0.0,0.0,0.0,0.0,0.0,0.0,0.0,0.0,0.0,0.0,0.0,0.0,-0.3062,-0.3188,-0.3027,-0.2966,-0.3111,-0.3851,-0.4673,-0.5643,0.0,0.0,0.0,0.0,0.0,0.0,0.0,0.0,0.0,0.0,0.0,0.0,0.0,0.0,0.0,0.0,0.0,0.0,0.0,0.0,0.0,0.0,0.0,0.0,0.0,0.0,0.0,0.0,0.0,0.0,0.0,0.0,0.0,0.0,0.0,0.0,0.0,0.0,0.0,0.0,0.0,0.0,0.0,0.0,0.0,0.0,0.0,0.0,0.0,0.0,0.0,0.0,0.0,0.0,0.0,0.0,0.0,0.0,0.0,0.0,0.0,0.0,0.0,0.0,0.0,0.0,0.0,0.0,0.0,0.0,0.0,0.0,0.0,0.0,0.0,0.0,0.0,0.0,0.0,0.0,0.0,0.0,0.0,0.0,0.0,0.0,0.0,0.0,0.0,0.0,0.0,0.0,0.0,0.0,0.0,0.0,0.0,0.0,0.0,0.0,0.0,0.0,0.0,0.0,-0.3643,-0.4058,-0.3765,-0.3592,-0.3597,-0.341,-0.378,-0.4802,0.0,0.0,0.0,0.0,0.0,0.0,0.0,0.0,0.0,0.0,0.0,0.0,0.0,0.0,0.0,0.0,0.0,0.0,0.0,0.0,0.0,0.0,0.0,0.0,0.0,0.0,0.0,0.0,0.0,0.0,0.0,0.0,0.0,0.0,0.0,0.0,0.0,0.0,0.0,0.0,0.0,0.0,0.0,0.0,0.0,0.0,0.0,0.0,0.0,0.0,0.0,0.0,0.0,0.0,0.0,0.0,0.0,0.0,0.0,0.0,0.0,0.0,0.0,0.0,0.0,0.0,0.0,0.0,0.0,0.0,0.0,0.0,0.0,0.0,0.0,0.0,0.0,0.0,0.0,0.0,0.0,0.0,0.0,0.0,0.0,0.0,0.0,0.0,0.0,0.0,0.0,0.0,0.0,0.0,0.0,0.0,0.0,0.0,0.0,0.0,0.0,0.0,0.0,-0.3267,-0.3233,-0.4134,-0.3553,-0.3103,-0.3101,-0.2998,-0.3357,-0.4368,-0.5783,0.0,0.0,0.0,0.0,0.0,0.0,0.0,0.0,0.0,0.0,0.0,0.0,0.0,0.0,0.0,0.0,0.0,0.0,0.0,0.0,0.0,0.0,0.0,0.0,0.0,0.0,0.0,0.0,0.0,0.0,0.0,0.0,0.0,0.0,0.0,0.0,0.0,0.0,0.0,0.0,0.0,0.0,0.0,0.0,0.0,0.0,0.0,0.0,0.0,0.0,0.0,0.0,0.0,0.0,0.0,0.0,0.0,0.0,0.0,0.0,0.0,0.0,0.0,0.0,0.0,0.0,0.0,0.0,0.0,0.0,0.0,0.0,0.0,0.0,0.0,0.0,0.0,0.0,0.0,0.0,0.0,0.0,0.0,0.0,0.0,0.0,0.0,0.0,0.0,0.0,0.0,0.0,0.0,0.0,0.0,0.0,0.0,0.0,0.0,0.0,0.0,0.0,-0.3341,-0.2966,-0.378,-0.3129,-0.2649,-0.2524,-0.249,-0.304,-0.4343,-0.4996,0.0,0.0,0.0,0.0,0.0,0.0,0.0,0.0,0.0,0.0,0.0,0.0,0.0,0.0,0.0,0.0,0.0,0.0,0.0,0.0,0.0,0.0,0.0,0.0,0.0,0.0,0.0,0.0,0.0,0.0,0.0,0.0,0.0,0.0,0.0,0.0,0.0,0.0,0.0,0.0,0.0,0.0,0.0,0.0,0.0,0.0,0.0,0.0,0.0,0.0,0.0,0.0,0.0,0.0,0.0,0.0,0.0,0.0,0.0,0.0,0.0,0.0,0.0,0.0,0.0,0.0,0.0,0.0,0.0,0.0,0.0,0.0,0.0,0.0,0.0,0.0,0.0,0.0,0.0,0.0,0.0,0.0,0.0,0.0,0.0,0.0,0.0,0.0,0.0,0.0,0.0,0.0,0.0,0.0,0.0,0.0,0.0,0.0,0.0,0.0,0.0,0.0,-0.3834,-0.3482,-0.295,-0.2893,-0.2742,-0.2343,-0.1825,-0.2544,-0.4962,-0.4783,0.0,0.0,0.0,0.0,0.0,0.0,0.0,0.0,0.0,0.0,0.0,0.0,0.0,0.0,0.0,0.0,0.0,0.0,0.0,0.0,0.0,0.0,0.0,0.0,0.0,0.0,0.0,0.0,0.0,0.0,0.0,0.0,0.0,0.0,0.0,0.0,0.0,0.0,0.0,0.0,0.0,0.0,0.0,0.0,0.0,0.0,0.0,0.0,0.0,0.0,0.0,0.0,0.0,0.0,0.0,0.0,0.0,0.0,0.0,0.0,0.0,0.0,0.0,0.0,0.0,0.0,0.0,0.0,0.0,0.0,0.0,0.0,0.0,0.0,0.0,0.0,0.0,0.0,0.0,0.0,0.0,0.0,0.0,0.0,0.0,0.0,0.0,0.0,0.0,0.0,0.0,0.0,0.0,0.0,0.0,0.0,0.0,0.0,0.0,0.0,0.0,0.0,-0.2881,-0.226,-0.2374,-0.2064,-0.1771,-0.1557,-0.1464,-0.2307,-0.4436,0.0,0.0,0.0,0.0,0.0,0.0,0.0,0.0,0.0,0.0,0.0,0.0,0.0,0.0,0.0,0.0,0.0,0.0,0.0,0.0,0.0,0.0,0.0,0.0,0.0,0.0,0.0,0.0,0.0,0.0,0.0,0.0,0.0,0.0,0.0,0.0,0.0,0.0,0.0,0.0,0.0,0.0,0.0,0.0,0.0,0.0,0.0,0.0,0.0,0.0,0.0,0.0,0.0,0.0,0.0,0.0,0.0,0.0,0.0,0.0,0.0,0.0,0.0,0.0,0.0,0.0,0.0,0.0,0.0,0.0,0.0,0.0,0.0,0.0,0.0,0.0,0.0,0.0,0.0,0.0,0.0,0.0,0.0,0.0,0.0,0.0,0.0,0.0,0.0,0.0,0.0,0.0,0.0,0.0,0.0,0.0,0.0,0.0,0.0,0.0,0.0,0.0,-0.3469,-0.2372,-0.1606,-0.1701,-0.1133,-0.0734,-0.0723,-0.0968,-0.1972,-0.3957,0.0,0.0,0.0,0.0,0.0,0.0,0.0,0.0,0.0,0.0,0.0,0.0,0.0,0.0,0.0,0.0,0.0,0.0,0.0,0.0,0.0,0.0,0.0,0.0,0.0,0.0,0.0,0.0,0.0,0.0,0.0,0.0,0.0,0.0,0.0,0.0,0.0,0.0,0.0,0.0,0.0,0.0,0.0,0.0,0.0,0.0,0.0,0.0,0.0,0.0,0.0,0.0,0.0,0.0,0.0,0.0,0.0,0.0,0.0,0.0,0.0,0.0,0.0,0.0,0.0,0.0,0.0,0.0,0.0,0.0,0.0,0.0,0.0,0.0,0.0,0.0,0.0,0.0,0.0,0.0,0.0,0.0,0.0,0.0,0.0,0.0,0.0,0.0,0.0,0.0,0.0,0.0,0.0,0.0,0.0,0.0,0.0,0.0,0.0,0.0,0.0,0.0,-0.3332,-0.2643,-0.1863,-0.1005,-0.0231,0.0174,0.0093,-0.0263,-0.145,0.0,0.0,0.0,0.0,0.0,0.0,0.0,0.0,0.0,0.0,0.0,0.0,0.0,0.0,0.0,0.0,0.0,0.0,0.0,0.0,0.0,0.0,0.0,0.0,0.0,0.0,0.0,0.0,0.0,0.0,0.0,0.0,0.0,0.0,0.0,0.0,0.0,0.0,0.0,0.0,0.0,0.0,0.0,0.0,0.0,0.0,0.0,0.0,0.0,0.0,0.0,0.0,0.0,0.0,0.0,0.0,0.0,0.0,0.0,0.0,0.0,0.0,0.0,0.0,0.0,0.0,0.0,0.0,0.0,0.0,0.0,0.0,0.0,0.0,0.0,0.0,0.0,0.0,0.0,0.0,0.0,0.0,0.0,0.0,0.0,0.0,0.0,0.0,0.0,0.0,0.0,0.0,0.0,0.0,0.0,0.0,0.0,0.0,0.0,0.0,0.0,0.0,0.0,-0.3342,-0.2409,-0.163,-0.1216,-0.0653,-0.0352,-0.0524,-0.0555,-0.1178,-0.2582,0.0,0.0,0.0,0.0,0.0,0.0,0.0,0.0,0.0,0.0,0.0,0.0,0.0,0.0,0.0,0.0,0.0,0.0,0.0,0.0,0.0,0.0,0.0,0.0,0.0,0.0,0.0,0.0,0.0,0.0,0.0,0.0,0.0,0.0,0.0,0.0,0.0,0.0,0.0,0.0,0.0,0.0,0.0,0.0,0.0,0.0,0.0,0.0,0.0,0.0,0.0,0.0,0.0,0.0,0.0,0.0,0.0,0.0,0.0,0.0,0.0,0.0,0.0,0.0,0.0,0.0,0.0,0.0,0.0,0.0,0.0,0.0,0.0,0.0,0.0,0.0,0.0,0.0,0.0,0.0,0.0,0.0,0.0,0.0,0.0,0.0,0.0,0.0,0.0,0.0,0.0,0.0,0.0,0.0,0.0,0.0,0.0,0.0,0.0,0.0,0.0,0.0,-0.3128,-0.2398,-0.173,-0.1117,-0.1032,-0.0845,-0.0431,-0.061,-0.0926,-0.1365,0.0,0.0,0.0,0.0,0.0,0.0,0.0,0.0,0.0,0.0,0.0,0.0,0.0,0.0,0.0,0.0,0.0,0.0,0.0,0.0,0.0,0.0,0.0,0.0,0.0,0.0,0.0,0.0,0.0,0.0,0.0,0.0,0.0,0.0,0.0,0.0,0.0,0.0,0.0,0.0,0.0,0.0,0.0,0.0,0.0,0.0,0.0,0.0,0.0,0.0,0.0,0.0,0.0,0.0,0.0,0.0,0.0,0.0,0.0,0.0,0.0,0.0,0.0,0.0,0.0,0.0,0.0,0.0,0.0,0.0,0.0,0.0,0.0,0.0,0.0,0.0,0.0,0.0,0.0,0.0,0.0,0.0,0.0,0.0,0.0,0.0,0.0,0.0,0.0,0.0,0.0,0.0,0.0,0.0,0.0,0.0,0.0,0.0,0.0,0.0,0.0,0.0,-0.2777,-0.2496,-0.1965,-0.0851,-0.1328,-0.1266,-0.0078,-0.0557,-0.078,-0.0422,0.0,0.0,0.0,0.0,0.0,0.0,0.0,0.0,0.0,0.0,0.0,0.0,0.0,0.0,0.0,0.0,0.0,0.0,0.0,0.0,0.0,0.0,0.0,0.0,0.0,0.0,0.0,0.0,0.0,0.0,0.0,0.0,0.0,0.0,0.0,0.0,0.0,0.0,0.0,0.0,0.0,0.0,0.0,0.0,0.0,0.0,0.0,0.0,0.0,0.0,0.0,0.0,0.0,0.0,0.0,0.0,0.0,0.0,0.0,0.0,-0.1499,-0.0496,0.0,0.0,0.0,0.0,0.0,0.0,0.0,0.0,0.0,0.0,0.0,0.0,0.0,0.0,0.0,0.0,0.0,0.0,0.0,0.0,0.0,0.0,0.0,0.0,0.0,0.0,0.0,0.0,0.0,0.0,0.0,0.0,0.0,0.0,0.0,0.0,0.0,0.0,0.0,0.0,-0.266,-0.1919,-0.1315,-0.1125,-0.1154,-0.1197,-0.1299,-0.1198,-0.1353,-0.1892,-0.2024,0.0,0.0,0.0,0.0,0.0,0.0,0.0,0.0,0.0,0.0,0.0,0.0,0.0,0.0,0.0,0.0,0.0,0.0,0.0,0.0,0.0,0.0,0.0,0.0,0.0,0.0,0.0,0.0,0.0,0.0,0.0,0.0,0.0,0.0,0.0,0.0,0.0,0.0,0.0,0.0,0.0,0.0,0.0,0.0,0.0,0.0,0.0,0.0,0.0,0.0,0.0,0.0,0.0,0.0,0.0,0.0,0.0,0.0,0.0,-0.2377,-0.1846,0.0,0.0,0.0,0.0,0.0,0.0,0.0,0.0,0.0,0.0,0.0,0.0,0.0,0.0,0.0,0.0,0.0,0.0,0.0,0.0,0.0,0.0,0.0,0.0,0.0,0.0,0.0,0.0,0.0,0.0,0.0,0.0,0.0,0.0,0.0,0.0,0.0,0.0,0.0,0.0,-0.2601,-0.1719,-0.109,-0.1098,-0.1093,-0.117,-0.1291,-0.1322,-0.1602,-0.2208,-0.2257,0.0,0.0,0.0,0.0,0.0,0.0,0.0,0.0,0.0,0.0,0.0,0.0,0.0,0.0,0.0,0.0,0.0,0.0,0.0,0.0,0.0,0.0,0.0,0.0,0.0,0.0,0.0,0.0,0.0,0.0,0.0,0.0,0.0,0.0,0.0,0.0,0.0,0.0,0.0,0.0,0.0,0.0,0.0,0.0,0.0,0.0,0.0,0.0,0.0,0.0,0.0,0.0,0.0,-0.2323,-0.2746,-0.2432,-0.2962,-0.3239,-0.3295,-0.2747,-0.2856,-0.3377,-0.2757,0.0,0.0,0.0,0.0,0.0,0.0,0.0,0.0,0.0,0.0,0.0,0.0,0.0,0.0,0.0,0.0,0.0,0.0,0.0,0.0,0.0,0.0,-0.3179,-0.3506,-0.3366,-0.3236,-0.377,0.0,0.0,0.0,0.0,0.0,0.0,0.0,0.0,0.0,0.0,0.0,-0.2332,-0.1544,-0.1066,-0.1123,-0.1302,-0.1367,-0.1202,-0.1452,-0.1737,-0.2079,-0.2405,-0.2865,0.0,0.0,0.0,0.0,0.0,0.0,0.0,0.0,0.0,0.0,0.0,0.0,0.0,0.0,0.0,0.0,0.0,0.0,0.0,0.0,0.0,0.0,0.0,0.0,0.0,0.0,0.0,0.0,0.0,0.0,0.0,0.0,0.2112,0.1629,0.0,0.0,0.0,0.0,0.0,0.0,0.0,0.0,0.0,0.0,0.0,0.0,0.0,-0.0562,-0.1403,-0.2809,-0.3518,-0.3527,-0.4532,-0.48,-0.4487,-0.4092,-0.3719,-0.3348,-0.3124,0.0,-0.2778,-0.3484,0.0,0.0,0.0,0.0,0.0,0.0,0.0,0.0,0.0,0.0,0.0,0.0,0.0,0.0,0.0,0.0,0.0,0.0,0.0,0.0,0.0,0.0,-0.3412,-0.2973,-0.2987,-0.3034,-0.2795,-0.3688,-0.4332,-0.3664,-0.4152,-0.4698,0.0,0.0,0.0,0.0,0.0,0.0,-0.1423,-0.1006,-0.1052,-0.163,-0.2078,-0.2323,-0.228,-0.2113,-0.2038,-0.2085,-0.1092,-0.097,-0.2027,-0.1112,0.0,0.0,0.0,0.0,0.0,0.0,0.0,0.0,0.0,0.0,0.0,0.0,0.0,0.0,0.0,0.0,0.0,0.0,0.0,0.0,0.0,0.0,0.0,0.0,0.0,0.0,0.0,0.0,0.0,0.2679,0.154,0.1818,0.1657,0.1673,0.0,0.0,0.0,0.0,0.0,0.0,0.0,0.0,0.0,-0.1201,-0.1917,-0.2516,-0.2883,-0.3967,-0.4461,-0.4401,-0.503,-0.5319,-0.5238,-0.473,-0.4628,-0.4665,-0.4843,-0.4871,-0.4672,-0.3943,-0.3519,-0.3322,0.0,0.0,0.0,0.0,-0.3366,-0.3618,-0.4084,-0.4416,-0.461,-0.4374,0.0,0.0,0.0,0.0,0.0,0.0,0.0,-0.365,-0.3354,-0.3266,-0.3141,-0.2775,-0.2627,-0.2483,-0.2173,-0.2488,-0.2809,-0.2827,-0.355,-0.4175,-0.4233,-0.3783,0.0,0.0,0.0,-0.2062,-0.1625,-0.1153,-0.1148,-0.1907,-0.2011,-0.227,-0.2847,-0.2504,-0.2228,-0.2173,-0.1745,-0.1567,-0.1752,-0.148,-0.2378,0.0,0.0,0.0,0.0,0.0,0.0,0.0,0.0,0.0,0.0,0.0,0.0,0.0,0.0,0.0,0.0,0.0,0.0,0.0,0.0,0.0,0.0,0.0,0.0,0.0,0.0,0.0,0.0,0.1982,0.0956,0.1573,0.082,0.0493,0.0,0.0,0.0,0.0,0.0,0.0,-0.1059,-0.1886,-0.2636,-0.329,-0.4087,-0.4631,-0.4733,-0.5309,-0.556,-0.5387,-0.5544,-0.5707,-0.5804,-0.5308,-0.5364,-0.5942,-0.6134,-0.6438,-0.661,-0.5232,-0.476,-0.4955,-0.4755,-0.4408,-0.3924,-0.428,-0.4449,-0.4638,-0.5318,-0.5686,-0.5795,-0.5362,-0.5206,-0.5059,-0.4282,0.0,0.0,0.0,0.0,-0.3693,-0.3624,-0.3203,-0.2759,-0.2609,-0.2301,-0.1967,-0.1629,-0.1477,-0.1554,-0.2005,-0.2805,-0.3406,-0.3482,-0.2924,0.0,-0.3742,-0.2741,-0.1867,-0.1844,-0.1308,-0.1254,-0.2043,-0.2047,-0.2377,-0.3309,-0.2901,-0.2555,-0.2478,-0.2521,-0.2338,-0.1881,-0.1972,-0.2427,-0.3276,0.0,0.0,0.0,0.0,0.0,0.0,0.0,0.0,0.0,0.0,0.0,0.0,0.0,0.0,0.0,0.0,0.0,0.0,0.0,0.0,0.0,0.0,0.0,0.0,0.0,0.0,0.0,0.0,0.0,-0.009,-0.1323,0.0,0.0,0.0,0.0,-0.0781,-0.081,-0.1496,-0.2876,-0.3321,-0.4426,-0.6394,-0.6549,-0.6798,-0.7339,-0.7461,-0.7481,-0.7247,-0.6848,-0.6599,-0.6605,-0.5939,-0.5936,-0.643,-0.6252,-0.6743,-0.7772,-0.7903,-0.7291,-0.6252,-0.6566,-0.599,-0.5068,-0.5617,-0.5775,-0.5843,-0.6561,-0.6759,-0.6633,-0.662,-0.6195,-0.5607,-0.5178,-0.4853,0.0,0.0,-0.4143,-0.3733,-0.3417,-0.2952,-0.2555,-0.2206,-0.1967,-0.1629,-0.1066,-0.1106,-0.1219,-0.1321,-0.1994,-0.2576,-0.2651,0.0,-0.249,-0.3212,-0.2555,-0.1918,-0.1746,-0.13,-0.1295,-0.2089,-0.2529,-0.3058,-0.3812,-0.3432,-0.3185,-0.3252,-0.2653,-0.2335,-0.2353,-0.1999,-0.1933,-0.2178,-0.2993,0.0,0.0,0.0,0.0,0.0,0.0,0.0,0.0,0.0,0.0,0.0,0.0,0.0,0.0,0.0,0.0,0.0,0.0,0.0,0.0,0.0,0.0,0.0,0.0,0.0,0.0,0.0,0.0,-0.132,-0.25,0.0,-0.2225,-0.2323,-0.2297,-0.1811,-0.3233,-0.4267,-0.4715,-0.5752,-0.668,-0.741,-0.7369,-0.7289,-0.7087,-0.687,-0.6695,-0.6566,-0.6359,-0.6467,-0.6727,-0.6973,-0.7139,-0.7397,-0.8333,-0.8939,-0.919,-0.9737,-0.9151,-0.7868,-0.7761,-0.7544,-0.7319,-0.7328,-0.7364,-0.7341,-0.7553,-0.7557,-0.7381,-0.7137,-0.6837,-0.6453,-0.5944,-0.5494,-0.506,-0.4676,-0.3972,-0.3323,-0.3229,-0.2876,-0.2464,-0.2147,-0.2224,-0.2193,-0.1459,-0.0988,-0.0813,-0.1172,-0.1897,-0.2341,-0.2047,-0.1494,-0.1235,-0.1847,-0.1227,-0.0749,-0.0903,-0.0766,-0.1067,-0.227,-0.2499,-0.2879,-0.3708,-0.3545,-0.3244,-0.2878,-0.2831,-0.2599,-0.2085,-0.2177,-0.2234,-0.2217,-0.2369,-0.3128,0.0,0.0,0.0,0.0,0.0,0.0,0.0,0.0,0.0,0.0,0.0,0.0,0.0,0.0,0.0,0.0,0.0,0.0,0.0,0.0,0.0,0.0,0.0,0.0,0.0,0.0,-0.264,-0.2903,-0.4082,-0.4627,-0.4181,-0.4167,-0.4011,-0.3768,-0.4977,-0.601,-0.6607,-0.7458,-0.8078,-0.8288,-0.8122,-0.7862,-0.7343,-0.7056,-0.676,-0.663,-0.6939,-0.7139,-0.7408,-0.8177,-0.8336,-0.8102,-0.9742,-1.0066,-0.9564,-1.056,-1.0393,-0.9476,-0.903,-0.883,-0.8765,-0.8691,-0.8535,-0.8447,-0.8302,-0.8027,-0.769,-0.7438,-0.7091,-0.6697,-0.6179,-0.5669,-0.5247,-0.4722,-0.3927,-0.3227,-0.3259,-0.2835,-0.2417,-0.2071,-0.2089,-0.1994,-0.1181,-0.1153,-0.1303,-0.1116,-0.1506,-0.1954,-0.2054,-0.1562,-0.1414,-0.2171,-0.1779,-0.1488,-0.1578,-0.1496,-0.1803,-0.267,-0.2639,-0.2804,-0.3473,-0.3602,-0.333,-0.2624,-0.3074,-0.2932,-0.1962,-0.2456,-0.2585,-0.2319,-0.224,-0.2726,-0.3785,0.0,0.0,0.0,0.0,0.0,0.0,0.0,0.0,0.0,0.0,0.0,0.0,0.0,0.0,0.0,0.0,0.0,0.0,0.0,0.0,0.0,0.0,0.0,-0.0762,-0.2057,-0.3626,-0.4887,-0.6039,-0.6765,-0.6851,-0.6247,-0.6059,-0.6526,-0.5993,-0.6524,-0.8426,-0.8257,-0.8434,-0.9161,-0.8894,-0.8553,-0.8215,-0.821,-0.7952,-0.7625,-0.8467,-0.8803,-0.8544,-0.9492,-0.9424,-0.8661,-1.007,-0.9996,-0.9007,-1.0378,-1.1003,-1.0901,-1.0249,-0.978,-0.9433,-0.9428,-0.9341,-0.905,-0.8754,-0.8196,-0.7516,-0.752,-0.696,-0.6211,-0.5766,-0.5444,-0.5142,-0.4663,-0.4023,-0.3467,-0.3503,-0.2898,-0.2286,-0.1856,-0.1473,-0.0992,-0.0169,-0.1634,-0.2653,-0.116,-0.0897,-0.1257,-0.2524,-0.2684,-0.304,-0.4204,-0.4273,0.0,-0.3805,-0.3584,-0.3406,-0.3253,-0.3006,-0.2924,-0.3152,-0.3617,-0.3478,-0.2567,-0.3352,-0.3299,-0.2075,-0.2769,-0.2887,-0.2324,-0.2638,-0.2938,-0.3176,0.0,0.0,0.0,0.0,0.0,0.0,0.0,0.0,0.0,0.0,0.0,0.0,0.0,0.0,0.0,0.0,0.0,0.0,0.0,0.0,0.0,0.0,-0.2851,-0.1781,-0.3682,-0.5234,-0.5641,-0.6493,-0.6805,-0.6271,-0.6576,-0.6635,-0.609,-0.7088,-0.7897,-0.8442,-0.8124,-0.7989,-0.7993,-0.7472,-0.7051,-0.6812,-0.7135,-0.7695,-0.831,-0.8553,-0.8886,-0.9579,-1.088,-1.1129,-1.0605,-1.1478,-1.1645,-1.112,-1.1069,-1.1107,-1.117,-1.0666,-1.052,-1.0559,-1.0379,-0.9907,-0.9173,-0.8354,-0.7879,-0.7755,-0.7899,-0.7374,-0.66,-0.5738,-0.5021,-0.4341,-0.3743,-0.2956,-0.2471,-0.2925,-0.2286,-0.13,-0.0714,-0.0116,0.0227,-0.0168,-0.0441,-0.06,-0.0279,-0.0385,-0.0595,-0.0922,-0.2556,-0.3792,-0.3693,-0.3718,-0.3598,-0.321,-0.3101,-0.2807,-0.2186,-0.3042,-0.3339,-0.2477,-0.3243,-0.3347,-0.2402,-0.2498,-0.2495,-0.2242,-0.2338,-0.2407,-0.2441,-0.3009,-0.3163,0.0,0.0,0.0,0.0,0.0,0.0,0.0,0.0,0.0,0.0,0.0,0.0,0.0,0.0,0.0,0.0,0.0,0.0,0.0,0.0,0.0,0.0,-0.3601,-0.4643,-0.3474,-0.4811,-0.5919,-0.6201,-0.6563,-0.664,-0.6409,-0.6653,-0.691,-0.7177,-0.7875,-0.8587,-0.9009,-0.8543,-0.8017,-0.7707,-0.7464,-0.7094,-0.6519,-0.7732,-0.857,-0.8866,-0.9643,-1.0236,-1.0665,-1.1969,-1.1949,-1.0974,-1.2228,-1.2143,-1.1158,-1.1282,-1.1399,-1.1373,0.0,0.0,0.0,0.0,-1.0444,-0.9478,-0.8895,-0.8245,-0.7718,-0.7833,-0.7126,-0.6184,-0.5286,-0.4644,-0.4105,-0.3414,-0.3028,-0.2771,-0.2528,-0.1773,-0.0968,-0.0428,-0.006,0.0118,0.0173,0.0279,0.0274,0.0168,-0.0629,0.0,-0.0442,-0.1643,-0.2873,-0.3532,-0.3683,-0.367,-0.3429,-0.3111,-0.2897,-0.2822,-0.3194,-0.3139,-0.2345,-0.3057,0.0,0.0,0.0,-0.2785,-0.2853,-0.2529,0.0,0.0,0.0,-0.3178,-0.3044,-0.3537,0.0,0.0,-0.3597,-0.3755,0.0,0.0,0.0,0.0,0.0,0.0,0.0,0.0,0.0,0.0,0.0,0.0,0.0,0.0,0.0,0.0,-0.5566,-0.6671,-0.5383,-0.5563,-0.5958,-0.6502,-0.6472,-0.6512,-0.6936,-0.6808,-0.7326,-0.8744,-0.8576,-0.8723,-0.9692,-0.8938,0.0,0.0,0.0,-0.7869,-0.6805,-0.9093,-1.0016,-0.9466,-1.1263,-1.206,-1.1932,-1.3028,-1.2537,-1.0918,-1.2456,-1.2126,-1.0421,-1.1369,-1.1675,-1.1505,-1.1337,-1.1424,-1.1643,-1.1516,-1.073,-0.9761,-0.9822,0.0,0.0,-0.7528,-0.659,-0.533,-0.4597,-0.433,-0.4089,-0.3363,-0.3572,-0.3705,-0.2201,-0.1478,-0.1018,-0.0508,-0.0641,-0.0567,0.0656,0.0611,0.0373,0.0389,-0.0998,-0.1739,-0.0542,-0.0355,-0.1098,-0.3227,-0.3493,-0.3497,-0.3608,-0.3066,-0.306,-0.4058,0.0,0.0,-0.2373,-0.2981,-0.2951,-0.1952,-0.2941,-0.352,-0.3448,-0.2993,-0.3243,-0.4323,-0.3389,-0.3051,-0.3313,-0.2853,-0.2533,-0.2364,-0.3475,-0.3619,0.0,0.0,0.0,0.0,0.0,0.0,0.0,0.0,0.0,0.0,0.0,0.0,0.0,0.0,0.0,-0.3661,-0.5079,-0.6169,-0.6293,-0.5978,-0.5808,-0.5838,-0.6557,-0.6879,-0.6392,-0.7752,-0.8669,-0.8575,-0.9037,-0.9349,-0.9514,-0.8372,-0.7492,-0.7049,-0.7248,-0.7058,-0.6282,-0.8697,-1.0075,-1.0398,-1.1785,0.0,-1.3448,-1.3748,-1.3743,-1.3385,-1.3078,-1.2715,-1.2308,-1.1453,-1.1128,-1.1093,-1.1257,-1.1315,-1.1294,-1.0418,-1.0165,-1.0156,-0.9098,-0.838,-0.793,-0.7484,-0.6417,-0.5087,-0.4143,-0.3477,0.0,-0.2513,-0.2982,-0.3389,-0.2411,-0.1838,-0.1201,-0.0062,-0.0,-0.006,0.0709,0.0856,0.0777,0.0784,0.0471,0.0199,0.0051,-0.005,-0.0403,-0.1316,-0.1066,-0.0747,-0.0795,-0.0675,-0.1109,-0.2472,-0.2956,-0.2708,-0.1494,-0.2512,-0.2838,-0.1956,-0.2418,-0.2656,-0.2485,-0.2766,-0.2836,-0.2663,-0.287,-0.2938,-0.2827,-0.2853,-0.2705,-0.246,-0.2549,-0.2641,0.0,0.0,0.0,0.0,0.0,0.0,0.0,0.0,0.0,0.0,0.0,-0.1467,0.0,0.0,-0.427,-0.5118,-0.5742,-0.6353,-0.6899,-0.6663,-0.6452,-0.6389,-0.647,-0.6902,-0.759,-0.8255,-0.8722,-0.8997,-0.9084,-0.9046,-0.8866,-0.8135,-0.7441,-0.6773,-0.7228,-0.6992,-0.6141,-0.9209,-1.0759,-1.0833,-1.271,-1.3811,-1.4212,-1.4203,-1.4097,-1.4048,-1.344,-1.3107,-1.2771,-1.1558,-1.1124,-1.1149,-1.0988,-1.1063,-1.1259,-1.0732,-1.0431,-1.0058,-0.9324,-0.8611,-0.8027,-0.7572,-0.6457,-0.5164,-0.4326,-0.3606,-0.2996,-0.2808,-0.3077,-0.3251,-0.2451,-0.2151,-0.1857,-0.096,-0.0568,-0.0369,-0.0121,0.0179,0.0467,0.0565,0.0645,0.0518,0.0155,-0.0051,-0.0255,-0.0424,-0.0439,-0.0449,-0.0449,-0.0428,-0.0931,-0.2282,-0.2465,-0.2313,-0.1923,-0.2316,-0.2425,-0.2017,-0.2084,-0.2214,-0.2413,-0.2546,-0.2726,-0.2912,-0.3037,-0.3037,-0.286,-0.2996,-0.2909,-0.2687,-0.264,-0.264,0.0,0.0,0.0,0.0,0.0,0.0,0.0,0.0,0.0671,-0.0821,-0.1895,-0.2897,-0.3823,-0.4537,-0.5366,-0.6535,-0.6783,-0.6879,-0.7279,-0.7488,-0.7489,-0.757,-0.7064,-0.7298,-0.8961,-0.8722,-0.8737,-0.9518,-0.9025,-0.8621,-0.8381,-0.8199,-0.7608,-0.6799,-0.7522,-0.7424,-0.6373,-0.9552,-1.1128,-1.1114,-1.3391,-1.4551,-1.4718,-1.4449,-1.4261,-1.4038,-1.3635,-1.3106,-1.2518,-1.1623,-1.1175,-1.1145,-1.074,-1.0867,-1.1219,-1.1227,-1.0735,-1.0054,-0.9744,-0.9005,-0.8169,-0.7749,-0.6723,-0.5544,-0.4829,-0.3889,-0.3067,-0.3055,-0.288,-0.2661,-0.2279,-0.2355,-0.2448,-0.205,-0.1378,-0.0891,-0.1186,-0.0614,-0.0,0.0115,0.0277,0.0323,0.0108,-0.0262,-0.0463,-0.0205,-0.0536,-0.0891,-0.0897,-0.0849,-0.1233,-0.2312,-0.1944,-0.1895,-0.2583,-0.224,-0.2018,-0.2152,-0.1967,-0.2055,-0.2462,-0.2457,-0.2776,-0.3506,-0.3312,-0.317,-0.299,-0.3126,-0.3129,-0.2954,-0.2993,-0.2948,0.2249,0.1663,0.0,0.1281,0.0632,0.0175,0.0,0.0,-0.0768,-0.3462,-0.4212,-0.4932,-0.6992,-0.6882,-0.6556,-0.6833,-0.7454,-0.776,-0.7582,-0.8195,-0.8803,-0.9284,-0.9485,-0.9319,-0.8756,-0.9456,-0.982,-0.9431,-0.9058,-0.8864,-0.875,-0.858,-0.8136,-0.7422,-0.7873,-0.7677,-0.7004,-0.8849,-1.0246,-1.1114,-1.2653,-1.3999,-1.5008,-1.495,-1.476,-1.4352,-1.3452,-1.2613,-1.1939,-1.139,-1.1072,-1.0924,-1.0701,-1.0779,-1.0995,-1.0767,-1.0504,-1.0199,-0.974,-0.9185,-0.8523,-0.8044,-0.708,-0.5989,-0.5189,-0.3752,-0.2224,-0.1928,-0.1325,-0.0954,-0.1442,-0.1891,-0.2259,-0.2149,-0.1678,-0.1309,-0.1722,-0.0843,-0.0058,-0.0362,-0.0,0.0334,0.0056,-0.0667,-0.1098,-0.0745,-0.0693,-0.0759,-0.0894,-0.0868,-0.1046,-0.1521,-0.1654,-0.1844,-0.231,-0.2111,-0.2061,-0.2279,-0.2279,-0.2148,-0.1973,-0.2591,-0.2996,-0.3141,-0.3312,-0.3262,-0.299,-0.3126,-0.317,-0.317,-0.317,-0.3084,0.2152,0.0,0.0,0.0,0.0259,-0.022,0.0077,-0.0081,-0.0942,-0.3537,-0.478,-0.5693,-0.6652,-0.7037,-0.7118,0.0,-0.7422,-0.796,-0.813,-0.8678,-0.9272,-1.0061,-0.9468,-0.891,-0.8757,-0.9449,-0.951,-0.8536,-0.8745,-0.8648,-0.8336,-0.8332,-0.8074,-0.7372,-0.7699,-0.7656,-0.7326,-0.882,-0.9766,-1.0285,-1.2297,-1.3514,-1.4074,-1.4551,-1.4411,-1.3809,-1.3385,-1.2876,-1.2283,-1.1856,-1.175,-1.1745,-1.1055,-1.0909,-1.0979,-1.0413,-1.0179,-1.0058,-0.9489,-0.9094,-0.8775,-0.8232,-0.737,-0.6424,-0.5526,-0.4273,-0.2948,-0.2056,-0.1606,-0.1607,-0.1944,-0.2135,-0.2397,-0.268,-0.2501,-0.2212,-0.2242,-0.1584,-0.0977,-0.08,-0.0655,-0.0517,-0.0507,-0.0883,-0.1138,-0.1014,-0.0958,-0.091,-0.087,-0.0726,-0.0789,-0.1182,-0.1876,-0.2194,-0.2025,-0.1927,-0.1837,-0.1791,-0.1341,-0.1297,-0.1748,-0.1786,-0.2095,-0.2776,-0.2998,-0.2998,-0.2815,-0.2946,-0.3037,-0.3043,-0.3037,-0.2946,0.1952,0.0,0.0,0.0455,-0.0075,-0.0674,-0.0928,-0.0972,-0.1478,-0.356,-0.5021,-0.5927,-0.6304,-0.6981,-0.7199,-0.6524,-0.7515,-0.8438,-0.8557,-0.9191,-0.9922,-1.0269,-0.9254,-0.848,-0.8202,-0.8758,-0.8839,-0.8257,-0.8596,-0.8634,-0.816,-0.8296,-0.8103,-0.7493,-0.7974,-0.8012,-0.7595,-0.8931,-0.9862,-1.0329,-1.2021,-1.3199,-1.3808,-1.4296,-1.416,-1.3573,-1.3386,-1.3089,-1.2726,-1.2101,-1.2104,-1.232,-1.134,-1.1042,-1.0969,-1.0412,-1.0021,-0.9834,-0.9386,-0.9071,-0.8875,-0.8471,-0.7833,-0.7,-0.6083,-0.5035,-0.3887,-0.2552,-0.2024,-0.1959,-0.1926,-0.1968,-0.216,-0.2738,-0.2975,-0.3064,-0.2887,-0.2366,-0.18,-0.1537,-0.1376,-0.1341,-0.1441,-0.1506,-0.1518,-0.1335,-0.1323,-0.1201,-0.0866,-0.0615,-0.0728,-0.1351,-0.2213,-0.253,-0.2024,-0.1971,-0.1846,-0.164,-0.1081,-0.0985,-0.1389,-0.1474,-0.1875,-0.269,-0.3001,-0.3046,-0.2823,-0.2993,-0.3037,-0.309,-0.2946,-0.2943,0.0,0.0,0.0533,-0.0072,-0.0878,-0.1456,-0.1456,-0.1904,-0.2839,-0.4392,-0.5259,-0.6042,-0.7036,-0.722,-0.6881,-0.6226,-0.8127,-0.9308,-0.852,-1.0006,-1.0854,-0.9988,-0.9474,-0.8558,0.0,-0.727,-0.8159,-0.9279,-0.9027,-0.873,-0.8699,-0.8559,-0.8301,-0.7867,-0.8987,-0.908,-0.7856,-0.9255,-1.0614,-1.1742,-1.1844,-1.2938,-1.507,-1.458,-1.4166,-1.3891,-1.3332,-1.3106,-1.3034,-1.204,-1.1914,-1.2326,-1.1354,-1.1118,-1.1219,-1.079,-1.0181,-0.9646,-0.9642,-0.9261,-0.8737,-0.8944,-0.8407,-0.7581,-0.6716,-0.5798,-0.4691,-0.3288,-0.208,-0.1136,-0.0908,-0.0948,-0.1262,-0.196,-0.2961,-0.3781,-0.3739,-0.3085,-0.2484,-0.2622,-0.2116,-0.1891,-0.2633,-0.2664,-0.2478,-0.1973,-0.1854,-0.1623,-0.09,-0.076,-0.1048,-0.2073,-0.2582,-0.2763,-0.2514,-0.2368,-0.2277,-0.2186,-0.2205,-0.1794,-0.076,-0.2148,-0.2962,-0.2974,-0.3499,-0.3585,-0.3185,-0.3312,-0.3442,-0.3578,-0.3126,-0.317,0.0211,0.0,-0.0722,-0.1559,-0.1644,-0.1792,-0.253,-0.2746,-0.3248,-0.507,-0.4996,-0.4835,-0.5544,-0.5534,-0.5457,-0.5731,-0.6753,-0.7834,-0.8937,-0.9192,-0.9461,-0.9837,-0.8697,0.0,0.0,0.0,0.0,-0.7878,-0.8551,-0.9031,-0.8995,-0.8651,-0.8848,-0.944,-0.9116,-0.9384,-1.0438,-0.9293,-0.9384,-1.0614,-1.1061,-1.2085,-1.3425,-1.3861,-1.3872,-1.3646,-1.3425,-1.3265,-1.3082,-1.2754,-1.2791,-1.2989,-1.2087,-1.183,-1.1969,-1.1533,-1.0605,-0.9674,-0.9977,-0.9718,-0.9335,-0.9397,-0.8352,-0.6885,-0.6471,-0.5231,-0.3771,-0.2798,-0.2396,-0.2217,-0.1793,-0.1163,-0.0925,-0.1744,-0.295,-0.3953,-0.3985,-0.3825,-0.3546,-0.2999,-0.2598,-0.2358,-0.2517,-0.2633,-0.2554,-0.1851,-0.1297,-0.0845,-0.0599,-0.1073,-0.1366,-0.1064,-0.2143,-0.2795,-0.2574,-0.2502,-0.2386,-0.229,-0.1903,-0.1803,-0.2024,-0.2152,-0.242,-0.2909,-0.3201,-0.3268,-0.3126,-0.3247,-0.3427,-0.3651,-0.3327,-0.3357,-0.0741,-0.1368,-0.1711,-0.2758,-0.2505,-0.2268,-0.3211,-0.3561,-0.4068,-0.5079,-0.4766,-0.4362,-0.4583,-0.4494,-0.4552,-0.4789,-0.5869,-0.7089,-0.8407,-0.8913,-0.9241,-0.9921,-0.8983,-0.8499,0.0,0.0,0.0,-0.7835,-0.8524,-0.9175,-0.9531,-0.9328,-0.9737,-1.0915,-1.0683,-1.0953,-1.193,-1.0774,-1.0356,-1.0768,-1.1487,-1.2208,-1.272,-1.3121,-1.3132,-1.2918,-1.3165,-1.3018,-1.2502,-1.2938,-1.3262,-1.3408,-1.2633,-1.2098,-1.18,-1.1373,-1.0333,-0.9212,-0.9861,-0.9482,-0.8652,-0.8684,-0.7596,-0.6245,-0.5903,-0.4834,-0.362,-0.2825,-0.252,-0.2269,-0.1677,-0.0879,-0.0399,-0.1479,-0.2065,-0.2478,-0.293,-0.3114,-0.3216,-0.299,-0.2772,-0.2662,-0.2894,-0.2854,-0.2615,-0.2008,-0.1352,-0.093,-0.0723,-0.1039,-0.1226,-0.1215,-0.1924,-0.2453,-0.2711,-0.2683,-0.2615,-0.2568,-0.2229,-0.2291,-0.2825,-0.2631,-0.2682,-0.3025,-0.3333,-0.3447,-0.3292,-0.3421,-0.3617,-0.3849,-0.3495,-0.3562,-0.1192,-0.2119,-0.252,-0.3545,-0.3236,-0.2856,-0.3504,-0.4294,-0.4851,-0.4724,-0.4718,-0.4543,0.0,0.0,-0.3992,-0.3595,-0.5429,-0.7028,-0.7406,-0.9044,-1.0201,0.0,0.0,0.0,0.0,0.0,0.0,-0.9207,0.0,-0.9362,-1.0512,-1.0512,-1.0967,-1.2323,-1.3385,-1.3397,-1.2437,-1.3489,-1.3345,-1.2008,-1.2831,-1.3155,-1.2868,-1.24,-1.201,-1.1798,-1.2689,-1.2417,-1.1472,-1.2575,-1.3146,-1.3367,-1.2873,-1.1962,-1.0865,-1.0441,-0.9315,-0.8317,-0.9192,-0.8366,-0.7013,-0.7073,-0.6502,-0.5749,-0.517,-0.4726,-0.4108,-0.3324,-0.2365,-0.1467,-0.0815,-0.008,0.0157,-0.107,-0.038,0.0302,-0.0807,-0.1339,-0.1801,-0.2701,-0.2775,-0.2963,-0.3693,-0.334,-0.2807,-0.2388,-0.207,-0.1702,-0.137,-0.0573,-0.0765,-0.2446,-0.1918,-0.1858,-0.2892,-0.2915,-0.2962,-0.3081,-0.3155,-0.3157,-0.3136,-0.3525,-0.362,-0.3321,-0.3887,-0.4057,-0.3708,-0.3821,-0.3965,-0.4123,-0.3617,-0.3782,-0.2009,-0.2674,-0.3127,-0.3636,-0.3396,-0.3326,-0.4355,-0.4398,-0.4308,-0.4656,-0.3903,-0.2996,0.0,0.0,0.0,-0.4417,-0.5241,0.0,-0.9017,-0.9802,0.0,-1.011,0.0,-1.0303,-0.9585,-0.9676,0.0,0.0,-0.9754,-1.0099,-1.2427,-1.1482,-1.1875,-1.3962,-1.3473,-1.3655,-1.4841,-1.4328,-1.28,-1.0508,-1.1755,-1.1775,-1.0714,-1.1999,-1.2265,-1.1876,-1.2762,-1.3003,-1.2912,-1.2133,-1.2136,-1.2587,-1.0991,-1.0318,-1.022,-0.9548,-0.8625,-0.769,-0.78,-0.7647,-0.7446,-0.7747,-0.6699,-0.5247,-0.5282,-0.4253,-0.3073,-0.2889,-0.2137,-0.1362,-0.1174,-0.101,-0.0928,-0.132,-0.1148,-0.1054,-0.1787,-0.2706,-0.345,-0.381,-0.4126,-0.4229,-0.427,-0.3591,-0.3082,-0.2856,-0.2397,-0.1986,-0.1713,-0.1338,-0.1379,-0.195,-0.215,-0.2299,-0.2547,-0.2822,-0.2915,-0.281,-0.3054,-0.3283,-0.3472,-0.3472,-0.3579,-0.3678,-0.4003,-0.4168,-0.4093,-0.4362,-0.4443,-0.4407,-0.428,-0.4291,-0.3092,-0.3443,-0.3657,-0.4071,-0.3746,-0.3693,-0.4831,-0.4259,-0.3618,-0.4212,-0.3396,0.0,-0.1965,0.0,0.0,0.0,0.0,0.0,-0.9109,-0.9951,-1.0338,0.0,-1.087,0.0,-1.0952,-1.1056,-1.1822,0.0,-1.1361,-1.1176,-1.3894,-1.3095,-1.3467,-1.533,-1.4721,-1.4823,-1.5825,-1.5094,-1.3561,-1.1106,-1.1811,-1.1373,-1.0134,-1.0797,-1.115,-1.1174,-1.1958,-1.2072,-1.1707,-1.1561,-1.1475,-1.1419,-1.0215,-0.9452,-0.9051,-0.8493,-0.7563,-0.6643,-0.6735,-0.6529,-0.6298,-0.6688,-0.5752,-0.4536,-0.4418,-0.3596,-0.2704,-0.2766,-0.2173,-0.1386,-0.0857,-0.0862,-0.1125,-0.127,-0.1358,-0.1689,-0.2739,-0.2948,-0.3129,-0.3821,-0.4448,-0.487,-0.4705,-0.4113,-0.3598,-0.3277,-0.2858,-0.2413,-0.2044,-0.1754,-0.1826,-0.2395,-0.2765,-0.3123,-0.3365,-0.357,-0.3618,-0.3565,-0.3758,-0.3951,-0.4144,-0.4142,-0.4196,-0.4348,-0.4587,-0.47,-0.469,-0.4983,-0.4956,-0.4691,-0.4777,-0.4713,-0.3922,-0.4072,-0.4114,-0.4422,-0.4082,-0.3987,-0.4835,-0.3934,-0.3061,-0.3517,0.0,-0.2241,-0.2186,-0.2183,-0.2613,-0.3951,0.0,-0.6705,-0.8305,-0.9795,-1.071,-1.0848,-1.1176,-1.1701,-1.2545,-1.2592,-1.3475,-1.5871,-1.3333,-1.2718,-1.5224,-1.4929,-1.5123,-1.6116,-1.6182,-1.6092,-1.5832,-1.5832,-1.4734,-1.2748,-1.2394,-1.1468,-1.0139,-0.9556,-0.9638,-1.0211,-1.1014,-1.0846,-1.0081,-1.1201,-1.1211,-1.0276,-0.9723,-0.8791,-0.7767,-0.7244,-0.6403,-0.5555,-0.5939,-0.5489,-0.4813,-0.4889,-0.4579,-0.3988,-0.3401,-0.2968,-0.2717,-0.269,-0.2182,-0.1397,-0.0262,-0.0262,-0.0609,-0.1024,-0.1207,-0.1642,-0.3068,-0.2613,-0.231,-0.3655,-0.4541,-0.5146,-0.513,-0.4686,-0.4112,-0.3706,-0.3273,-0.2839,-0.2348,-0.2038,-0.2211,-0.3242,-0.35,-0.3874,-0.4592,-0.4569,-0.4576,-0.4615,-0.4713,-0.4788,-0.4907,-0.5031,-0.5083,-0.5108,-0.5251,-0.5324,-0.5277,-0.5492,-0.5391,-0.4974,-0.5098,-0.4969,-0.3738,-0.3932,-0.4,-0.3769,-0.3999,-0.4242,-0.3978,-0.3491,0.0,0.0,-0.159,-0.1262,-0.1608,-0.1571,-0.2214,-0.4245,0.0,0.0,0.0,0.0,-1.083,0.0,0.0,0.0,0.0,-1.1996,0.0,0.0,-1.5258,-1.5435,-1.6968,-1.5744,-1.5236,-1.5838,-1.5879,-1.5879,-1.5832,-1.5832,-1.4734,-1.2748,-1.2646,-1.1394,-0.9114,-0.9715,-1.0183,-1.0418,-1.1473,-1.2237,-1.2723,-1.2042,-1.1237,-1.044,-0.8925,-0.7655,-0.6602,-0.6131,-0.5815,-0.5662,-0.57,-0.5463,-0.5085,-0.5356,-0.4716,-0.4005,-0.4072,-0.3639,-0.2948,-0.2569,-0.1961,-0.1249,-0.0268,0.0268,0.0357,-0.0089,-0.0267,-0.0443,-0.1124,-0.2586,-0.4118,-0.5422,-0.5698,-0.5585,-0.534,-0.467,-0.4168,-0.3902,-0.3426,-0.3017,-0.2825,-0.2409,-0.2485,-0.3456,-0.3495,-0.3684,-0.4244,-0.4511,-0.4567,-0.4294,-0.4673,-0.486,-0.4902,-0.4918,-0.4964,-0.5101,-0.5234,-0.5299,-0.5316,-0.5487,-0.5496,-0.523,-0.5152,-0.5096,-0.3633,-0.3798,-0.3754,-0.3934,-0.3789,-0.3488,-0.3131,0.0,0.0,0.0,-0.0853,-0.0603,-0.0283,0.0,0.0,0.0,0.0,0.0,0.0,0.0,0.0,0.0,0.0,0.0,0.0,-1.2353,-1.3551,-1.5538,-1.567,-1.6302,-1.7647,-1.6587,-1.6005,-1.6066,-1.5912,-1.5832,-1.5832,-1.5832,-1.5038,-1.3567,-1.2896,-1.1574,-0.9628,-0.9279,-0.9317,-0.9809,-1.0727,-1.105,-1.097,-1.1647,-1.0959,-0.9437,-0.8295,-0.7547,-0.6964,-0.5919,-0.5623,-0.5789,-0.576,-0.5313,-0.4684,-0.503,-0.4697,-0.4106,-0.3592,-0.3437,-0.3184,-0.2145,-0.1883,-0.1615,-0.0897,-0.009,0.0628,0.0718,-0.0622,-0.1844,-0.1915,-0.3601,-0.5184,-0.5675,-0.5752,-0.5634,-0.5467,-0.5041,-0.4715,-0.447,-0.3989,-0.3621,-0.3375,-0.3392,-0.3517,-0.3884,-0.386,-0.423,-0.5173,-0.5383,-0.5422,-0.5265,-0.5448,-0.5555,-0.5562,-0.5567,-0.5592,-0.5655,-0.5712,-0.5766,-0.5773,-0.5961,-0.5849,-0.5454,-0.5485,-0.5314,-0.3351,-0.3494,-0.3517,-0.3733,-0.3249,-0.2584,-0.2369,-0.2084,0.0,0.0,-0.0441,-0.0358,0.0222,0.0,0.0,0.0,0.0,0.0,0.0,0.0,0.0,0.0,0.0,0.0,0.0,-1.3336,0.0,-1.5738,-1.6043,-1.6587,-1.7645,-1.6963,-1.642,-1.5996,-1.5704,-1.5645,-1.5645,-1.5705,-1.5132,-1.4028,-1.3091,-1.1967,-1.048,-0.897,-0.8783,-0.9456,-0.9813,-0.9617,-0.912,-1.1217,-1.081,-0.887,-0.8615,-0.829,-0.7651,-0.6388,-0.5843,-0.5873,-0.5906,-0.5256,-0.437,-0.4676,-0.444,-0.3858,-0.3046,-0.2998,-0.312,-0.1881,-0.1794,-0.1885,-0.1345,-0.0448,0.0449,0.1263,-0.0887,-0.3054,-0.3059,-0.4468,-0.5624,-0.552,-0.5492,-0.5559,-0.5559,-0.5401,-0.5126,-0.4927,-0.4603,-0.4211,-0.3914,-0.4338,-0.4668,-0.4449,-0.4507,-0.499,-0.6123,-0.6232,-0.6232,-0.6178,-0.6232,-0.6232,-0.6178,-0.6178,-0.6178,-0.6178,-0.6178,-0.6178,-0.6178,-0.6327,-0.6145,-0.5677,-0.5767,-0.5478,-0.2523,-0.2746,-0.293,-0.182,-0.1999,-0.2236,-0.1637,0.0,0.0,-0.0431,-0.0458,-0.0833,-0.1381,-0.0209,0.0,0.0,0.0,0.0,0.0,0.0,0.0,0.0,0.0,0.0,0.0,-1.4755,-1.5801,-1.7297,-1.7462,-1.7145,-1.6566,-1.6446,-1.584,-1.4752,-1.4924,-1.5044,-1.5044,-1.5304,-1.4654,-1.3215,-1.3327,-1.2505,-1.0755,-0.9635,-0.9498,-1.0233,-0.9407,-0.9502,-1.031,-1.16,-1.1423,-1.0319,-1.074,-0.9705,-0.7907,-0.7369,-0.6571,-0.5721,-0.5984,-0.5414,-0.4571,-0.4563,-0.3891,-0.2976,-0.3218,-0.297,-0.2451,-0.2232,-0.1794,-0.1345,-0.0718,-0.0628,-0.027,0.1194,-0.0091,-0.1878,-0.2769,-0.4232,-0.5328,-0.5456,-0.541,-0.5321,-0.5321,-0.5168,-0.4974,-0.4852,-0.4664,-0.446,-0.4139,-0.483,-0.537,-0.5277,-0.5562,-0.5858,-0.6192,-0.6292,-0.6346,-0.6232,-0.6292,-0.6346,-0.6232,-0.6178,-0.6178,-0.6178,-0.6178,-0.6178,-0.6178,-0.6082,-0.6028,-0.5946,-0.5749,-0.5474,-0.1869,-0.2397,-0.2641,-0.2032,-0.2104,-0.2171,-0.1432,0.0,0.0,-0.0094,-0.0317,-0.0778,-0.0639,-0.0557,-0.1125,0.0,0.0,0.0,0.0,0.0,0.0,0.0,0.0,0.0,0.0,0.0,-1.5553,-1.5911,-1.5868,-1.5752,-1.5888,-1.6142,-1.583,-1.4891,-1.4933,-1.4963,-1.4963,-1.4987,-1.4618,-1.3954,-1.3266,-1.2502,-1.1663,-1.041,-1.0062,-1.0421,-0.9981,-0.9497,-0.9388,-1.1488,-1.1483,-1.0249,-1.1124,-1.0858,-0.9786,-0.8878,-0.8188,-0.7731,-0.7269,-0.6264,-0.5108,-0.4533,-0.3542,-0.2521,-0.2759,-0.2993,-0.3018,-0.1969,-0.1974,-0.2064,-0.1256,-0.1086,-0.0827,0.0281,0.0468,-0.0278,-0.2468,-0.4324,-0.5469,-0.5501,-0.5353,-0.5266,-0.526,-0.5195,-0.508,-0.4961,-0.4865,-0.5011,-0.5428,-0.5997,-0.6543,-0.7039,-0.6789,-0.6623,-0.6559,-0.6584,-0.6524,-0.6232,-0.6232,-0.6232,-0.6178,-0.6178,-0.6178,-0.6178,-0.6178,-0.6173,-0.6059,-0.6005,-0.5891,-0.5727,-0.5513,-0.5348,-0.1373,-0.1801,-0.1884,-0.1766,-0.1608,-0.1423,0.0,0.0,0.0,-0.0225,-0.0348,-0.0575,-0.0477,-0.098,-0.1697,0.0,0.0,-0.3385,0.0,0.0,0.0,0.0,0.0,0.0,0.0,-1.4719,-1.5855,-1.5641,-1.5198,-1.5194,-1.5416,-1.5724,-1.5565,-1.4761,-1.4654,-1.4615,-1.4615,-1.4421,-1.4333,-1.416,-1.324,-1.2451,-1.1861,-1.1029,-1.049,-1.0297,-1.0333,-0.9881,-0.9263,-1.1559,-1.169,-1.0592,-1.1706,-1.1765,-1.0988,-1.0087,-0.9465,-0.8995,-0.8335,-0.6982,-0.5513,-0.4883,-0.3582,-0.234,-0.2559,-0.2997,-0.305,-0.1614,-0.1794,-0.2244,-0.1436,-0.1088,-0.0829,-0.0376,-0.0,-0.0188,-0.2127,-0.4127,-0.5594,-0.5642,-0.5479,-0.5302,-0.5308,-0.5292,-0.5159,-0.508,-0.5268,-0.5656,-0.6328,-0.7127,-0.7842,-0.8235,-0.8027,-0.7711,-0.7182,-0.7065,-0.6872,-0.6405,-0.6405,-0.6351,-0.6232,-0.6178,-0.6178,-0.6069,-0.6119,-0.6005,-0.5778,-0.5782,-0.5677,-0.5458,-0.5238,-0.5128,-0.1262,-0.1038,-0.0673,-0.0337,-0.0,0.0263,0.0,0.0,0.0,-0.1102,-0.0568,-0.0291,-0.1472,-0.1369,-0.145,-0.252,0.0,0.0,0.0,0.0,0.0,0.0,0.0,0.0,-1.2921,-1.5486,-1.7136,-1.7217,-1.6593,0.0,-1.5431,-1.513,-1.4747,-1.4174,-1.3893,-1.3743,-1.3743,-1.3764,-1.3591,-1.3149,-1.333,-1.2607,-1.0908,-1.1202,-1.0896,-1.0079,-1.0197,-1.0454,-1.0857,-1.2052,-1.2117,-1.1666,-1.3017,-1.2355,-1.0877,-1.1072,-1.0166,-0.8829,-0.9043,-0.766,-0.5871,-0.5746,-0.4202,-0.2513,-0.2785,-0.2694,-0.2154,-0.0987,-0.1076,-0.1345,-0.0807,-0.0359,-0.009,-0.0552,-0.1664,-0.2402,-0.1751,-0.3628,-0.5513,-0.5826,-0.5616,-0.5452,-0.5621,-0.5431,-0.5186,-0.5184,-0.594,-0.6485,-0.6399,-0.8244,-0.929,-0.8498,-0.9227,-0.931,-0.8105,-0.7728,-0.7345,-0.6817,-0.6931,-0.6758,-0.6232,-0.6178,-0.6069,-0.5795,-0.595,-0.5778,-0.5336,-0.5293,-0.5242,-0.5124,-0.4956,-0.4849,0.0252,-0.0136,-0.0288,-0.0139,-0.0586,-0.0834,-0.0264,0.0,0.0,-0.0287,-0.0325,-0.046,-0.0574,-0.113,-0.1876,-0.272,-0.2832,0.0,0.0,0.0,0.0,0.0,0.0,0.0,0.0,0.0,-1.5611,-1.6413,-1.4858,-1.4025,-1.4517,-1.4435,-1.423,-1.3874,-1.3783,-1.3652,-1.3483,-1.3395,-1.3224,-1.3137,-1.2961,-1.2253,-1.1042,-1.187,-1.1757,-1.0824,-1.1089,-1.1236,-1.1352,-1.198,-1.2042,-1.1859,-1.2818,-1.2657,-1.197,-1.2165,-1.1731,-1.0936,-1.03,-0.9208,-0.7816,-0.6933,-0.5176,-0.3314,-0.2594,-0.206,-0.1525,-0.0539,-0.0359,-0.045,-0.0274,-0.0092,-0.0737,-0.348,-0.4444,-0.4708,-0.4444,-0.527,-0.5994,-0.559,-0.559,-0.5558,-0.5392,-0.5289,-0.5207,-0.5211,-0.6109,-0.6933,-0.7495,-0.8642,-0.9526,-0.9789,-0.9619,-0.9059,-0.8011,-0.7835,-0.7429,-0.6643,-0.6773,-0.6599,-0.5936,-0.5914,-0.5795,-0.5466,-0.5508,-0.5395,-0.5179,-0.5183,-0.5073,-0.4853,-0.4901,-0.4684,0.0,0.0888,0.0507,0.0302,-0.0116,0.0,0.0,0.0,0.0,-0.0117,-0.0356,-0.0575,-0.0585,-0.1234,-0.1839,-0.2092,-0.3149,0.0,0.0,0.0,0.0,0.0,0.0,0.0,0.0,-1.5564,-1.5349,-1.5832,-1.434,-1.3691,-1.4235,-1.4156,-1.3913,-1.3568,-1.3568,-1.3568,-1.3398,-1.3137,-1.2966,-1.2966,-1.279,-1.214,-1.1182,-1.236,-1.2255,-1.1364,-1.2159,-1.2477,0.0,-1.272,-1.2582,-1.2292,-1.2834,-1.2662,-1.2273,-1.2565,-1.2415,-1.1996,-1.1238,-1.0122,-0.8718,-0.7819,-0.5706,-0.3309,-0.2054,-0.1253,-0.0718,-0.018,-0.0,-0.0,-0.0,-0.0,-0.101,-0.522,-0.6117,-0.6026,-0.6121,-0.6312,-0.6346,-0.6068,-0.581,-0.5692,-0.56,-0.5315,-0.5225,-0.5123,-0.6413,-0.7552,-0.8043,-0.9221,-1.0162,-1.0568,-0.9884,-0.9119,-0.8317,-0.8096,-0.7627,-0.6789,-0.6866,-0.6614,-0.5881,-0.5804,-0.5572,-0.5242,-0.5234,-0.512,-0.4849,-0.4849,-0.4794,-0.4632,-0.4629,-0.4522,0.0,0.0,0.0,0.0,0.0,0.0,0.0,0.0,0.0,0.0,0.0,0.0,-0.1206,-0.1581,-0.1605,-0.109,0.0,0.0,0.0,0.0,0.0,0.0,0.0,0.0,-1.39,-1.5345,-1.5908,-1.5423,-1.481,-1.4489,-1.4402,-1.4235,-1.3913,-1.3398,-1.3398,-1.3392,-1.3307,-1.2875,-1.2687,-1.2559,-1.2687,-1.221,-1.1277,-1.251,-1.2621,-1.1785,-1.3258,-1.3841,-1.383,-1.382,-1.3448,-1.2764,-1.2764,-1.2467,-1.2078,-1.2273,-1.2432,-1.2309,-1.1857,-1.0515,-0.8955,-0.8324,-0.5965,-0.3037,-0.1428,-0.0448,-0.0,-0.0,-0.0,-0.009,-0.0449,-0.0449,-0.1527,-0.5947,-0.6675,-0.6474,-0.6737,-0.6721,-0.6624,-0.6813,-0.6251,-0.5722,-0.5994,-0.5545,-0.5175,-0.5068,-0.6813,-0.8068,-0.8124,-0.976,-1.0917,-1.0671,-1.0022,-0.9399,-0.8875,-0.8419,-0.7922,-0.7136,-0.7135,-0.6759,-0.6069,-0.5698,-0.5352,-0.5089,-0.5077,-0.4849,-0.4519,-0.4519,-0.4519,-0.4519,-0.4301,-0.4359,0.2229,0.0,0.1136,0.0661,0.0686,0.0,0.0,0.0,0.0,0.0,0.0,0.0,0.0,0.0,0.0,0.0,0.0,0.0,0.0,0.0,0.0,0.0,0.0,-1.5369,-1.362,-1.4913,-1.5589,-1.5082,-1.4475,-1.4097,-1.3926,-1.4037,-1.3913,-1.3398,-1.3398,-1.3222,-1.2875,-1.279,-1.2331,-1.1531,-1.2337,-1.185,-1.0386,-1.226,-1.2621,-1.1894,-1.3091,-1.363,-1.3543,-1.3335,-1.3055,-1.2764,-1.257,-1.2273,-1.2078,-1.2273,-1.2436,-1.2331,-1.1822,-1.1089,-0.9971,-0.8023,-0.7323,-0.6707,-0.3927,-0.1609,-0.0,-0.0,-0.0,-0.0809,-0.4497,-0.4864,-0.4681,-0.6112,-0.6311,-0.6236,-0.6314,-0.6576,-0.6576,-0.586,-0.5744,-0.5544,-0.5104,-0.508,-0.5114,-0.518,-0.6312,-0.7465,-0.8077,-0.9249,-0.9959,-0.9856,-0.9569,-0.9049,-0.8148,-0.8152,-0.7967,-0.7339,-0.7173,-0.6875,-0.6302,-0.5163,-0.4685,-0.503,-0.48,-0.4574,-0.4519,-0.4519,-0.4519,-0.4519,-0.4463,-0.4411,0.2097,0.169,0.1018,0.0295,0.0657,0.0999,0.0,0.0,0.0,0.0,0.0,0.0,0.0,0.0,0.0,0.0,0.0,0.0,0.0,0.0,0.0,0.0,0.0,-1.4095,0.0,-1.4475,-1.5147,-1.4593,-1.426,-1.4004,-1.3913,-1.3997,-1.3913,-1.3398,-1.3398,-1.3222,-1.2875,-1.279,-1.2123,-1.0948,-1.2102,-1.1966,-1.0551,-1.2412,-1.3064,-1.2657,-1.2677,-1.3026,-1.3421,-1.2483,-1.2363,-1.2764,-1.2467,-1.2273,-1.2175,-1.237,-1.2308,-1.2182,-1.1838,-1.1056,-0.9922,-0.8286,-0.7863,-0.7602,-0.5988,-0.402,-0.1879,-0.0448,-0.0,-0.0988,-0.5315,-0.6048,-0.5771,-0.6106,-0.6278,-0.6453,-0.6441,-0.6704,-0.67,-0.5991,-0.5811,-0.5542,-0.4924,-0.4921,-0.4975,-0.5045,-0.6444,-0.7768,-0.8137,-0.9279,-0.9976,-0.9863,-0.9364,-0.8796,-0.8132,-0.7986,-0.7767,-0.7335,-0.7135,-0.6846,-0.6437,-0.5281,-0.4709,-0.4869,-0.4392,-0.4298,-0.4577,-0.4577,-0.4574,-0.4519,-0.4408,-0.4411,0.1738,0.1526,0.103,0.0089,0.0817,0.1417,0.0,0.0,0.0,0.0,0.0,0.0,0.0,0.0,0.0,0.0,0.0,0.0,0.0,0.0,0.0,0.0,-1.1341,0.0,-1.2751,-1.4037,-1.4647,-1.4108,-1.4088,-1.4004,-1.4004,-1.3997,-1.3828,-1.3398,-1.3313,-1.3222,-1.3052,-1.279,-1.2076,-1.0807,-1.2076,-1.218,-1.1252,-1.2837,-1.3489,-1.3531,-1.2485,0.0,-1.3362,-1.1914,-1.1833,-1.2764,-1.2467,-1.237,-1.237,-1.237,-1.2346,-1.2178,-1.1762,-1.0705,-0.9512,-0.8827,-0.8051,-0.7411,-0.7606,-0.6441,-0.4469,-0.17,-0.0628,-0.1257,-0.486,-0.5768,-0.5855,-0.6189,-0.6453,-0.6716,-0.6795,-0.6969,-0.6962,-0.6428,-0.5985,-0.5542,-0.501,-0.4921,-0.4982,-0.4809,-0.6642,-0.8045,-0.8179,-0.9289,-1.0115,-1.0151,-0.9292,-0.8622,-0.838,-0.8012,-0.7582,-0.721,-0.7066,-0.6644,-0.6057,-0.5443,-0.4966,-0.4501,-0.403,-0.4086,-0.4723,-0.4698,-0.4632,-0.4519,-0.4301,-0.4411,0.1552,0.134,0.0898,0.0224,0.0926,0.1456,0.0131,0.0,0.0,0.0,0.0,0.0,0.0,0.0,0.0,0.0,0.0,0.0,0.0,0.0,-1.222,-1.0889,0.0,-1.4188,-1.2005,-1.3652,-1.4647,-1.4108,-1.3913,-1.3737,-1.3737,-1.3568,-1.3398,-1.3137,-1.3137,-1.3052,-1.279,-1.2705,-1.2165,-1.1055,-1.2134,-1.2357,-1.1827,-1.2998,-1.3612,-1.3814,0.0,-1.3216,-1.3086,-1.272,-1.2469,-1.2467,-1.237,-1.237,-1.237,-1.237,-1.2543,-1.2485,-1.1416,-1.0417,-0.9534,-0.8968,-0.8593,-0.83,-0.7856,-0.7146,-0.6166,-0.5092,-0.3667,-0.3047,-0.5473,-0.6106,-0.6189,-0.6349,-0.6615,-0.6795,-0.6795,-0.6969,-0.6874,-0.5985,-0.5719,-0.5453,-0.4565,-0.4743,-0.5006,-0.4989,-0.5505,-0.6567,-0.8135,-0.8204,-0.8519,-0.983,-0.9216,-0.8553,-0.8158,-0.8083,-0.7802,-0.7242,-0.7172,-0.6264,-0.4363,-0.474,-0.4562,-0.3606,-0.3736,-0.4185,-0.4937,-0.4692,-0.4519,-0.4519,-0.4463,-0.4463,0.1121,0.1147,0.0969,0.0047,0.0486,0.0716,-0.0813,0.0,0.0,0.0,0.0,0.0,0.0,0.0,0.0,0.0,0.0,0.0,-1.1366,-1.1857,-1.1969,0.0,0.0,-1.3205,-1.2012,-1.345,-1.4392,-1.4095,-1.3997,-1.3822,-1.3737,-1.3652,-1.3392,-1.3143,-1.3077,-1.2903,-1.2699,-1.2566,-1.1893,-1.0677,-1.1945,-1.2026,-1.1111,-1.2357,-1.302,-1.3297,0.0,-1.2303,-1.2841,-1.2005,-1.2026,-1.2667,-1.2667,-1.249,-1.2363,-1.2141,-1.1983,-1.1753,-1.0748,-1.003,-0.9483,-0.8833,-0.8629,-0.8476,-0.794,-0.7408,-0.6789,-0.6254,-0.5282,-0.4667,-0.5919,-0.6189,-0.6275,-0.6346,-0.6612,-0.6795,-0.6795,-0.6969,-0.6786,-0.5897,-0.5719,-0.5364,-0.4476,-0.4654,-0.501,-0.501,-0.579,-0.6685,-0.7604,-0.8003,-0.8413,-0.8983,-0.8841,-0.8554,-0.8254,-0.7868,-0.746,-0.7093,-0.6485,-0.5557,-0.4141,-0.3833,-0.3787,-0.4021,-0.3669,-0.4094,-0.5399,-0.5059,-0.4869,-0.4752,-0.4642,-0.4541,0.094,0.1044,0.1035,0.0048,0.0,0.0172,-0.1722,0.0,0.0,0.0,0.0,0.0,0.0,0.0,0.0,0.0,0.0,-1.1266,-1.2893,-1.2395,-1.2043,-1.2789,-1.256,-1.2397,-1.2508,-1.3404,-1.3913,-1.3913,-1.3853,-1.373,-1.3555,-1.3464,-1.3264,-1.2866,-1.2952,-1.281,-1.2529,-1.2392,-1.1787,-1.0765,-1.1781,-1.1775,-1.0794,-1.1899,-1.2564,-1.2765,-1.1671,-1.1844,-1.2753,-1.1626,-1.1791,-1.2759,-1.27,-1.2571,-1.2393,-1.2013,-1.163,-1.1201,-1.0496,-0.9969,-0.9423,-0.8869,-0.8637,-0.8476,-0.794,-0.7496,-0.7058,-0.6646,-0.6204,-0.5841,-0.6097,-0.6272,-0.6361,-0.6435,-0.67,-0.6881,-0.6881,-0.6966,-0.6786,-0.5897,-0.5719,-0.5364,-0.4476,-0.4654,-0.501,-0.501,-0.5987,-0.6806,-0.7037,-0.7797,-0.8247,-0.8036,-0.8472,-0.8568,-0.828,-0.7288,-0.6605,-0.642,-0.5836,-0.5036,-0.4101,-0.3195,-0.3266,-0.448,-0.3727,-0.4117,-0.5758,-0.5351,-0.5129,-0.4973,-0.4803,-0.4609,0.1286,0.1174,0.0981,0.0491,0.0,0.0,-0.1707,-0.1095,0.0,0.0,0.0,0.0,0.0,0.0,0.0,0.0,0.0,-1.2096,-1.3664,0.0,-1.4896,-1.4697,-1.405,-1.3567,-1.3562,-1.3516,-1.3464,-1.3476,-1.324,-1.3092,-1.301,-1.2839,-1.2556,-1.2308,-1.26,-1.2481,-1.2011,-1.2312,-1.2316,-1.2281,-1.2112,-1.2152,-1.2218,-1.2309,-1.2507,-1.2836,-1.2725,-1.268,-1.2834,-1.27,-1.2716,-1.2743,-1.2527,-1.2431,-1.2414,-1.2393,-1.2055,-1.156,-1.1234,-1.041,-0.9465,-0.9161,-0.8836,-0.8476,-0.794,-0.7496,-0.7081,-0.6944,-0.6529,-0.6086,-0.6086,-0.6441,-0.6795,-0.6792,-0.6966,-0.7054,-0.7054,-0.7051,-0.6786,-0.5897,-0.5719,-0.5364,-0.4476,-0.4654,-0.501,-0.501,-0.5453,-0.5979,-0.6552,-0.7001,-0.7254,-0.7007,-0.8047,-0.8453,-0.7921,-0.6167,-0.5098,-0.5048,-0.5523,-0.5155,-0.372,-0.3278,-0.3407,-0.4239,-0.384,-0.4411,-0.588,-0.5398,-0.5121,-0.4973,-0.4803,-0.4609,0.1255,0.1,0.0617,-0.0045,0.0,0.0,0.0,0.0,0.0,0.0,0.0,0.0,0.0,0.0,0.0,0.0,-1.1899,-1.3197,-1.4578,-1.4805,-1.473,-1.4415,-1.3998,-1.3665,-1.3515,-1.3411,-1.3412,-1.3316,-1.3207,-1.3072,-1.2737,-1.2804,-1.2593,-1.2246,-1.2197,-1.2164,-1.223,-1.2005,-1.1968,-1.2123,-1.1957,-1.1835,-1.1925,-1.1832,-1.1927,-1.2342,-1.2308,-1.2417,-1.2554,-1.27,-1.2764,-1.2727,-1.2339,-1.2186,-1.211,-1.1864,-1.1392,-1.0812,-1.0614,-0.9962,-0.9173,-0.8962,-0.8763,-0.8564,-0.8388,-0.7764,-0.7064,-0.7029,-0.6649,-0.6275,-0.6451,-0.6591,-0.6795,-0.6795,-0.6966,-0.7139,-0.7139,-0.6874,-0.6428,-0.5808,-0.5453,-0.5097,-0.4387,-0.4659,-0.5046,-0.5127,-0.543,-0.5783,-0.5938,-0.6138,-0.6244,-0.6126,-0.6798,-0.6974,-0.6101,-0.5495,-0.4724,-0.3696,-0.3993,-0.3808,-0.2834,-0.2288,-0.2406,-0.323,-0.3439,-0.421,-0.538,-0.5561,-0.5581,-0.5582,-0.5395,-0.5132,0.1347,0.1044,0.0629,0.0,0.0,0.0,0.0,0.0,0.0,0.0,0.0,0.0,0.0,0.0,0.0,0.0,-1.2408,-1.3411,-1.4831,-1.4726,-1.4412,-1.4081,-1.3783,-1.355,-1.3313,-1.3207,-1.3124,-1.3067,-1.3063,-1.2881,-1.2529,-1.2674,-1.2472,-1.1986,-1.1895,-1.1903,-1.194,-1.177,-1.1781,-1.2043,-1.1785,-1.1699,-1.1699,-1.1527,-1.1565,-1.1882,-1.2046,-1.2118,-1.2325,-1.2501,-1.249,-1.2304,-1.1973,-1.1902,-1.1807,-1.1364,-1.0933,-1.0495,-1.0332,-0.975,-0.9141,-0.8988,-0.8874,-0.8714,-0.8424,-0.7801,-0.7214,-0.7121,-0.6732,-0.6376,-0.6603,-0.6809,-0.6881,-0.6881,-0.6966,-0.7139,-0.7139,-0.6874,-0.6428,-0.5808,-0.5453,-0.501,-0.4387,-0.4659,-0.4961,-0.5139,-0.5403,-0.5541,-0.5374,-0.5612,-0.5852,-0.5912,-0.5567,-0.5251,-0.4996,-0.4673,-0.3927,-0.2906,-0.2865,-0.27,-0.2223,-0.1682,-0.1817,-0.2695,-0.3074,-0.386,-0.4992,-0.537,-0.5627,-0.5836,-0.5769,-0.5489,0.1639,0.1493,0.0,0.0,0.0,0.0,0.0,0.0,0.0,0.0,0.0,0.0,-0.6177,0.0,0.0,-0.9563,-1.1044,-1.2631,-1.4141,-1.4453,-1.4302,-1.3939,-1.355,-1.332,-1.3368,-1.2879,-1.2555,-1.2605,-1.2463,-1.2382,-1.2376,-1.2376,-1.2088,-1.1416,-1.1708,-1.1674,-1.1284,-1.1524,-1.178,-1.2037,-1.178,-1.1699,-1.1699,-1.1699,-1.1658,-1.1698,-1.1876,-1.1968,-1.201,-1.1955,-1.1727,-1.1436,-1.1436,-1.1483,-1.1589,-1.1124,-1.0834,-1.0774,-1.0578,-1.0027,-0.9386,-0.9209,-0.9125,-0.8934,-0.8038,-0.761,-0.737,-0.7086,-0.6535,-0.6201,-0.6603,-0.6895,-0.7143,-0.7143,-0.7143,-0.7143,-0.7143,-0.7054,-0.6786,-0.5897,-0.5719,-0.5364,-0.4476,-0.448,-0.4748,-0.501,-0.5184,-0.5332,-0.5121,-0.5612,-0.6094,-0.6437,-0.4351,-0.3448,-0.4873,-0.3454,-0.2591,-0.2755,-0.2289,-0.1954,-0.189,-0.1482,-0.1751,-0.2695,-0.2695,-0.3422,-0.48,-0.4809,-0.514,-0.5706,-0.5706,-0.5553,0.1673,0.0,0.0,0.0,0.0,0.0,0.0,0.0,0.0,0.0,0.0,-0.8259,-0.7041,0.0,0.0,-1.0134,-1.1898,-1.3437,-1.3811,-1.3888,-1.3669,-1.3214,-1.3093,-1.2968,-1.275,-1.2606,-1.2457,-1.2478,-1.2396,-1.2285,-1.2153,-1.2214,-1.21,-1.1632,-1.157,-1.1526,-1.1414,-1.1412,-1.1589,-1.2015,-1.2105,-1.2035,-1.1871,-1.1613,-1.1739,-1.2231,-1.2054,-1.1956,-1.196,-1.1707,-1.1548,-1.14,-1.1395,-1.1354,-1.1358,-1.0829,-1.064,-1.0486,-1.0096,-0.9724,-0.943,-0.922,-0.922,-0.9038,-0.8267,-0.7875,-0.7528,-0.6972,-0.6554,-0.6352,-0.648,-0.6715,-0.7034,-0.7034,-0.7215,-0.7302,-0.7302,-0.6781,-0.6122,-0.5813,-0.5179,-0.4654,-0.4387,-0.448,-0.475,-0.4837,-0.4973,-0.4882,-0.4283,-0.4277,-0.4216,-0.4142,-0.3675,-0.337,-0.3454,-0.2746,-0.2276,-0.2281,-0.1789,-0.1482,-0.1616,-0.1376,-0.1308,-0.155,-0.2695,-0.3228,-0.3207,-0.4284,-0.5137,-0.5814,-0.5115,-0.4918,0.1249,0.0,0.0,0.0,0.0,0.0,0.0,0.0,0.0,0.0,0.0,-0.8263,-0.7586,-0.9469,0.0,-1.0355,-1.2122,-1.3534,-1.3354,-1.3423,-1.3293,-1.2948,-1.2857,-1.2746,-1.2544,-1.2454,-1.2389,-1.2296,-1.2277,-1.2198,-1.209,-1.2077,-1.1877,-1.1401,-1.1193,-1.1178,-1.1212,-1.1082,-1.1259,-1.1829,-1.1834,-1.1804,-1.1889,-1.1649,-1.1635,-1.1771,-1.1524,-1.1452,-1.1405,-1.1146,-1.1041,-1.0955,-1.0955,-1.0963,-1.1031,-1.0441,-1.0386,-1.0486,-1.0028,-0.9727,-0.9569,-0.937,-0.9264,-0.9063,-0.8541,-0.8053,-0.7517,-0.7098,-0.6612,-0.6343,-0.6343,-0.6585,-0.6831,-0.7105,-0.7346,-0.7502,-0.7451,-0.6835,-0.6099,-0.5813,-0.5095,-0.448,-0.43,-0.4389,-0.4659,-0.4837,-0.4872,-0.4675,-0.4187,-0.3761,-0.3448,-0.3295,-0.3215,-0.3059,-0.2746,-0.2275,-0.2041,-0.1965,-0.1487,-0.1293,-0.1436,-0.1218,-0.1146,-0.1149,-0.1928,-0.2554,-0.3072,-0.4015,-0.4894,-0.5767,-0.4804,-0.4302,0.0,0.0,0.0,0.0,0.0,0.0,0.0,0.0,0.0,0.0,0.0,-0.7678,-0.7799,-0.9155,-1.026,-1.0293,-1.1942,-1.3154,-1.2991,-1.3085,-1.305,-1.2955,-1.2777,-1.2708,-1.2645,-1.2392,-1.2225,-1.2164,-1.2004,-1.2071,-1.2218,-1.1771,-1.137,-1.1,-1.0827,-1.073,-1.0765,-1.0625,-1.0952,-1.1529,-1.1135,-1.1184,-1.1592,-1.1793,-1.1544,-1.0863,-1.0685,-1.0568,-1.0564,-1.0598,-1.0475,-1.0299,-1.0318,-1.0563,-1.0799,-1.0194,-1.0184,-1.0435,-1.0076,-0.9831,-0.9741,-0.9592,-0.9328,-0.9007,-0.8565,-0.7964,-0.7339,-0.7094,-0.6612,-0.6171,-0.6432,-0.6441,-0.6624,-0.7238,-0.7483,-0.7574,-0.7607,-0.7024,-0.6453,-0.5994,-0.5371,-0.4839,-0.4389,-0.4285,-0.4452,-0.4805,-0.4765,-0.4617,-0.4304,-0.3787,-0.3446,-0.3446,-0.3059,-0.2746,-0.2511,-0.2118,-0.1805,-0.1729,-0.1415,-0.1335,-0.1335,-0.1178,-0.1095,-0.1164,-0.0851,-0.1745,-0.3936,-0.401,-0.4625,-0.5652,-0.4483,-0.354,0.0,0.0,0.0,0.0,0.0,0.0,0.0,0.0,0.0,0.0,0.0,-0.8562,-0.7918,-0.9695,-1.1033,-1.0399,-1.1859,-1.2966,-1.27,-1.259,-1.2476,-1.2158,-1.2123,-1.2054,-1.206,-1.1998,-1.1964,-1.1825,-1.1756,-1.1686,-1.161,-1.1407,-1.116,-1.0953,-1.0738,-1.0556,-1.0419,-1.0609,-1.0799,-1.0983,-1.0913,-1.0975,-1.109,-1.0952,-1.0958,-1.1,-1.0666,-1.0594,-1.0554,-1.026,-1.0081,-1.0057,-1.0224,-1.0348,-1.0453,-1.0306,-1.0301,-1.0332,-1.0037,-0.9768,-0.9332,-0.9104,-0.8885,-0.8481,-0.7642,-0.7517,-0.7517,-0.6735,-0.6612,-0.6618,-0.6704,-0.6786,-0.6934,-0.7091,-0.7208,-0.7246,-0.7271,-0.6646,-0.5852,-0.5573,-0.4921,-0.4389,-0.43,-0.4272,-0.4091,-0.3748,-0.3714,-0.3667,-0.3233,-0.3118,-0.3054,-0.3054,-0.2901,-0.2747,-0.2511,-0.212,-0.1807,-0.1729,-0.1415,-0.1335,-0.1335,-0.1257,-0.1137,-0.0909,-0.1707,-0.2762,-0.3956,-0.4691,-0.5233,-0.5379,-0.2348,-0.141,0.0,0.0,0.0,0.0,0.0,0.0,0.0,0.0,0.0,0.0,0.0,-0.8272,-0.8179,-0.954,-1.0627,-1.0483,-1.1571,-1.2424,-1.2281,-1.2165,-1.2093,-1.1924,-1.1913,-1.1969,-1.2037,-1.1969,-1.1901,-1.184,-1.1567,-1.1354,-1.1292,-1.0927,-1.0697,-1.0535,-1.0367,-1.0185,-1.0124,-1.0307,-1.0408,-1.0501,-1.0513,-1.0422,-1.0288,-1.0405,-1.0501,-1.0641,-1.0381,-1.0294,-1.0294,-1.0125,-1.0038,-1.0052,-1.0162,-1.0182,-1.0282,-0.9899,-0.9904,-0.9926,-0.9777,-0.9345,-0.8999,-0.9087,-0.8709,-0.8053,-0.7429,-0.7371,-0.7331,-0.6719,-0.6704,-0.6795,-0.6795,-0.685,-0.6889,-0.6996,-0.7165,-0.7292,-0.6892,-0.6353,-0.57,-0.5394,-0.4746,-0.43,-0.43,-0.4399,-0.423,-0.3489,-0.3552,-0.3534,-0.3045,-0.3019,-0.2934,-0.2934,-0.2902,-0.2746,-0.2353,-0.2042,-0.1808,-0.165,-0.1415,-0.1335,-0.1335,-0.1335,-0.1228,-0.102,-0.1663,-0.2515,-0.3655,-0.4812,-0.5382,-0.5326,-0.2554,-0.1008,0.0,0.0,0.0,0.0,0.0,0.0,0.0,0.0,0.0,0.0,-0.7555,-0.7678,-0.8411,-0.9155,-0.9892,-1.0578,-1.1342,-1.1874,-1.1878,-1.1881,-1.1854,-1.1854,-1.185,-1.1875,-1.2016,-1.1882,-1.1748,-1.1755,-1.1276,-1.1005,-1.1012,-1.0453,-1.0134,-1.0133,-0.9946,-0.9849,-0.9831,-0.9974,-1.0008,-1.0021,-1.0104,-0.9866,-0.9438,-0.9902,-1.0063,-1.01,-0.9966,-0.9899,-0.9899,-0.9899,-0.9918,-0.9951,-0.9951,-0.9976,-1.0018,-0.9407,-0.9305,-0.9367,-0.9244,-0.8823,-0.8564,-0.8911,-0.8464,-0.7672,-0.7404,-0.7228,-0.7051,-0.6881,-0.6776,-0.6848,-0.6848,-0.6848,-0.6848,-0.6939,-0.7224,-0.729,-0.6606,-0.6106,-0.5654,-0.5203,-0.4661,-0.4285,-0.4244,-0.445,-0.4343,-0.3516,-0.3594,-0.3626,-0.2908,-0.2943,-0.2964,-0.2873,-0.2822,-0.2589,-0.2275,-0.2042,-0.1807,-0.165,-0.1415,-0.1335,-0.1335,-0.1335,-0.1325,-0.1304,-0.1271,-0.1777,-0.2809,-0.3961,-0.4788,-0.5346,-0.3228,-0.1075,0.0,0.0,0.0,0.0,0.0,0.0,0.0,0.0,0.0,0.0,-0.732,-0.763,-0.8389,-0.9165,-0.993,-1.056,-1.1333,-1.1802,-1.1784,-1.174,-1.1648,-1.1648,-1.1481,-1.1368,-1.1432,-1.1305,-1.1121,-1.0809,-1.0739,-1.0547,-1.0161,-0.9949,-0.986,-0.9835,-0.9667,-0.955,-0.955,-0.9691,-0.9736,-0.9757,-0.9702,-0.9402,-0.8827,-0.9198,-0.9426,-0.9417,-0.9606,-0.9686,-0.9686,-0.9686,-0.979,-0.9951,-0.9519,-0.945,-0.938,-0.8911,-0.8744,-0.8769,-0.8736,-0.8376,-0.794,-0.794,-0.7672,-0.7143,-0.6969,-0.6966,-0.7051,-0.6881,-0.6883,-0.687,-0.687,-0.687,-0.687,-0.6694,-0.6933,-0.6985,-0.6433,-0.5936,-0.5366,-0.4839,-0.448,-0.4232,-0.4107,-0.4247,-0.3959,-0.2917,-0.3263,-0.3283,-0.2335,-0.2614,-0.2784,-0.2694,-0.2655,-0.2589,-0.2431,-0.2196,-0.1962,-0.1729,-0.1415,-0.1335,-0.1335,-0.1335,-0.1284,-0.1312,-0.1291,-0.1215,-0.0945,-0.0809,-0.2356,-0.5343,-0.1952,-0.0202,0.0,0.0,0.0,0.0,0.0,0.0,0.0,0.0,0.0,0.0,-0.7435,-0.7974,-0.8964,-0.9697,-1.0414,-1.1337,-1.1769,-1.1917,-1.163,-1.1525,-1.1361,-1.1152,-1.1019,-1.0905,-1.097,-1.0767,-1.0497,-1.0294,-1.0115,-0.9929,-0.9681,-0.9648,-0.9606,-0.9664,-0.9542,-0.9484,-0.9484,-0.9608,-0.9593,-0.9487,-0.9202,-0.8935,-0.8687,-0.8899,-0.9094,-0.9327,-0.9426,-0.9464,-0.9474,-0.9513,-0.97,-0.9709,-0.9392,-0.9262,-0.9174,-0.8464,-0.8113,-0.8113,-0.8113,-0.7848,-0.7408,-0.7672,-0.7496,-0.7051,-0.6881,-0.6966,-0.7051,-0.6881,-0.6867,-0.6929,-0.6929,-0.6929,-0.6843,-0.6754,-0.6863,-0.6789,-0.6068,-0.5897,-0.5636,-0.5018,-0.4747,-0.4581,-0.4577,-0.4318,-0.3816,-0.3029,-0.2977,-0.283,-0.2095,-0.2403,-0.2644,-0.2516,-0.2493,-0.2511,-0.2431,-0.2196,-0.2041,-0.1887,-0.1493,-0.1335,-0.1335,-0.1266,-0.1147,-0.0917,-0.1165,-0.1231,-0.0984,-0.0342,-0.0808,-0.2357,-0.0741,-0.0,0.0,0.0,0.0,0.0,0.0,0.0,0.0,0.0,0.0,0.0,-0.7471,-0.8327,-0.9292,-1.0046,-1.0795,-1.1725,-1.1949,-1.1809,-1.1447,-1.1305,-1.1121,-1.0796,-1.0571,-1.0458,-1.0464,-1.0158,-0.9883,-0.974,-0.9567,-0.9417,-0.9309,-0.9363,-0.9352,-0.9376,-0.9352,-0.9388,-0.9408,-0.9538,-0.9378,-0.898,-0.879,-0.8598,-0.8471,-0.8608,-0.8798,-0.9096,-0.92,-0.9247,-0.9266,-0.9478,-0.9513,-0.9409,-0.9183,-0.8995,-0.8815,-0.7891,-0.7552,-0.7577,-0.761,-0.7362,-0.7139,-0.7496,-0.7408,-0.7051,-0.6881,-0.6943,-0.7007,-0.6871,-0.6814,-0.6831,-0.6909,-0.6898,-0.6963,-0.6919,-0.6837,-0.6659,-0.5891,-0.5673,-0.5547,-0.5029,-0.4898,-0.4823,-0.4932,-0.4416,-0.3732,-0.3217,-0.2786,-0.2453,-0.2053,-0.2337,-0.2457,-0.2371,-0.2433,-0.2433,-0.2353,-0.2245,-0.2094,-0.2047,-0.1572,-0.1335,-0.1335,-0.1243,-0.1058,-0.0786,-0.0894,-0.0963,-0.1001,-0.0344,-0.0,-0.0,-0.0,-0.0,0.0,0.0,0.0,0.0,0.0,0.0,0.0,0.0,0.0,0.0,-0.7157,-0.8488,-0.8896,-0.9786,-1.0623,-1.1048,-1.1406,-1.1537,-1.1185,-1.1104,-1.0998,-1.0653,-1.0217,-0.9911,-0.9932,-0.9563,-0.9266,-0.9051,-0.9051,-0.9045,-0.9114,-0.8998,-0.8998,-0.9144,-0.9004,-0.8995,-0.9128,-0.9344,-0.8978,-0.8103,-0.8526,-0.8377,-0.7895,-0.8248,-0.8429,-0.8472,-0.8869,-0.9039,-0.9058,-0.9256,-0.9206,-0.8891,-0.874,-0.8285,-0.7834,-0.7163,-0.7024,-0.7112,-0.7011,-0.6983,-0.7139,-0.7139,-0.7139,-0.7139,-0.7051,-0.7048,-0.6966,-0.7014,-0.6827,-0.6563,-0.6854,-0.6989,-0.7079,-0.6895,-0.6929,-0.6791,-0.5871,-0.5107,-0.4624,-0.4888,-0.488,-0.4811,-0.4862,-0.4329,-0.3749,-0.3212,-0.2689,-0.2287,-0.2045,-0.2208,-0.2366,-0.2591,-0.2515,-0.2515,-0.2511,-0.2296,-0.2154,-0.2135,-0.1572,-0.1335,-0.1335,-0.133,-0.1271,-0.1154,-0.0472,-0.0067,-0.0068,-0.0,-0.0,-0.0,-0.0,-0.0,0.0,0.0,0.0,0.0,0.0,0.0,0.0,0.0,0.0,-0.4437,-0.6493,-0.8081,-0.777,-0.9514,-1.1058,-1.1218,-1.1425,-1.1356,-1.0781,-1.0399,-0.9963,-0.9559,-0.922,-0.8996,-0.8838,-0.8783,-0.8618,-0.8294,-0.7926,-0.8017,-0.8703,-0.811,-0.8193,-0.8995,-0.8942,-0.891,-0.893,-0.8998,-0.8685,-0.8002,-0.8021,-0.7967,-0.7826,-0.8103,-0.8269,-0.8415,-0.8694,-0.8817,-0.8831,-0.8722,-0.8679,-0.8617,-0.809,-0.7765,-0.7598,-0.7118,-0.6898,-0.6875,-0.6993,-0.7021,-0.7004,-0.7004,-0.7065,-0.7122,-0.7034,-0.7034,-0.7075,-0.7126,-0.6959,-0.679,-0.6902,-0.6973,-0.6881,-0.6679,-0.6297,-0.599,-0.5602,-0.5352,-0.5178,-0.5385,-0.5333,-0.5289,-0.5392,-0.4462,-0.3542,-0.3418,-0.2596,-0.2043,-0.1962,-0.2196,-0.2431,-0.2353,-0.2433,-0.2434,-0.2353,-0.2187,-0.2118,-0.2048,-0.1572,-0.1335,-0.1335,-0.1284,-0.1246,-0.1228,-0.0622,-0.0202,-0.0,-0.0,0.027,0.0674,0.0202,-0.0,0.0,0.0,0.0,0.0,0.0,0.0,0.0,0.0,0.0,-0.3855,-0.5849,-0.7502,-0.7138,-0.8958,-1.0601,-1.0805,-1.1001,-1.0914,-1.028,-0.9755,-0.9261,-0.8769,-0.8428,-0.8191,-0.7998,-0.7992,-0.7966,-0.7826,-0.7413,0.0,-0.8391,-0.7777,-0.78,-0.8581,-0.8664,-0.8587,-0.8453,-0.8589,-0.8388,-0.7802,-0.7757,-0.7673,-0.7678,-0.7886,-0.8056,-0.8207,-0.8406,-0.8501,-0.8493,-0.8461,-0.8298,-0.8016,-0.7577,-0.7337,-0.7264,-0.6961,-0.6829,-0.6715,-0.6898,-0.6936,-0.6848,-0.6817,-0.6892,-0.6987,-0.6943,-0.6959,-0.7014,-0.7112,-0.7,-0.6875,-0.6973,-0.6914,-0.6827,-0.6471,-0.6005,-0.5612,-0.5445,-0.5325,-0.5331,-0.5565,-0.5579,-0.5459,-0.544,-0.4463,-0.3539,-0.3418,-0.255,-0.1919,-0.1964,-0.2196,-0.2353,-0.2275,-0.2431,-0.2433,-0.2276,-0.2121,-0.2044,-0.1965,-0.1256,-0.0707,-0.0471,-0.0678,-0.0737,-0.0593,-0.0285,0.0138,0.0674,0.0337,0.0404,0.0877,0.0539,0.0269,0.0,0.0,0.0,0.0,0.0,0.0,0.0,0.0,-0.3934,-0.3864,-0.5273,-0.6686,-0.7086,-0.8126,-0.914,-0.9719,-1.012,-1.0173,-0.9563,-0.9249,-0.8913,-0.8426,-0.7894,-0.7608,-0.7608,-0.7362,-0.7291,-0.7579,-0.7559,-0.7772,-0.8273,-0.8039,-0.7886,-0.789,-0.8158,-0.8117,-0.7686,-0.8153,-0.8043,-0.7382,-0.759,-0.7652,-0.7521,-0.7678,-0.7782,-0.7792,-0.7999,-0.8102,-0.8102,-0.8286,-0.7899,-0.7129,-0.7278,-0.7098,-0.6678,-0.6774,-0.6732,-0.6733,-0.6777,-0.6788,-0.6681,-0.6671,-0.6706,-0.6725,-0.6871,-0.6814,-0.6759,-0.7048,-0.6919,-0.6766,-0.7058,-0.6959,-0.6718,-0.6434,-0.6129,-0.5724,-0.5317,-0.5025,-0.4964,-0.5385,-0.5426,-0.5289,-0.5082,-0.4385,-0.3656,-0.3204,-0.2455,-0.2065,-0.2212,-0.22,-0.2278,-0.2511,-0.2511,-0.2434,-0.2201,-0.1965,-0.1886,-0.1884,-0.0705,0.0392,0.1254,0.047,0.0229,0.0727,0.0739,0.1228,0.2093,0.1146,0.0607,0.0607,0.0942,0.074,0.0243,0.0,0.0,0.0,0.0,0.0,0.0,0.0,0.0,-0.2502,-0.4093,-0.5616,-0.6209,-0.7288,-0.8164,-0.849,-0.9099,-0.9415,-0.9127,-0.8554,-0.803,-0.7703,-0.7424,-0.7247,-0.7247,-0.7242,-0.7336,0.0,-0.6918,-0.6891,-0.7823,-0.7932,-0.7886,-0.777,-0.8017,-0.7988,-0.7637,-0.7645,-0.7483,-0.7154,-0.7379,-0.7429,-0.7316,-0.7745,-0.7909,-0.7801,-0.816,-0.7929,-0.7256,-0.7443,-0.7366,-0.7027,-0.672,-0.6683,-0.6778,-0.6816,-0.6756,-0.6634,-0.6855,-0.6803,-0.6532,-0.6585,-0.659,-0.6688,-0.662,-0.6647,-0.6719,-0.68,-0.6763,-0.6742,-0.6761,-0.6551,-0.6362,-0.6111,-0.5722,-0.5347,-0.52,-0.5044,-0.5066,-0.5333,-0.5224,-0.5032,-0.491,-0.3853,-0.3143,-0.3208,-0.2485,-0.2006,-0.2268,-0.2376,-0.2526,-0.2519,-0.2511,-0.2511,-0.2434,-0.1412,-0.1088,-0.1978,-0.0619,0.0772,0.194,0.0753,0.0447,0.1358,0.1749,0.2265,0.2765,0.3313,0.3316,0.2703,0.1616,0.0808,0.0,0.0,0.0,0.0,0.0,0.0,-0.0207,-0.0905,-0.1662,0.0,-0.3317,-0.4613,-0.5101,-0.5754,-0.6439,-0.7083,-0.7535,-0.7916,-0.8334,-0.7991,-0.7571,-0.7327,-0.7057,-0.6934,-0.6934,-0.6978,-0.712,-0.7304,-0.677,-0.6717,-0.7408,-0.7494,-0.7461,-0.7387,-0.7527,-0.7459,-0.7115,-0.7208,-0.7118,-0.6837,-0.7043,-0.7197,-0.7231,-0.7534,-0.7692,-0.7659,-0.7836,-0.7495,-0.6772,-0.6809,-0.6763,-0.6592,-0.6273,-0.6335,-0.6627,-0.6702,-0.6642,-0.6514,-0.677,-0.6614,-0.6383,-0.6383,-0.6444,-0.6512,-0.6481,-0.6532,-0.6617,-0.6599,-0.6533,-0.6469,-0.6466,-0.6323,-0.5975,-0.5745,-0.5454,-0.5173,-0.5127,-0.5099,-0.5143,-0.5333,-0.5188,-0.4913,-0.4595,-0.3789,-0.3086,-0.3014,-0.2555,-0.2236,-0.2335,-0.252,-0.2508,-0.2518,-0.2511,-0.2363,-0.1908,-0.0867,-0.0234,-0.0,0.0936,0.2011,0.324,0.1933,0.17,0.2816,0.2688,0.2958,0.3636,0.4266,0.4136,0.3179,0.1751,0.0942,0.0,0.0,0.0,0.0,0.0,0.0,-0.0294,-0.0621,-0.1169,0.0,-0.279,-0.3514,-0.3818,-0.4061,-0.4489,-0.5532,-0.5674,-0.6102,-0.7407,-0.7459,-0.7292,-0.7011,-0.6775,-0.6659,-0.6659,-0.6681,-0.6783,-0.7075,-0.6939,-0.6911,-0.7015,-0.6928,-0.683,-0.6737,-0.6737,-0.6569,-0.6292,-0.6524,-0.6611,-0.6445,-0.6597,-0.6852,-0.7154,-0.7111,-0.7229,-0.7358,-0.719,-0.6835,-0.6507,-0.6398,-0.6246,-0.6006,-0.6023,-0.6115,-0.6314,-0.656,-0.649,-0.6338,-0.6563,-0.649,-0.6338,-0.6338,-0.6335,-0.6281,-0.641,-0.6368,-0.6394,-0.6361,-0.6166,-0.6096,-0.6255,-0.6013,-0.5576,-0.5459,-0.5339,-0.514,-0.5037,-0.5097,-0.5203,-0.5325,-0.503,-0.47,-0.4193,-0.3823,-0.334,-0.27,-0.2605,-0.2582,-0.2527,-0.252,-0.2439,-0.2354,-0.2359,-0.1903,-0.0807,-0.0317,0.079,0.2739,0.3008,0.3593,0.4585,0.3444,0.3362,0.4513,0.349,0.3554,0.464,0.4462,0.3789,0.2701,0.1751,0.1212,0.0,0.0,0.0,0.0,0.0189,0.0,-0.0094,-0.0101,-0.0357,0.0,-0.1686,-0.206,-0.3017,-0.3612,-0.3935,-0.3839,-0.4433,-0.535,-0.6641,-0.6877,-0.6713,-0.6113,-0.6258,-0.6385,-0.6385,-0.6457,-0.6659,-0.6935,-0.6796,-0.6651,-0.6372,-0.6593,-0.6376,-0.5614,-0.5727,-0.5673,-0.5504,-0.4982,-0.5278,-0.6234,-0.6151,-0.6263,-0.6658,-0.6455,-0.6511,-0.6777,-0.6477,-0.6234,-0.6081,-0.6211,-0.6102,-0.5857,-0.5983,-0.6119,-0.631,-0.6513,-0.6563,-0.6563,-0.6788,-0.6641,-0.6338,-0.649,-0.6254,-0.5948,-0.5821,-0.5752,-0.5758,-0.5786,-0.571,-0.5633,-0.5633,-0.5468,-0.5297,-0.5272,-0.5118,-0.5045,-0.5021,-0.5034,-0.5004,-0.4796,-0.4543,-0.424,-0.3542,-0.308,-0.2772,-0.2676,-0.2468,-0.2352,-0.2585,-0.2583,-0.2324,-0.1571,-0.1515,-0.1042,0.0237,0.1177,0.1943,0.2529,0.2873,0.3599,0.4731,0.3636,0.3589,0.4654,0.4328,0.433,0.4709,0.4715,0.4105,0.2952,0.256,0.1955,0.0,0.0,0.0,0.0619,0.0,0.0,0.0,-0.0071,-0.0373,-0.0811,-0.1114,-0.1419,-0.183,-0.2106,-0.2306,-0.2466,-0.2908,-0.3468,-0.4194,-0.5187,-0.5743,-0.553,-0.5801,-0.5864,-0.5521,-0.5767,-0.5933,-0.5933,-0.6206,-0.6273,-0.6119,-0.6109,-0.5946,-0.5576,-0.5639,-0.5644,-0.5529,-0.5293,-0.5508,-0.6178,-0.6105,-0.6205,-0.6478,-0.6285,-0.631,-0.6589,-0.6177,-0.5944,-0.5896,-0.5907,-0.5784,-0.5596,-0.582,-0.5967,-0.6183,-0.641,-0.6419,-0.649,-0.6563,-0.649,-0.6257,-0.6254,-0.6096,-0.5864,-0.5637,-0.5559,-0.5479,-0.5559,-0.537,-0.5181,-0.534,-0.5179,-0.4941,-0.5102,-0.5059,-0.4999,-0.4862,-0.4817,-0.4686,-0.4015,-0.4042,-0.3976,-0.3327,-0.3006,-0.2612,-0.2063,-0.1863,-0.1602,-0.1297,-0.1286,-0.1112,-0.0706,-0.0633,-0.0159,0.1037,0.1891,0.2659,0.3285,0.3759,0.4327,0.4867,0.422,0.4006,0.4528,0.4591,0.4623,0.4703,0.4767,0.4492,0.4015,0.3431,0.2764,0.0,0.0,0.0,0.0,0.0,0.0507,0.0,0.0,0.0,0.0,0.0,0.0,0.0,0.0,0.0,0.0,0.0,0.0,0.0,-0.3034,0.0,-0.4645,-0.5047,-0.5063,-0.4518,-0.4822,-0.4976,-0.4757,-0.5284,-0.5604,-0.5521,-0.5492,-0.5462,-0.5423,-0.5546,-0.5665,-0.5656,-0.5745,-0.5955,-0.6178,-0.6064,-0.6147,-0.636,-0.6015,-0.6028,-0.629,-0.577,-0.5627,-0.5709,-0.5574,-0.546,-0.5442,-0.5662,-0.587,-0.5949,-0.6152,-0.6256,-0.6294,-0.6325,-0.6335,-0.618,-0.6022,-0.5864,-0.5705,-0.5559,-0.5323,-0.5243,-0.5404,-0.509,-0.4779,-0.5165,-0.4932,-0.4779,-0.4937,-0.4937,-0.491,-0.466,-0.4617,-0.4308,-0.3401,-0.3638,-0.3761,-0.3193,-0.3089,-0.2685,-0.1448,-0.1269,-0.0947,-0.0,-0.0,0.0078,0.0235,0.0313,0.079,0.1932,0.2534,0.3235,0.4263,0.4671,0.4937,0.5018,0.475,0.4572,0.4493,0.4617,0.4771,0.4815,0.4837,0.4818,0.4749,0.4164,0.3703,0.0,0.0,0.0,0.0,0.1253,0.0,0.0,0.0,0.0686,0.0535,0.0,0.0,0.0,0.0,0.0,0.0,0.0,0.0,-0.0353,-0.1008,-0.1842,-0.271,-0.3423,-0.3822,-0.3733,-0.3977,-0.4068,-0.3961,-0.4113,-0.4095,-0.3779,-0.449,-0.4622,-0.4018,-0.4639,-0.5077,-0.5167,-0.4673,-0.5011,-0.6178,-0.5668,-0.5572,-0.5881,-0.5148,-0.5024,-0.5214,-0.4639,-0.4712,-0.5219,-0.5155,-0.5237,-0.5446,-0.5597,-0.5676,-0.587,-0.6002,-0.6112,-0.6293,-0.6513,-0.6328,-0.5941,-0.618,-0.5709,-0.5082,-0.5093,-0.4937,-0.4779,-0.5015,-0.4857,-0.4779,-0.4937,-0.4857,-0.4779,-0.4937,-0.4859,-0.4696,-0.4683,-0.4382,-0.394,-0.3464,-0.34,-0.3266,-0.2591,-0.2868,-0.2671,-0.1494,-0.1256,-0.102,-0.0079,-0.0,0.0313,0.1097,0.1489,0.2118,0.3146,0.361,0.416,0.4641,0.4706,0.4779,0.5018,0.4991,0.4994,0.5024,0.4916,0.4963,0.5212,0.491,0.4489,0.3946,0.4567,0.4634,0.0,0.0,0.0,0.0,0.0,0.0,0.0807,0.0,0.0745,0.0,0.0,0.0,0.0,0.0,0.0,0.0,0.0357,0.0,0.0,0.0,-0.1047,0.0,0.0,0.0,-0.3013,-0.3032,-0.2992,-0.2973,-0.3442,-0.3601,-0.3409,-0.3881,-0.4073,-0.3788,-0.4515,-0.4959,-0.5117,-0.5285,-0.5618,-0.6178,-0.5786,-0.5677,-0.5795,-0.512,-0.4934,-0.5096,-0.4637,-0.4689,-0.5013,-0.5098,-0.5169,-0.5243,-0.5526,-0.5709,-0.5804,-0.6008,-0.6168,-0.6254,-0.6095,-0.6023,-0.5864,-0.5796,-0.541,-0.5018,-0.5018,-0.4943,-0.4865,-0.494,-0.4945,-0.4875,-0.4948,-0.4792,-0.4396,-0.3917,-0.4233,-0.4453,-0.3691,-0.3923,-0.398,-0.3272,-0.3408,-0.3226,-0.1893,-0.2392,-0.2206,-0.008,-0.0237,-0.0079,0.1358,0.1406,0.162,0.2271,0.2447,0.2797,0.3603,0.394,0.4134,0.4433,0.4644,0.4771,0.4854,0.4836,0.4922,0.5,0.4997,0.503,0.5247,0.5077,0.4821,0.455,0.49,0.5033,0.1519,0.0,0.0,0.0,0.0,0.0,0.0,0.0,0.0,0.0,0.0,0.0,0.0,0.0,0.0,0.0,0.0,0.0552,0.0,0.0159,0.0,0.0,0.0,0.0,0.0,-0.2036,-0.2034,-0.2031,-0.2593,-0.2941,-0.2859,-0.324,-0.3517,-0.3601,-0.4262,-0.468,-0.4783,-0.5281,-0.5614,-0.5786,-0.5513,-0.5462,-0.5462,-0.5132,-0.4919,-0.4862,-0.4714,-0.4756,-0.4928,-0.484,-0.4861,-0.4871,-0.5022,-0.5147,-0.5316,-0.5844,-0.6175,-0.6198,-0.5557,-0.5281,-0.516,-0.4701,-0.447,-0.4316,-0.4309,-0.4628,-0.4873,-0.4467,-0.4316,-0.4323,-0.4318,-0.4084,-0.361,-0.2662,-0.3054,-0.3354,-0.2602,-0.2921,-0.3144,-0.2369,-0.2498,-0.2236,-0.0757,-0.1619,-0.1577,0.0882,0.0792,0.0867,0.2409,0.2563,0.2665,0.3026,0.314,0.3374,0.3808,0.4045,0.4232,0.4413,0.4638,0.477,0.4773,0.4831,0.4941,0.4924,0.498,0.5081,0.5241,0.5073,0.502,0.5087,0.503,0.5166,0.0,0.0,0.0,0.1843,0.0,0.0,0.0,0.0,0.1092,0.0,0.0,0.0,0.0,0.0,0.0,0.0,0.0,0.0,0.0,0.0,0.0,0.0,0.0,0.0,0.0,-0.1098,-0.128,-0.1161,-0.1401,-0.1603,-0.1643,-0.2452,-0.2978,-0.3017,-0.3553,-0.391,-0.4048,-0.3944,-0.4171,-0.4725,-0.4567,-0.4574,-0.4746,-0.4986,-0.4768,-0.4271,-0.4545,-0.4789,-0.4857,-0.4424,-0.4259,-0.4259,-0.3906,-0.3834,-0.4043,-0.532,-0.6043,-0.6219,-0.4779,-0.3904,-0.3288,-0.2738,-0.2582,-0.2582,-0.2582,-0.3684,-0.4633,-0.3054,-0.2582,-0.2582,-0.2582,-0.2582,-0.2347,-0.1563,-0.1095,-0.1018,-0.1566,-0.1076,-0.0604,-0.0603,-0.0302,0.0227,0.1057,-0.0385,-0.094,0.102,0.1254,0.1568,0.2434,0.2768,0.2953,0.303,0.355,0.393,0.3715,0.4292,0.4703,0.4747,0.4758,0.4882,0.4993,0.5039,0.5124,0.5118,0.5024,0.5105,0.5312,0.4824,0.4758,0.5087,0.4758,0.496,0.0,0.0,0.0585,0.0972,0.0,0.0,0.0,0.0,0.0,0.0,0.0,0.0,0.0,0.0,0.0,0.0,0.0,0.0,0.0,0.0,0.0,0.0,0.0,0.0,0.0,0.0,-0.0919,-0.1148,-0.12,-0.1263,-0.1348,-0.1823,-0.2138,-0.2188,-0.2873,-0.3297,-0.34,-0.4067,-0.4515,-0.4684,-0.4294,-0.3735,-0.3171,-0.3405,-0.3411,-0.3188,-0.3318,-0.3389,-0.3463,-0.3413,-0.3523,-0.3649,-0.3716,-0.4027,-0.4372,-0.4818,-0.4758,-0.4307,-0.3808,-0.393,-0.4387,-0.4224,-0.2668,-0.0862,-0.0861,-0.1254,-0.204,-0.3692,-0.2589,-0.0706,-0.0157,-0.0392,-0.0627,0.0235,0.0471,0.0549,0.0392,-0.0389,-0.0927,-0.0619,-0.0464,-0.0,0.1083,0.0779,0.0705,0.1882,0.1646,0.1636,0.2686,0.2625,0.2732,0.3244,0.3405,0.3548,0.3822,0.4186,0.4505,0.4682,0.4698,0.4843,0.5023,0.5,0.5064,0.5127,0.5043,0.5104,0.5228,0.496,0.4916,0.5087,0.4954,0.5156,-0.0155,-0.0101,0.0,0.0543,0.0413,0.0,0.0787,0.0,0.1227,0.0,0.0,0.0,0.0,0.0,0.0,0.0,0.0,0.0,0.0,0.0196,0.0,0.0,0.0,0.0,0.0,-0.0674,-0.0693,-0.1045,-0.0943,-0.0974,-0.1156,-0.1509,-0.1684,-0.1683,-0.228,-0.2631,-0.2631,-0.3299,-0.3574,-0.3345,-0.3014,-0.2679,-0.2452,-0.2458,-0.2516,-0.2629,-0.2715,-0.2762,-0.2763,-0.2823,-0.2915,-0.3021,-0.3115,-0.3366,-0.3699,-0.4372,-0.3892,-0.2852,-0.231,-0.2406,-0.2846,-0.3127,-0.1727,0.0079,0.0706,0.0863,0.0314,-0.2435,-0.1413,0.0628,0.1178,0.0864,0.0628,0.1257,0.1415,0.1493,0.1493,0.0705,-0.0,0.0313,0.0467,0.0698,0.1565,0.1701,0.1845,0.2426,0.2038,0.2021,0.2732,0.2613,0.2788,0.3381,0.3411,0.3555,0.3998,0.4209,0.4384,0.4557,0.4571,0.4714,0.4894,0.4913,0.4966,0.5047,0.4987,0.507,0.5298,0.4935,0.4916,0.5223,0.5223,0.5382]},{"header":{"parameterUnit":"m.s-1","parameterCategory":1,"la1":30.6,"la2":29.2853,"lo1":-89.7004,"lo2":-87.6739,"dy":0.0162,"dx":0.0183,"nx":112,"ny":82,"refTime":"2023-09-15T00:00:00:Z","depth":0,"parameterNumber":3,"parameterNumberName":"V-component_of_WINDS"},"data":[0.0,0.0,0.0,0.0,0.0,0.0,0.0,0.0,0.0,0.0,0.0,0.0,0.0,0.0,0.0,0.0,0.0,0.0,0.0,0.0,0.0,0.0,0.0,0.0,0.0,0.0,0.0,0.0,0.0,0.0,0.0,0.0,0.0,0.0,0.0,0.0,0.0,0.0,0.0,0.0,0.0,0.0,0.0,0.0,0.0,0.0,0.0,0.0,0.0,0.0,0.0,0.0,0.0,0.0,0.0,0.0,0.0,0.0,0.0,0.0,0.0,0.0,0.0,0.0,0.0,0.0,0.0,0.0,0.0,0.0,0.0,0.0,0.0,0.0,0.0,0.0,0.0,0.0,0.0,0.0,0.0,0.0,0.0,0.0,0.0,0.0,0.0,0.0,0.0,0.0,-1.6932,-1.6213,-2.056,-2.2914,-2.1455,-2.0779,-1.84,-1.3624,0.0,0.0,0.0,0.0,0.0,0.0,0.0,0.0,0.0,0.0,0.0,0.0,0.0,0.0,0.0,0.0,0.0,0.0,0.0,0.0,0.0,0.0,0.0,0.0,0.0,0.0,0.0,0.0,0.0,0.0,0.0,0.0,0.0,0.0,0.0,0.0,0.0,0.0,0.0,0.0,0.0,0.0,0.0,0.0,0.0,0.0,0.0,0.0,0.0,0.0,0.0,0.0,0.0,0.0,0.0,0.0,0.0,0.0,0.0,0.0,0.0,0.0,0.0,0.0,0.0,0.0,0.0,0.0,0.0,0.0,0.0,0.0,0.0,0.0,0.0,0.0,0.0,0.0,0.0,0.0,0.0,0.0,0.0,0.0,0.0,0.0,0.0,0.0,0.0,0.0,0.0,0.0,0.0,0.0,0.0,0.0,0.0,0.0,0.0,0.0,0.0,0.0,0.0,0.0,-1.6777,-2.0401,-2.1628,-2.1756,-2.0666,-1.8398,-1.5744,-1.2675,0.0,0.0,0.0,0.0,0.0,0.0,0.0,0.0,0.0,0.0,0.0,0.0,0.0,0.0,0.0,0.0,0.0,0.0,0.0,0.0,0.0,0.0,0.0,0.0,0.0,0.0,0.0,0.0,0.0,0.0,0.0,0.0,0.0,0.0,0.0,0.0,0.0,0.0,0.0,0.0,0.0,0.0,0.0,0.0,0.0,0.0,0.0,0.0,0.0,0.0,0.0,0.0,0.0,0.0,0.0,0.0,0.0,0.0,0.0,0.0,0.0,0.0,0.0,0.0,0.0,0.0,0.0,0.0,0.0,0.0,0.0,0.0,0.0,0.0,0.0,0.0,0.0,0.0,0.0,0.0,0.0,0.0,0.0,0.0,0.0,0.0,0.0,0.0,0.0,0.0,0.0,0.0,0.0,0.0,0.0,0.0,0.0,0.0,0.0,0.0,0.0,0.0,0.0,-1.6237,-1.9064,-2.2037,-2.2435,-2.1733,-1.9857,-1.7677,-1.53,-1.2687,-1.1411,0.0,0.0,0.0,0.0,0.0,0.0,0.0,0.0,0.0,0.0,0.0,0.0,0.0,0.0,0.0,0.0,0.0,0.0,0.0,0.0,0.0,0.0,0.0,0.0,0.0,0.0,0.0,0.0,0.0,0.0,0.0,0.0,0.0,0.0,0.0,0.0,0.0,0.0,0.0,0.0,0.0,0.0,0.0,0.0,0.0,0.0,0.0,0.0,0.0,0.0,0.0,0.0,0.0,0.0,0.0,0.0,0.0,0.0,0.0,0.0,0.0,0.0,0.0,0.0,0.0,0.0,0.0,0.0,0.0,0.0,0.0,0.0,0.0,0.0,0.0,0.0,0.0,0.0,0.0,0.0,0.0,0.0,0.0,0.0,0.0,0.0,0.0,0.0,0.0,0.0,0.0,0.0,0.0,0.0,0.0,0.0,0.0,0.0,0.0,0.0,0.0,0.0,-1.8946,-2.1101,-2.321,-2.2991,-2.1576,-1.8855,-1.6414,-1.415,-1.2179,-0.9598,0.0,0.0,0.0,0.0,0.0,0.0,0.0,0.0,0.0,0.0,0.0,0.0,0.0,0.0,0.0,0.0,0.0,0.0,0.0,0.0,0.0,0.0,0.0,0.0,0.0,0.0,0.0,0.0,0.0,0.0,0.0,0.0,0.0,0.0,0.0,0.0,0.0,0.0,0.0,0.0,0.0,0.0,0.0,0.0,0.0,0.0,0.0,0.0,0.0,0.0,0.0,0.0,0.0,0.0,0.0,0.0,0.0,0.0,0.0,0.0,0.0,0.0,0.0,0.0,0.0,0.0,0.0,0.0,0.0,0.0,0.0,0.0,0.0,0.0,0.0,0.0,0.0,0.0,0.0,0.0,0.0,0.0,0.0,0.0,0.0,0.0,0.0,0.0,0.0,0.0,0.0,0.0,0.0,0.0,0.0,0.0,0.0,0.0,0.0,0.0,0.0,0.0,-1.8434,-2.1378,-2.4924,-2.314,-2.0481,-1.75,-1.3195,-1.0497,-1.0118,-0.6736,0.0,0.0,0.0,0.0,0.0,0.0,0.0,0.0,0.0,0.0,0.0,0.0,0.0,0.0,0.0,0.0,0.0,0.0,0.0,0.0,0.0,0.0,0.0,0.0,0.0,0.0,0.0,0.0,0.0,0.0,0.0,0.0,0.0,0.0,0.0,0.0,0.0,0.0,0.0,0.0,0.0,0.0,0.0,0.0,0.0,0.0,0.0,0.0,0.0,0.0,0.0,0.0,0.0,0.0,0.0,0.0,0.0,0.0,0.0,0.0,0.0,0.0,0.0,0.0,0.0,0.0,0.0,0.0,0.0,0.0,0.0,0.0,0.0,0.0,0.0,0.0,0.0,0.0,0.0,0.0,0.0,0.0,0.0,0.0,0.0,0.0,0.0,0.0,0.0,0.0,0.0,0.0,0.0,0.0,0.0,0.0,0.0,0.0,0.0,0.0,0.0,0.0,-1.8448,-2.0226,-2.2119,-2.0502,-1.8391,-1.6175,-1.3927,-1.1868,-1.0083,0.0,0.0,0.0,0.0,0.0,0.0,0.0,0.0,0.0,0.0,0.0,0.0,0.0,0.0,0.0,0.0,0.0,0.0,0.0,0.0,0.0,0.0,0.0,0.0,0.0,0.0,0.0,0.0,0.0,0.0,0.0,0.0,0.0,0.0,0.0,0.0,0.0,0.0,0.0,0.0,0.0,0.0,0.0,0.0,0.0,0.0,0.0,0.0,0.0,0.0,0.0,0.0,0.0,0.0,0.0,0.0,0.0,0.0,0.0,0.0,0.0,0.0,0.0,0.0,0.0,0.0,0.0,0.0,0.0,0.0,0.0,0.0,0.0,0.0,0.0,0.0,0.0,0.0,0.0,0.0,0.0,0.0,0.0,0.0,0.0,0.0,0.0,0.0,0.0,0.0,0.0,0.0,0.0,0.0,0.0,0.0,0.0,0.0,0.0,0.0,0.0,0.0,-1.7053,-1.8324,-1.9328,-1.9947,-1.852,-1.682,-1.5061,-1.3422,-1.1631,-0.9671,0.0,0.0,0.0,0.0,0.0,0.0,0.0,0.0,0.0,0.0,0.0,0.0,0.0,0.0,0.0,0.0,0.0,0.0,0.0,0.0,0.0,0.0,0.0,0.0,0.0,0.0,0.0,0.0,0.0,0.0,0.0,0.0,0.0,0.0,0.0,0.0,0.0,0.0,0.0,0.0,0.0,0.0,0.0,0.0,0.0,0.0,0.0,0.0,0.0,0.0,0.0,0.0,0.0,0.0,0.0,0.0,0.0,0.0,0.0,0.0,0.0,0.0,0.0,0.0,0.0,0.0,0.0,0.0,0.0,0.0,0.0,0.0,0.0,0.0,0.0,0.0,0.0,0.0,0.0,0.0,0.0,0.0,0.0,0.0,0.0,0.0,0.0,0.0,0.0,0.0,0.0,0.0,0.0,0.0,0.0,0.0,0.0,0.0,0.0,0.0,0.0,0.0,-1.6563,-1.7951,-1.8912,-1.9173,-1.7674,-1.5976,-1.4257,-1.0973,-0.8906,0.0,0.0,0.0,0.0,0.0,0.0,0.0,0.0,0.0,0.0,0.0,0.0,0.0,0.0,0.0,0.0,0.0,0.0,0.0,0.0,0.0,0.0,0.0,0.0,0.0,0.0,0.0,0.0,0.0,0.0,0.0,0.0,0.0,0.0,0.0,0.0,0.0,0.0,0.0,0.0,0.0,0.0,0.0,0.0,0.0,0.0,0.0,0.0,0.0,0.0,0.0,0.0,0.0,0.0,0.0,0.0,0.0,0.0,0.0,0.0,0.0,0.0,0.0,0.0,0.0,0.0,0.0,0.0,0.0,0.0,0.0,0.0,0.0,0.0,0.0,0.0,0.0,0.0,0.0,0.0,0.0,0.0,0.0,0.0,0.0,0.0,0.0,0.0,0.0,0.0,0.0,0.0,0.0,0.0,0.0,0.0,0.0,0.0,0.0,0.0,0.0,0.0,0.0,-1.7814,-1.8614,-1.911,-1.92,-1.6608,-1.4664,-1.4131,-1.2097,-0.995,-0.7889,0.0,0.0,0.0,0.0,0.0,0.0,0.0,0.0,0.0,0.0,0.0,0.0,0.0,0.0,0.0,0.0,0.0,0.0,0.0,0.0,0.0,0.0,0.0,0.0,0.0,0.0,0.0,0.0,0.0,0.0,0.0,0.0,0.0,0.0,0.0,0.0,0.0,0.0,0.0,0.0,0.0,0.0,0.0,0.0,0.0,0.0,0.0,0.0,0.0,0.0,0.0,0.0,0.0,0.0,0.0,0.0,0.0,0.0,0.0,0.0,0.0,0.0,0.0,0.0,0.0,0.0,0.0,0.0,0.0,0.0,0.0,0.0,0.0,0.0,0.0,0.0,0.0,0.0,0.0,0.0,0.0,0.0,0.0,0.0,0.0,0.0,0.0,0.0,0.0,0.0,0.0,0.0,0.0,0.0,0.0,0.0,0.0,0.0,0.0,0.0,0.0,0.0,-1.8448,-1.8852,-1.8827,-1.8267,-1.5747,-1.3822,-1.3157,-1.2153,-1.0585,-0.8267,0.0,0.0,0.0,0.0,0.0,0.0,0.0,0.0,0.0,0.0,0.0,0.0,0.0,0.0,0.0,0.0,0.0,0.0,0.0,0.0,0.0,0.0,0.0,0.0,0.0,0.0,0.0,0.0,0.0,0.0,0.0,0.0,0.0,0.0,0.0,0.0,0.0,0.0,0.0,0.0,0.0,0.0,0.0,0.0,0.0,0.0,0.0,0.0,0.0,0.0,0.0,0.0,0.0,0.0,0.0,0.0,0.0,0.0,0.0,0.0,0.0,0.0,0.0,0.0,0.0,0.0,0.0,0.0,0.0,0.0,0.0,0.0,0.0,0.0,0.0,0.0,0.0,0.0,0.0,0.0,0.0,0.0,0.0,0.0,0.0,0.0,0.0,0.0,0.0,0.0,0.0,0.0,0.0,0.0,0.0,0.0,0.0,0.0,0.0,0.0,0.0,0.0,-1.8306,-1.8642,-1.8313,-1.6951,-1.5176,-1.3456,-1.1855,-1.1588,-1.0812,-0.9209,0.0,0.0,0.0,0.0,0.0,0.0,0.0,0.0,0.0,0.0,0.0,0.0,0.0,0.0,0.0,0.0,0.0,0.0,0.0,0.0,0.0,0.0,0.0,0.0,0.0,0.0,0.0,0.0,0.0,0.0,0.0,0.0,0.0,0.0,0.0,0.0,0.0,0.0,0.0,0.0,0.0,0.0,0.0,0.0,0.0,0.0,0.0,0.0,0.0,0.0,0.0,0.0,0.0,0.0,0.0,0.0,0.0,0.0,0.0,0.0,-1.7573,-1.7493,0.0,0.0,0.0,0.0,0.0,0.0,0.0,0.0,0.0,0.0,0.0,0.0,0.0,0.0,0.0,0.0,0.0,0.0,0.0,0.0,0.0,0.0,0.0,0.0,0.0,0.0,0.0,0.0,0.0,0.0,0.0,0.0,0.0,0.0,0.0,0.0,0.0,0.0,0.0,0.0,-1.611,-1.7886,-1.8802,-1.7757,-1.5524,-1.3678,-1.2629,-1.1893,-1.0637,-0.8623,-0.8854,0.0,0.0,0.0,0.0,0.0,0.0,0.0,0.0,0.0,0.0,0.0,0.0,0.0,0.0,0.0,0.0,0.0,0.0,0.0,0.0,0.0,0.0,0.0,0.0,0.0,0.0,0.0,0.0,0.0,0.0,0.0,0.0,0.0,0.0,0.0,0.0,0.0,0.0,0.0,0.0,0.0,0.0,0.0,0.0,0.0,0.0,0.0,0.0,0.0,0.0,0.0,0.0,0.0,0.0,0.0,0.0,0.0,0.0,0.0,-2.0861,-2.0091,0.0,0.0,0.0,0.0,0.0,0.0,0.0,0.0,0.0,0.0,0.0,0.0,0.0,0.0,0.0,0.0,0.0,0.0,0.0,0.0,0.0,0.0,0.0,0.0,0.0,0.0,0.0,0.0,0.0,0.0,0.0,0.0,0.0,0.0,0.0,0.0,0.0,0.0,0.0,0.0,-1.5546,-1.7455,-1.8483,-1.7955,-1.5626,-1.372,-1.2826,-1.1605,-1.0879,-1.0852,-1.0182,0.0,0.0,0.0,0.0,0.0,0.0,0.0,0.0,0.0,0.0,0.0,0.0,0.0,0.0,0.0,0.0,0.0,0.0,0.0,0.0,0.0,0.0,0.0,0.0,0.0,0.0,0.0,0.0,0.0,0.0,0.0,0.0,0.0,0.0,0.0,0.0,0.0,0.0,0.0,0.0,0.0,0.0,0.0,0.0,0.0,0.0,0.0,0.0,0.0,0.0,0.0,0.0,0.0,-2.4127,-2.4574,-2.5254,-2.4568,-2.5026,-2.6357,-2.5595,-2.4128,-2.2265,-2.2055,0.0,0.0,0.0,0.0,0.0,0.0,0.0,0.0,0.0,0.0,0.0,0.0,0.0,0.0,0.0,0.0,0.0,0.0,0.0,0.0,0.0,0.0,-2.0655,-2.2779,-2.2523,-2.1654,-2.1111,0.0,0.0,0.0,0.0,0.0,0.0,0.0,0.0,0.0,0.0,0.0,-1.5371,-1.7216,-1.8074,-1.7718,-1.5669,-1.3878,-1.2776,-1.1412,-1.1451,-1.3315,-1.1689,-1.1282,0.0,0.0,0.0,0.0,0.0,0.0,0.0,0.0,0.0,0.0,0.0,0.0,0.0,0.0,0.0,0.0,0.0,0.0,0.0,0.0,0.0,0.0,0.0,0.0,0.0,0.0,0.0,0.0,0.0,0.0,0.0,0.0,-1.69,-1.862,0.0,0.0,0.0,0.0,0.0,0.0,0.0,0.0,0.0,0.0,0.0,0.0,0.0,-2.5756,-2.5704,-2.7297,-2.814,-2.8218,-2.9023,-2.9475,-2.9583,-2.9582,-2.9749,-2.997,-2.911,0.0,-2.4865,-2.3315,0.0,0.0,0.0,0.0,0.0,0.0,0.0,0.0,0.0,0.0,0.0,0.0,0.0,0.0,0.0,0.0,0.0,0.0,0.0,0.0,0.0,0.0,-2.4667,-2.5118,-2.3896,-2.3043,-2.4529,-2.1463,-1.9145,-2.1606,-1.9963,-1.7687,0.0,0.0,0.0,0.0,0.0,0.0,-1.4128,-1.706,-1.8525,-1.6933,-1.5782,-1.4463,-1.2767,-1.2459,-1.2511,-1.28,-1.0844,-1.0816,-1.3363,-1.1548,0.0,0.0,0.0,0.0,0.0,0.0,0.0,0.0,0.0,0.0,0.0,0.0,0.0,0.0,0.0,0.0,0.0,0.0,0.0,0.0,0.0,0.0,0.0,0.0,0.0,0.0,0.0,0.0,0.0,-1.7155,-1.853,-2.027,-2.048,-2.0675,0.0,0.0,0.0,0.0,0.0,0.0,0.0,0.0,0.0,-2.6203,-2.7413,-2.8051,-2.8016,-3.0131,-3.1246,-3.1313,-3.2681,-3.3585,-3.4033,-3.3654,-3.4003,-3.4845,-3.3401,-3.2113,-3.08,-2.7196,-2.5441,-2.4818,0.0,0.0,0.0,0.0,-2.0665,-2.1336,-2.1769,-2.2719,-2.3716,-2.3602,0.0,0.0,0.0,0.0,0.0,0.0,0.0,-2.0438,-2.1478,-2.2873,-2.427,-2.5337,-2.4999,-2.466,-2.5474,-2.3187,-2.1339,-2.2617,-2.0932,-1.864,-1.6517,-1.6385,0.0,0.0,0.0,-1.8459,-1.6875,-1.8206,-1.8773,-1.7415,-1.6086,-1.4748,-1.3392,-1.2884,-1.2637,-1.2647,-1.222,-1.2539,-1.3776,-1.3513,-1.3662,0.0,0.0,0.0,0.0,0.0,0.0,0.0,0.0,0.0,0.0,0.0,0.0,0.0,0.0,0.0,0.0,0.0,0.0,0.0,0.0,0.0,0.0,0.0,0.0,0.0,0.0,0.0,0.0,-1.8468,-1.9899,-2.1172,-2.2094,-2.2573,0.0,0.0,0.0,0.0,0.0,0.0,-2.6952,-2.7846,-2.8688,-2.9446,-3.0528,-3.0984,-3.0751,-3.3053,-3.414,-3.401,-3.5507,-3.6549,-3.7167,-3.6609,-3.6996,-3.8054,-3.6658,-3.6051,-3.5662,-3.1264,-2.8828,-2.7745,-2.6629,-2.5322,-2.4097,-2.4274,-2.4601,-2.5023,-2.5566,-2.6466,-2.7262,-2.6653,-2.5589,-2.4323,-2.3103,0.0,0.0,0.0,0.0,-2.1779,-2.2879,-2.3533,-2.4218,-2.5354,-2.5659,-2.5706,-2.571,-2.4154,-2.2936,-2.3508,-2.2049,-2.0084,-1.8126,-1.8461,0.0,-1.5893,-1.8904,-2.0815,-1.915,-1.9311,-1.9139,-1.7931,-1.6672,-1.5443,-1.419,-1.3361,-1.2993,-1.3207,-1.3437,-1.3787,-1.4291,-1.4732,-1.4901,-1.4778,0.0,0.0,0.0,0.0,0.0,0.0,0.0,0.0,0.0,0.0,0.0,0.0,0.0,0.0,0.0,0.0,0.0,0.0,0.0,0.0,0.0,0.0,0.0,0.0,0.0,0.0,0.0,0.0,0.0,-2.0547,-2.3302,0.0,0.0,0.0,0.0,-2.7528,-2.8543,-2.9787,-3.1294,-3.2271,-3.3064,-3.3676,-3.5336,-3.5806,-3.4901,-3.6671,-3.7185,-3.6435,-3.7406,-3.7906,-3.7945,-3.8035,-3.8016,-3.7916,-3.7866,-3.7762,-3.7364,-3.4577,-3.2553,-3.1076,-2.9313,-2.8179,-2.7347,-2.5602,-2.6047,-2.7491,-2.7329,-2.8426,-2.9918,-2.9861,-2.8235,-2.5824,-2.3359,-2.259,0.0,0.0,-2.3802,-2.4976,-2.4312,-2.5415,-2.6537,-2.5863,-2.5706,-2.571,-2.5701,-2.4115,-2.3269,-2.52,-2.3999,-2.2608,-2.2402,0.0,-2.0651,-1.8691,-1.8772,-1.9044,-1.9002,-1.984,-1.9762,-1.7985,-1.7711,-1.6913,-1.5012,-1.416,-1.4078,-1.4823,-1.3492,-1.3412,-1.5071,-1.4452,-1.4441,-1.5255,-1.1471,0.0,0.0,0.0,0.0,0.0,0.0,0.0,0.0,0.0,0.0,0.0,0.0,0.0,0.0,0.0,0.0,0.0,0.0,0.0,0.0,0.0,0.0,0.0,0.0,0.0,0.0,0.0,0.0,-2.518,-2.721,0.0,-2.8272,-2.8715,-2.9187,-2.9613,-3.1416,-3.2967,-3.4089,-3.4841,-3.5609,-3.6422,-3.7048,-3.7501,-3.7778,-3.8473,-3.896,-3.9239,-3.959,-3.9711,-3.9668,-3.9546,-3.9477,-3.9429,-3.9202,-3.9108,-3.903,-3.7991,-3.6366,-3.4425,-3.3287,-3.2676,-3.2346,-3.1743,-3.1895,-3.2441,-3.2393,-3.2412,-3.2292,-3.1226,-2.9912,-2.8517,-2.709,-2.6706,-2.6653,-2.6187,-2.658,-2.7062,-2.6779,-2.6799,-2.6821,-2.6534,-2.6077,-2.5707,-2.5701,-2.5137,-2.483,-2.5559,-2.4105,-2.2751,-2.2819,-2.3585,-2.3561,-2.166,-2.2466,-2.2878,-2.1778,-2.194,-2.1243,-1.8828,-1.807,-1.7202,-1.5902,-1.5057,-1.4485,-1.4303,-1.4233,-1.4198,-1.4164,-1.4565,-1.4951,-1.5289,-1.1776,-1.0908,0.0,0.0,0.0,0.0,0.0,0.0,0.0,0.0,0.0,0.0,0.0,0.0,0.0,0.0,0.0,0.0,0.0,0.0,0.0,0.0,0.0,0.0,0.0,0.0,0.0,0.0,-2.6804,-2.821,-3.049,-3.1912,-3.1757,-3.2192,-3.2665,-3.3067,-3.4861,-3.6402,-3.7469,-3.7926,-3.8418,-3.8992,-3.9047,-3.908,-3.9141,-3.9512,-3.986,-4.0159,-4.0385,-4.0489,-4.046,-4.0192,-3.9641,-3.8951,-3.944,-3.9277,-3.8719,-3.941,-3.8788,-3.7312,-3.6557,-3.6084,-3.5818,-3.5856,-3.5894,-3.5874,-3.5607,-3.4769,-3.3644,-3.254,-3.1657,-3.0844,-3.0035,-2.9857,-2.9756,-2.8993,-2.8855,-2.8883,-2.8604,-2.8158,-2.7629,-2.7069,-2.6539,-2.6057,-2.5754,-2.5149,-2.4868,-2.5562,-2.4622,-2.3513,-2.2896,-2.3836,-2.3982,-2.2042,-2.2606,-2.2705,-2.123,-2.1393,-2.0605,-1.7868,-1.7655,-1.7215,-1.5994,-1.5003,-1.4425,-1.4332,-1.4462,-1.4412,-1.4181,-1.4481,-1.4478,-1.4048,-1.1801,-1.0935,-1.1564,0.0,0.0,0.0,0.0,0.0,0.0,0.0,0.0,0.0,0.0,0.0,0.0,0.0,0.0,0.0,0.0,0.0,0.0,0.0,0.0,0.0,0.0,0.0,-2.1823,-2.5425,-2.8501,-2.9203,-3.2987,-3.5215,-3.4442,-3.5886,-3.7205,-3.7978,-3.8936,-4.0058,-4.1417,-4.1511,-4.1455,-4.1321,-4.1399,-4.0673,-3.9067,-3.9906,-3.9978,-3.9227,-3.9833,-4.012,-4.0196,-3.9922,-3.8512,-3.6426,-3.859,-3.8307,-3.6463,-3.8731,-3.9674,-3.9642,-3.8927,-3.8161,-3.7484,-3.7465,-3.7466,-3.7337,-3.6464,-3.5151,-3.3903,-3.3922,-3.3463,-3.2716,-3.1885,-3.1684,-3.1576,-3.0742,-3.0557,-3.0428,-2.9598,-2.9428,-2.9051,-2.7398,-2.6971,-2.6739,-2.5878,-2.4124,-2.3287,-2.5305,-2.5687,-2.5027,-2.3046,-2.2674,-2.1978,-1.9992,-1.9078,0.0,-1.7341,-1.8225,-1.7941,-1.5303,-1.6625,-1.7016,-1.5324,-1.4114,-1.3948,-1.5135,-1.4099,-1.4011,-1.525,-1.4245,-1.3024,-1.1685,-1.1658,-1.1465,-1.1077,0.0,0.0,0.0,0.0,0.0,0.0,0.0,0.0,0.0,0.0,0.0,0.0,0.0,0.0,0.0,0.0,0.0,0.0,0.0,0.0,0.0,0.0,-2.6566,-2.5465,-2.999,-3.352,-3.3711,-3.6358,-3.8108,-3.7982,-3.8267,-3.8614,-3.9,-4.02,-4.1104,-4.1494,-4.0382,-3.9712,-3.9731,-3.9832,-3.9988,-4.0169,-4.0985,-4.1519,-4.1779,-4.0673,-4.0081,-3.9901,-3.9566,-3.9132,-3.8568,-3.844,-3.839,-3.8464,-3.8601,-3.9057,-3.9607,-3.9463,-3.926,-3.9067,-3.9075,-3.7967,-3.6119,-3.3505,-3.3139,-3.393,-3.4558,-3.4694,-3.4352,-3.2961,-3.2624,-3.2425,-3.1045,-3.0698,-3.0545,-2.97,-2.9051,-2.8349,-2.7256,-2.6523,-2.5995,-2.5742,-2.525,-2.5012,-2.5584,-2.5192,-2.4778,-2.4846,-2.4319,-2.394,-2.3995,-2.3813,-2.3377,-2.2487,-2.2068,-2.132,-1.9959,-1.8422,-1.7377,-1.7087,-1.5424,-1.4642,-1.5163,-1.4929,-1.491,-1.5226,-1.4975,-1.4192,-1.2856,-1.4156,-1.4882,0.0,0.0,0.0,0.0,0.0,0.0,0.0,0.0,0.0,0.0,0.0,0.0,0.0,0.0,0.0,0.0,0.0,0.0,0.0,0.0,0.0,0.0,-2.933,-3.1535,-3.1096,-3.4234,-3.6852,-3.7558,-3.922,-4.0217,-3.9899,-3.976,-3.9696,-3.9688,-4.0511,-4.1284,-4.1934,-4.1074,-4.0304,-3.9648,-4.0768,-4.0754,-3.9485,-4.1215,-4.2125,-4.2164,-4.095,-4.0302,-4.0151,-3.9455,-3.848,-3.7347,-3.7634,-3.7373,-3.6782,-3.7785,-3.8484,-3.9021,0.0,0.0,0.0,0.0,-3.8309,-3.6323,-3.4396,-3.4015,-3.4459,-3.4973,-3.5025,-3.4628,-3.3373,-3.2028,-3.0664,-2.9392,-2.8217,-2.7517,-2.8188,-2.7991,-2.7717,-2.8024,-2.7695,-2.7129,-2.6406,-2.5565,-2.5096,-2.5605,-2.4015,0.0,-2.5348,-2.4261,-2.2985,-2.2617,-2.2929,-2.2852,-2.196,-2.1791,-2.1288,-2.0076,-1.8833,-1.803,-1.7815,-1.6298,0.0,0.0,0.0,-1.5593,-1.5581,-1.532,0.0,0.0,0.0,-1.5278,-1.6836,-1.682,0.0,0.0,-1.7485,-1.7292,0.0,0.0,0.0,0.0,0.0,0.0,0.0,0.0,0.0,0.0,0.0,0.0,0.0,0.0,0.0,0.0,-3.4179,-3.7358,-3.7704,-3.8368,-3.9277,-4.0477,-4.1451,-4.1702,-4.09,-4.0684,-4.0515,-4.0273,-4.0348,-4.1036,-4.2402,-4.2508,0.0,0.0,0.0,-4.1944,-3.8108,-4.1016,-4.2126,-4.1412,-4.096,-4.0712,-4.0607,-3.9509,-3.747,-3.4894,-3.6693,-3.598,-3.3821,-3.6615,-3.7891,-3.8228,-3.9214,-3.9514,-3.9308,-3.8877,-3.8047,-3.7076,-3.6656,0.0,0.0,-3.504,-3.4712,-3.4137,-3.3238,-3.081,-2.8201,-2.7392,-2.5414,-2.4072,-2.6491,-2.7069,-2.7442,-2.9078,-2.9387,-2.8881,-2.7336,-2.5461,-2.4411,-2.5485,-2.2849,-2.1492,-2.4838,-2.3239,-2.0948,-1.9283,-1.9812,-2.0088,-1.9235,-1.9922,-1.9883,-1.8306,0.0,0.0,-1.8028,-1.6907,-1.6734,-1.7823,-1.6894,-1.6384,-1.6579,-1.5952,-1.5424,-1.5076,-1.3849,-1.4667,-1.7661,-1.7048,-1.8026,-2.0351,-1.8524,-1.8616,0.0,0.0,0.0,0.0,0.0,0.0,0.0,0.0,0.0,0.0,0.0,0.0,0.0,0.0,0.0,-3.4828,-3.7943,-4.0668,-4.2742,-4.3221,-4.2673,-4.0894,-4.1991,-4.283,-4.2767,-4.1827,-4.1227,-4.1227,-4.1188,-4.1319,-4.1622,-4.1149,-4.0425,-3.9473,-4.0588,-4.0543,-3.9108,-4.1361,-4.2373,-4.2094,-4.1788,0.0,-4.0193,-3.9926,-3.908,-3.7798,-3.6932,-3.6667,-3.6785,-3.6323,-3.6975,-3.837,-3.9258,-3.9139,-3.8128,-3.5454,-3.5162,-3.5713,-3.3088,-3.2995,-3.401,-3.411,-3.4208,-3.4036,-3.2569,-3.1744,0.0,-3.0247,-2.9616,-2.9179,-2.9021,-2.9004,-2.8959,-2.8633,-2.8008,-2.7402,-2.7061,-2.6138,-2.5418,-2.5652,-2.398,-2.2753,-2.3476,-2.3125,-2.3082,-2.4105,-2.441,-2.4461,-2.4284,-2.3799,-2.3098,-2.2128,-2.0708,-1.9579,-1.8984,-1.7871,-1.7427,-1.7862,-1.8061,-1.86,-1.953,-1.9374,-1.9265,-1.925,-1.8924,-1.9092,-1.9799,-1.9677,-1.9875,-2.0399,-2.0034,-2.0061,0.0,0.0,0.0,0.0,0.0,0.0,0.0,0.0,0.0,0.0,0.0,-2.7989,0.0,0.0,-3.4778,-3.8233,-4.0217,-4.1884,-4.3559,-4.4583,-4.4496,-4.2748,-4.3289,-4.3578,-4.3047,-4.2467,-4.1934,-4.1437,-4.1838,-4.2106,-4.2164,-4.1853,-4.1149,-3.9937,-4.1524,-4.1228,-3.8774,-4.197,-4.3152,-4.2267,-4.223,-4.1883,-4.1274,-4.0388,-3.9534,-3.8597,-3.6927,-3.6258,-3.6316,-3.5838,-3.667,-3.8252,-3.8319,-3.8582,-3.8627,-3.6522,-3.6081,-3.6268,-3.4201,-3.3904,-3.4428,-3.4511,-3.4419,-3.4044,-3.2861,-3.1651,-3.0419,-2.9162,-2.8094,-2.7464,-2.8018,-2.8121,-2.8338,-2.932,-2.8901,-2.8162,-2.7695,-2.7285,-2.6734,-2.5873,-2.464,-2.3744,-2.3749,-2.3398,-2.3417,-2.4313,-2.5152,-2.5699,-2.5699,-2.4527,-2.3693,-2.3699,-2.1637,-2.0298,-2.0437,-1.957,-1.9065,-1.9191,-1.942,-1.9818,-2.0385,-2.0369,-2.0365,-2.0399,-2.0321,-2.0321,-2.0347,-2.0347,-2.0379,-2.041,-2.0396,-2.0396,0.0,0.0,0.0,0.0,0.0,0.0,0.0,0.0,-2.7961,-2.8934,-3.0977,-3.3116,-3.4908,-3.6299,-3.8179,-4.1263,-4.2232,-4.283,-4.3497,-4.4749,-4.5362,-4.4636,-4.46,-4.4206,-4.3082,-4.2872,-4.247,-4.1641,-4.201,-4.2374,-4.2621,-4.2676,-4.2071,-4.0626,-4.2662,-4.2104,-3.8598,-4.2214,-4.3421,-4.2214,-4.247,-4.2562,-4.2442,-4.1088,-3.9994,-3.9099,-3.7209,-3.6009,-3.5349,-3.5509,-3.6552,-3.7928,-3.7455,-3.8211,-3.9451,-3.8209,-3.7437,-3.6877,-3.605,-3.5456,-3.5037,-3.4952,-3.4587,-3.4044,-3.3304,-3.1676,-2.9804,-2.8469,-2.6838,-2.5859,-2.7425,-2.7615,-2.7979,-3.0263,-3.0046,-2.9166,-2.8589,-2.8118,-2.748,-2.6406,-2.537,-2.4646,-2.4648,-2.4061,-2.357,-2.3456,-2.4584,-2.5512,-2.5687,-2.4321,-2.3522,-2.401,-2.222,-2.1126,-2.1427,-2.0876,-2.0487,-2.0473,-2.0433,-2.0405,-2.0418,-2.038,-2.0398,-2.0404,-2.0337,-2.0301,-2.0308,-2.0308,-2.0327,-2.0373,-2.0328,-2.0334,-1.6803,-1.6518,0.0,-2.172,-2.4132,-2.6718,0.0,0.0,-3.5206,-3.6791,-3.8461,-4.0167,-4.1782,-4.2849,-4.3868,-4.5051,-4.515,-4.5158,-4.5307,-4.532,-4.5285,-4.5129,-4.5107,-4.4803,-4.402,-4.3096,-4.2533,-4.2541,-4.1284,-4.0826,-4.1609,-4.1705,-4.1375,-4.0537,-4.1466,-4.1423,-4.0235,-4.1189,-4.187,-4.2214,-4.2716,-4.2767,-4.2382,-4.2216,-4.1682,-4.0812,-3.8519,-3.7156,-3.6474,-3.5851,-3.6216,-3.7178,-3.7629,-3.8541,-3.9312,-3.6939,-3.6039,-3.5863,-3.512,-3.4885,-3.4832,-3.4163,-3.4037,-3.3968,-3.323,-3.2931,-3.2835,-3.2697,-3.1945,-3.1235,-3.1451,-3.0919,-3.0404,-3.0726,-2.9542,-2.8544,-2.9207,-2.7585,-2.6367,-2.7673,-2.6641,-2.5545,-2.5547,-2.5479,-2.5152,-2.4383,-2.4424,-2.4832,-2.5609,-2.4848,-2.3961,-2.3212,-2.2929,-2.2189,-2.0672,-2.0517,-2.0463,-2.04,-2.04,-2.0434,-2.0491,-2.0363,-2.0347,-2.0404,-2.0337,-2.0306,-2.0308,-2.0308,-2.0301,-2.0301,-2.0301,-2.0334,-1.9648,0.0,0.0,0.0,-2.9667,-3.3632,-3.5254,-3.7344,-3.9266,-4.0431,-4.1955,-4.324,-4.3854,-4.3813,-4.4315,0.0,-4.5571,-4.5143,-4.6105,-4.5707,-4.5072,-4.4462,-4.3153,-4.2374,-4.2566,-4.3517,-4.3344,-4.1494,-4.2508,-4.2986,-4.2391,-4.2372,-4.2024,-4.128,-4.1539,-4.1308,-4.0515,-4.1495,-4.1884,-4.1639,-4.2535,-4.2861,-4.2681,-4.2562,-4.1557,-3.9822,-3.8873,-3.7933,-3.6978,-3.5432,-3.5632,-3.6968,-3.7323,-3.7732,-3.7976,-3.6614,-3.6092,-3.5964,-3.5107,-3.4849,-3.487,-3.4621,-3.4674,-3.4663,-3.3928,-3.4187,-3.4562,-3.3609,-3.3438,-3.3457,-3.297,-3.2567,-3.2255,-3.2252,-3.0915,-2.9762,-3.0171,-2.9019,-2.7971,-2.8211,-2.7277,-2.6303,-2.5796,-2.5278,-2.4818,-2.4452,-2.4395,-2.4534,-2.4907,-2.3778,-2.2584,-2.1647,-2.199,-2.1784,-2.0565,-2.0476,-2.0484,-2.0469,-2.0464,-2.0467,-2.0492,-2.041,-2.0361,-2.0398,-2.0366,-2.0366,-2.0353,-2.0315,-2.0321,-2.036,-2.0321,-2.0315,-2.1768,0.0,0.0,-2.9782,-3.4375,-3.8627,-3.868,-4.0516,-4.2318,-4.2841,-4.407,-4.5022,-4.4852,-4.4079,-4.4203,-4.6419,-4.5517,-4.4977,-4.6167,-4.5686,-4.4753,-4.3612,-4.174,-4.0329,-3.9868,-4.2107,-4.2967,-4.1511,-4.3216,-4.3905,-4.2982,-4.2678,-4.2178,-4.1437,-4.1506,-4.1221,-4.0485,-4.1571,-4.1882,-4.1427,-4.2269,-4.2837,-4.3137,-4.3039,-4.2014,-4.0274,-3.9719,-3.9118,-3.8313,-3.5906,-3.5658,-3.6822,-3.6522,-3.698,-3.7633,-3.631,-3.5832,-3.5762,-3.5337,-3.5076,-3.4945,-3.5286,-3.5333,-3.5189,-3.4943,-3.5267,-3.5491,-3.4339,-3.4315,-3.4495,-3.391,-3.3379,-3.2957,-3.2953,-3.1618,-3.0432,-3.0685,-3.0063,-2.9437,-2.9335,-2.8639,-2.7917,-2.7501,-2.652,-2.5736,-2.5473,-2.5239,-2.501,-2.479,-2.3488,-2.2234,-2.1324,-2.1507,-2.1374,-2.0545,-2.0472,-2.0581,-2.0834,-2.0636,-2.0504,-2.05,-2.0435,-2.0402,-2.0429,-2.0386,-2.0379,-2.0411,-2.0328,-2.0321,-2.0372,-2.0315,-2.0296,0.0,0.0,-2.7124,-3.3027,-3.6571,-3.9231,-4.1693,-4.3611,-4.4812,-4.4589,-4.5281,-4.5893,-4.5712,-4.4951,-4.4708,-4.575,-4.551,-4.5244,-4.5419,-4.5135,-4.4355,-4.2835,-4.1871,-3.9833,0.0,-3.7843,-4.0555,-4.3654,-4.2469,-4.1973,-4.2757,-4.2068,-4.1263,-4.0473,-4.0959,-4.0959,-4.0415,-4.09,-4.1415,-4.1983,-4.1995,-4.2651,-4.3767,-4.3892,-4.3924,-4.3725,-4.1649,-4.0942,-4.1026,-3.7899,-3.6668,-3.6572,-3.5206,-3.6651,-3.9126,-3.5853,-3.4648,-3.4781,-3.5673,-3.5491,-3.504,-3.5874,-3.5703,-3.5288,-3.6238,-3.61,-3.563,-3.5787,-3.5271,-3.4688,-3.4676,-3.3404,-3.2124,-3.2049,-3.0756,-2.9721,-3.0455,-2.9978,-2.9897,-3.1551,-3.1237,-3.0919,-3.1688,-3.045,-2.9055,-2.8212,-2.7379,-2.6532,-2.5765,-2.4871,-2.4001,-2.311,-2.2233,-2.1345,-2.0471,-2.039,-2.0794,-2.1707,-2.0978,-2.0508,-2.0494,-2.0434,-2.0431,-2.0508,-2.0366,-2.0331,-2.0397,-2.0337,-2.0296,-2.0292,-2.0308,-2.0301,-2.4218,0.0,-3.3078,-3.5708,-3.9634,-4.3205,-4.4557,-4.4896,-4.5039,-4.5382,-4.3012,-4.0848,-4.0738,-4.001,-4.0099,-4.2112,-4.3245,-4.4432,-4.5975,-4.4191,-4.2675,-4.261,-4.0482,0.0,0.0,0.0,0.0,-3.9157,-4.1112,-4.2488,-4.2775,-4.2049,-4.1628,-4.1719,-4.1551,-4.1471,-4.148,-4.1491,-4.1471,-4.1415,-4.1642,-4.2495,-4.3911,-4.396,-4.3998,-4.3946,-4.3237,-4.1752,-3.9964,-4.1073,-4.0263,-3.8266,-3.7761,-3.8394,-3.9455,-3.8321,-3.792,-3.7745,-3.6594,-3.5956,-3.5775,-3.6666,-3.6538,-3.6266,-3.7175,-3.664,-3.5877,-3.6573,-3.6562,-3.6241,-3.5697,-3.5528,-3.5339,-3.4722,-3.3719,-3.279,-3.2452,-3.1723,-3.1127,-3.1145,-3.0456,-2.9966,-3.0286,-2.9355,-2.8479,-2.824,-2.7,-2.5806,-2.4954,-2.4586,-2.4063,-2.3198,-2.226,-2.1597,-2.1349,-2.0748,-2.0545,-2.091,-2.1753,-2.1702,-2.0545,-2.0473,-2.0443,-2.0379,-2.1106,-2.1866,-2.2597,-2.1099,-2.0754,-2.1529,-2.2944,-2.2465,-2.8311,-3.2979,-3.7324,-3.9435,-4.2485,-4.5158,-4.5923,-4.5251,-4.4267,-4.3729,-4.1033,-3.8287,-3.6668,-3.5951,-3.6416,-3.9004,-4.0475,-4.236,-4.536,-4.3809,-4.2563,-4.2971,-4.094,-3.9986,0.0,0.0,0.0,-3.8508,-4.0539,-4.1818,-4.1698,-4.1223,-4.135,-4.2205,-4.2063,-4.1973,-4.195,-4.204,-4.1923,-4.1638,-4.2134,-4.2927,-4.3999,-4.3596,-4.3633,-4.3962,-4.3399,-4.1605,-3.9351,-4.2651,-4.206,-3.9217,-4.0374,-4.0517,-4.0158,-4.1011,-4.0318,-3.8744,-3.7454,-3.6665,-3.6388,-3.7243,-3.6922,-3.6342,-3.727,-3.6714,-3.5951,-3.6923,-3.72,-3.7099,-3.6583,-3.661,-3.6541,-3.5653,-3.5017,-3.4364,-3.3485,-3.3096,-3.2654,-3.1774,-3.0911,-3.0431,-3.0763,-3.0335,-2.9886,-2.9639,-2.8151,-2.6644,-2.5478,-2.5057,-2.4403,-2.3191,-2.2555,-2.1953,-2.1313,-2.0726,-2.0557,-2.0917,-2.1663,-2.1794,-2.1101,-2.1047,-2.108,-2.1191,-2.1343,-2.2076,-2.3422,-2.2554,-2.191,-2.1554,-2.4103,-2.4192,-3.4139,-3.7323,-3.9783,-4.3822,-4.4864,-4.5085,-4.5804,-4.4598,-4.2576,-3.9917,-3.9131,-3.7676,0.0,0.0,-3.3729,-3.6503,-3.744,-3.9358,-4.3673,-4.3962,-4.3748,0.0,0.0,0.0,0.0,0.0,0.0,-4.1531,0.0,-4.0153,-3.9928,-3.9928,-4.0575,-4.1938,-4.2451,-4.2489,-4.1986,-4.2459,-4.2648,-4.2577,-4.3315,-4.3708,-4.3793,-4.2892,-4.2942,-4.3648,-4.1829,-4.0298,-3.9358,-4.2454,-4.2015,-3.9663,-4.2773,-4.2773,-4.1269,-4.3491,-4.1587,-3.7907,-3.8287,-3.7736,-3.6938,-3.7702,-3.6873,-3.5791,-3.6787,-3.6512,-3.6056,-3.7058,-3.7327,-3.7334,-3.7354,-3.6797,-3.5957,-3.5023,-3.4803,-3.4549,-3.3623,-3.4075,-3.4367,-3.3387,-3.2538,-3.2247,-3.3056,-3.3172,-3.2908,-3.2138,-3.0555,-2.8856,-2.727,-2.6263,-2.5027,-2.327,-2.3084,-2.2364,-2.0579,-2.0418,-2.0747,-2.1578,-2.0797,-2.0817,-2.1965,-2.1945,-2.2227,-2.2905,-2.1229,-2.1118,-2.2766,-2.4469,-2.3694,-2.0727,-2.3848,-2.5305,-3.5373,-3.948,-4.3364,-4.3755,-4.4382,-4.4759,-4.422,-4.184,-3.9335,-3.7918,-3.3602,-2.9752,0.0,0.0,0.0,-3.4129,-3.6145,0.0,-4.3349,-4.3319,0.0,-4.3789,0.0,-4.4186,-4.3687,-4.4567,0.0,0.0,-4.1426,-4.1665,-4.2986,-4.2115,-4.2107,-4.3292,-4.3058,-4.2981,-4.3102,-4.2823,-4.253,-4.2147,-4.2749,-4.246,-4.143,-4.2904,-4.2423,-4.0094,-3.5303,-3.5485,-3.9156,-3.9997,-4.1301,-4.2837,-4.3677,-4.3821,-4.3403,-4.2195,-4.1017,-4.003,-4.0128,-3.9342,-3.8306,-3.8506,-3.8484,-3.8551,-3.9453,-3.883,-3.7981,-3.8877,-3.9141,-3.9,-3.8419,-3.858,-3.868,-3.7789,-3.758,-3.7153,-3.558,-3.5365,-3.5026,-3.3436,-3.2434,-3.2125,-3.2986,-3.2144,-3.1294,-3.108,-2.963,-2.8407,-2.8014,-2.6646,-2.5255,-2.4101,-2.3397,-2.2834,-2.2355,-2.1081,-2.0418,-2.0649,-2.0437,-2.0441,-2.0747,-2.0747,-2.1976,-2.4609,-2.2994,-2.1693,-2.0812,-2.3823,-2.488,-2.4072,-2.4908,-2.5303,-3.9292,-4.2556,-4.5204,-4.4305,-4.3922,-4.33,-4.1595,-3.8888,-3.5931,-3.3112,-2.9807,0.0,-2.4962,0.0,0.0,0.0,0.0,0.0,-4.1952,-4.2262,-4.2652,0.0,-4.5276,0.0,-4.606,-4.6497,-4.6126,0.0,-4.2775,-4.2076,-4.276,-4.2501,-4.2712,-4.3594,-4.368,-4.3666,-4.3479,-4.3221,-4.301,-4.2943,-4.3321,-4.3196,-4.262,-4.3303,-4.2729,-4.0985,-3.6263,-3.6081,-3.9207,-4.0654,-4.1732,-4.2618,-4.4246,-4.3996,-4.2584,-4.1284,-4.0809,-4.0791,-4.0795,-4.0651,-4.0331,-3.9437,-3.9071,-3.9054,-3.9539,-3.9132,-3.8675,-3.9552,-3.9804,-3.9702,-3.9287,-3.9522,-3.9671,-3.8807,-3.8882,-3.8674,-3.6851,-3.6443,-3.5762,-3.3533,-3.2687,-3.2587,-3.3479,-3.2908,-3.2202,-3.1844,-3.0374,-2.904,-2.8344,-2.6759,-2.5325,-2.4316,-2.3805,-2.3327,-2.2859,-2.1918,-2.1336,-2.1305,-2.1312,-2.1317,-2.132,-2.1559,-2.2642,-2.4659,-2.4158,-2.336,-2.2305,-2.4219,-2.5201,-2.5311,-2.5772,-2.5744,-4.3731,-4.5404,-4.587,-4.49,-4.3383,-4.141,-3.8683,-3.5918,-3.2532,-2.7648,0.0,-2.6272,-2.2707,-2.2669,-2.4863,-3.0014,0.0,-3.2958,-3.9927,-4.1195,-4.256,-4.5622,-4.6106,-4.6499,-4.7229,-4.6994,-4.6993,-4.7435,-4.4653,-4.2595,-4.1827,-4.2451,-4.3004,-4.3393,-4.416,-4.4213,-4.3497,-4.3497,-4.3717,-4.4093,-4.4315,-4.4745,-4.5265,-4.4013,-4.3476,-4.3365,-4.04,-3.911,-3.9334,-4.217,-4.2208,-4.0836,-4.4317,-4.3695,-4.091,-4.1085,-4.1007,-4.0815,-4.0958,-4.1691,-4.2246,-4.0546,-3.9422,-3.876,-3.8875,-3.8793,-3.885,-3.9714,-3.996,-3.9995,-4.0038,-4.0058,-3.9878,-3.9108,-3.9513,-3.9595,-3.7923,-3.737,-3.647,-3.4062,-3.3364,-3.3434,-3.4326,-3.4429,-3.4108,-3.3172,-3.1805,-3.0179,-2.8262,-2.6641,-2.5274,-2.4217,-2.4142,-2.3788,-2.2824,-2.2709,-2.2747,-2.2939,-2.2659,-2.2524,-2.2598,-2.3171,-2.3659,-2.4033,-2.4702,-2.5046,-2.5096,-2.503,-2.5091,-2.5297,-2.6228,-2.6173,-4.3825,-4.4945,-4.5724,-4.4195,-4.2507,-4.0364,-3.7072,-3.3215,0.0,0.0,-2.4264,-2.311,-2.3735,-2.3972,-2.596,-3.1709,0.0,0.0,0.0,0.0,-4.3436,0.0,0.0,0.0,0.0,-4.6384,0.0,0.0,-4.6958,-4.6468,-4.5993,-4.5084,-4.4247,-4.3516,-4.3626,-4.3626,-4.3497,-4.3497,-4.3717,-4.4093,-4.4467,-4.4865,-4.5303,-4.5218,-4.3672,-4.1022,-3.9683,-3.9107,-3.9157,-3.9698,-4.0177,-4.0734,-4.291,-4.3412,-4.2893,-4.2943,-4.2041,-4.0938,-4.1879,-4.2206,-4.2175,-4.2102,-4.1392,-4.0663,-4.1343,-4.0579,-3.9676,-4.0544,-4.0832,-4.0879,-4.0897,-4.0897,-4.0858,-4.0703,-4.078,-4.0622,-3.9632,-3.8174,-3.686,-3.6277,-3.4988,-3.4294,-3.5203,-3.4884,-3.3944,-3.2363,-3.1926,-3.0633,-2.7453,-2.6218,-2.5229,-2.4208,-2.4103,-2.3937,-2.3467,-2.294,-2.3227,-2.4668,-2.2967,-2.2149,-2.2579,-2.3135,-2.3864,-2.4793,-2.4106,-2.4152,-2.5008,-2.501,-2.5049,-2.5145,-2.5321,-2.5332,-4.3716,-4.4526,-4.5176,-4.3867,-4.1232,-3.7965,-3.4075,0.0,0.0,0.0,-2.1702,-2.1261,-2.16,0.0,0.0,0.0,0.0,0.0,0.0,0.0,0.0,0.0,0.0,0.0,0.0,-4.5704,-4.5383,-4.6104,-4.6163,-4.6358,-4.6887,-4.5571,-4.4577,-4.414,-4.3718,-4.3497,-4.3497,-4.3497,-4.3675,-4.4031,-4.3887,-4.4354,-4.5297,-4.3654,-4.2026,-4.0469,-4.0033,-4.0532,-4.1666,-4.1644,-4.0901,-4.0076,-4.3175,-4.4501,-4.4596,-4.4215,-4.3446,-4.2537,-4.2325,-4.2501,-4.2772,-4.2496,-4.2043,-4.1693,-4.2113,-4.1361,-4.0461,-4.092,-4.107,-4.1101,-4.1103,-4.1094,-4.1108,-4.1107,-4.0698,-4.0212,-3.9876,-3.8268,-3.6884,-3.687,-3.581,-3.5078,-3.5519,-3.5306,-3.4642,-3.3393,-3.249,-3.1177,-2.9062,-2.7625,-2.6269,-2.4874,-2.472,-2.462,-2.4339,-2.4033,-2.4205,-2.5038,-2.4079,-2.3593,-2.3852,-2.4112,-2.4467,-2.4993,-2.4499,-2.4487,-2.5006,-2.5564,-2.559,-2.5118,-2.5531,-2.5547,-4.3798,-4.4394,-4.4686,-4.3767,-4.0162,-3.5825,-3.1885,-2.8048,0.0,0.0,-2.023,-2.0524,-2.0331,0.0,0.0,0.0,0.0,0.0,0.0,0.0,0.0,0.0,0.0,0.0,0.0,-4.5386,0.0,-4.5706,-4.5621,-4.5883,-4.6574,-4.537,-4.4509,-4.4248,-4.344,-4.2983,-4.2983,-4.3149,-4.3332,-4.3497,-4.3156,-4.3521,-4.4505,-4.2202,-4.0883,-4.0553,-4.1271,-4.25,-4.3847,-4.1863,-4.0698,-4.0425,-4.3312,-4.4726,-4.5117,-4.4742,-4.4383,-4.3866,-4.2699,-4.2803,-4.3394,-4.2694,-4.2248,-4.1991,-4.2234,-4.1572,-4.0779,-4.1031,-4.1094,-4.1109,-4.1091,-4.1091,-4.115,-4.1328,-4.0635,-3.9922,-3.9981,-3.8472,-3.7076,-3.6933,-3.6207,-3.5604,-3.5604,-3.5608,-3.5353,-3.4513,-3.3277,-3.199,-3.0768,-2.9467,-2.7893,-2.589,-2.5563,-2.5373,-2.5023,-2.4996,-2.4996,-2.501,-2.4996,-2.4996,-2.501,-2.501,-2.501,-2.501,-2.501,-2.501,-2.501,-2.5858,-2.5842,-2.5088,-2.5749,-2.5772,-4.444,-4.4896,-4.4709,-4.3888,-3.9813,-3.53,-3.2596,0.0,0.0,-2.1968,-2.0991,-2.1195,-2.3416,-2.3964,0.0,0.0,0.0,0.0,0.0,0.0,0.0,0.0,0.0,0.0,0.0,-4.6094,-4.5891,-4.7848,-4.7976,-4.7426,-4.614,-4.5186,-4.4118,-4.2844,-4.1852,-4.1332,-4.1332,-4.2047,-4.2258,-4.1911,-4.2592,-4.2556,-4.1964,-4.3016,-4.2406,-4.0666,-4.3786,-4.4704,-4.3361,-3.4921,-3.623,-4.3399,-4.1907,-4.2039,-4.3188,-4.4036,-4.3965,-4.3453,-4.326,-4.3315,-4.3491,-4.3413,-4.2341,-4.126,-4.2064,-4.1182,-4.0081,-4.0877,-4.1094,-4.1091,-4.1107,-4.1108,-4.1308,-4.2092,-4.1601,-4.0953,-4.0883,-3.9441,-3.7909,-3.7061,-3.6199,-3.5601,-3.5601,-3.5643,-3.5394,-3.4524,-3.4274,-3.3316,-3.0916,-3.0934,-3.0071,-2.7148,-2.6453,-2.5888,-2.5067,-2.5002,-2.4988,-2.4996,-2.5002,-2.4988,-2.4996,-2.501,-2.501,-2.501,-2.501,-2.501,-2.501,-2.5094,-2.5107,-2.5006,-2.5152,-2.5213,-4.0758,-4.2217,-4.3181,-4.2295,-3.8536,-3.4267,-3.1237,0.0,0.0,-2.1523,-2.0779,-2.0962,-2.251,-2.3196,-2.4544,0.0,0.0,0.0,0.0,0.0,0.0,0.0,0.0,0.0,0.0,0.0,-4.5171,-4.5563,-4.5123,-4.4791,-4.4557,-4.4652,-4.3789,-4.176,-4.1309,-4.1111,-4.1111,-4.1456,-4.1567,-4.1403,-4.1444,-4.1538,-4.1701,-4.1366,-4.1513,-4.2189,-4.456,-4.4206,-4.149,-3.6435,-3.8153,-4.3958,-4.3402,-4.3549,-4.4143,-4.4633,-4.4725,-4.441,-4.3439,-4.3201,-4.3156,-4.2238,-4.1529,-4.1212,-4.2097,-4.1494,-4.0611,-4.0988,-4.1105,-4.11,-4.1094,-4.149,-4.2101,-4.2987,-4.2888,-4.244,-4.1841,-4.0296,-3.8914,-3.8535,-3.6919,-3.5767,-3.6281,-3.6389,-3.6149,-3.5298,-3.5173,-3.456,-3.2875,-3.2359,-3.1456,-2.9604,-2.8278,-2.6811,-2.5135,-2.5007,-2.5003,-2.4996,-2.4996,-2.4996,-2.501,-2.501,-2.501,-2.501,-2.501,-2.4991,-2.4999,-2.5012,-2.5019,-2.5057,-2.5125,-2.516,-3.7006,-3.9275,-4.109,-4.045,-3.682,-3.2586,0.0,0.0,0.0,-2.0604,-1.9958,-2.0265,-2.187,-2.244,-2.3533,0.0,0.0,-2.7566,0.0,0.0,0.0,0.0,0.0,0.0,0.0,-4.399,-4.5086,-4.4789,-4.3826,-4.3207,-4.3232,-4.3495,-4.2763,-4.0832,-4.0538,-4.0428,-4.0428,-4.0725,-4.0756,-4.0548,-4.0447,-4.041,-4.0364,-3.9768,-4.056,-4.2481,-4.3456,-4.28,-4.0938,-3.9658,-4.1104,-4.4117,-4.4461,-4.4688,-4.4905,-4.5036,-4.5012,-4.471,-4.3386,-4.2873,-4.2594,-4.1255,-4.0937,-4.1203,-4.1836,-4.1552,-4.1039,-4.1081,-4.1094,-4.1111,-4.1108,-4.1568,-4.2238,-4.3104,-4.3262,-4.3027,-4.2349,-4.0984,-3.9804,-3.9521,-3.7788,-3.6571,-3.7181,-3.7065,-3.6709,-3.6149,-3.5786,-3.5213,-3.4145,-3.3528,-3.2665,-3.1278,-3.0222,-2.8527,-2.5898,-2.5261,-2.499,-2.4993,-2.4993,-2.5007,-2.4996,-2.501,-2.501,-2.5037,-2.5004,-2.5012,-2.5025,-2.5044,-2.5088,-2.5137,-2.5184,-2.5206,-3.4019,-3.6606,-3.8549,-3.8612,-3.4707,-3.0175,0.0,0.0,0.0,-1.9402,-1.8585,-1.906,-2.2452,-2.238,-2.2884,-2.6168,0.0,0.0,0.0,0.0,0.0,0.0,0.0,0.0,-4.2595,-4.4657,-4.6139,-4.6984,-4.559,0.0,-4.2396,-4.157,-4.0795,-4.0025,-3.9234,-3.881,-3.881,-3.9693,-3.9753,-3.9016,-3.9841,-3.9091,-3.7122,-3.8745,-3.9967,-4.0805,-4.0151,-4.0791,-4.2361,-4.3457,-4.4067,-4.431,-4.4299,-4.4549,-4.4872,-4.4825,-4.4478,-4.3886,-4.3005,-4.236,-4.1777,-4.0887,-4.0839,-4.1095,-4.1117,-4.1103,-4.1096,-4.1101,-4.1099,-4.1091,-4.1105,-4.1112,-4.1328,-4.2203,-4.235,-4.2295,-4.2229,-4.1463,-4.0505,-3.9573,-3.8735,-3.8187,-3.8182,-3.746,-3.6903,-3.6884,-3.5978,-3.499,-3.4112,-3.4337,-3.3785,-3.1713,-3.218,-3.1179,-2.7584,-2.5883,-2.4998,-2.5005,-2.4994,-2.5001,-2.4996,-2.501,-2.5037,-2.5101,-2.5025,-2.5025,-2.5103,-2.5172,-2.5203,-2.5187,-2.5201,-2.5241,-2.8827,-3.1269,-3.2967,-3.1836,-2.9838,-2.7311,-2.4159,0.0,0.0,-1.8806,-1.861,-1.9155,-2.0246,-2.0692,-2.199,-2.5343,-2.6391,0.0,0.0,0.0,0.0,0.0,0.0,0.0,0.0,0.0,-4.3183,-4.4491,-4.1668,-4.0161,-4.0712,-3.9932,-3.9362,-3.9178,-3.8921,-3.8822,-3.8881,-3.918,-3.9238,-3.8979,-3.9305,-3.8569,-3.698,-3.8525,-3.9376,-3.9703,-4.1028,-4.2303,-4.3504,-4.3943,-4.4169,-4.4259,-4.4337,-4.4505,-4.4674,-4.4621,-4.4556,-4.4275,-4.2902,-4.241,-4.2172,-4.0881,-4.0688,-4.096,-4.0953,-4.1022,-4.1104,-4.1168,-4.117,-4.1287,-4.1854,-4.1992,-4.2201,-4.3023,-4.319,-4.2985,-4.2287,-4.1424,-4.0713,-4.0416,-3.9154,-3.833,-3.8984,-3.886,-3.826,-3.7077,-3.6999,-3.6516,-3.4887,-3.4661,-3.4348,-3.3583,-3.2737,-3.1334,-2.9133,-2.8493,-2.8218,-2.8213,-2.6189,-2.5064,-2.5209,-2.5114,-2.5101,-2.5175,-2.5106,-2.5111,-2.5176,-2.5195,-2.5217,-2.5261,-2.5212,-2.5273,0.0,-2.7114,-2.9038,-2.7655,-2.6621,0.0,0.0,0.0,0.0,-1.7871,-1.8121,-1.8819,-1.9132,-2.0177,-2.1562,-2.3324,-2.5647,0.0,0.0,0.0,0.0,0.0,0.0,0.0,0.0,-4.2472,-4.1886,-4.2915,-4.0215,-3.8932,-3.9921,-3.916,-3.875,-3.8851,-3.8851,-3.8851,-3.891,-3.8979,-3.9036,-3.9036,-3.9073,-3.8503,-3.7448,-3.8904,-3.9469,-3.9308,-4.1049,-4.2462,0.0,-4.3999,-4.4242,-4.4323,-4.4393,-4.4524,-4.4632,-4.4551,-4.439,-4.3999,-4.2686,-4.2161,-4.1915,-4.0701,-4.0597,-4.0901,-4.0905,-4.1016,-4.1146,-4.1191,-4.1191,-4.1328,-4.1816,-4.1953,-4.2058,-4.2513,-4.2847,-4.2879,-4.2215,-4.1614,-4.1233,-4.1216,-4.0069,-3.9257,-3.9843,-3.9704,-3.9027,-3.7641,-3.7324,-3.6712,-3.5186,-3.4714,-3.4308,-3.3776,-3.2842,-3.154,-2.9738,-2.9697,-2.9761,-2.9703,-2.679,-2.512,-2.5222,-2.5139,-2.5132,-2.5203,-2.5164,-2.5168,-2.5241,-2.5241,-2.5252,-2.5302,-2.5283,-2.5322,0.0,0.0,0.0,0.0,0.0,0.0,0.0,0.0,0.0,0.0,0.0,0.0,-1.9044,-2.0662,-2.1601,-2.0792,0.0,0.0,0.0,0.0,0.0,0.0,0.0,0.0,-4.0947,-4.1595,-4.199,-4.2087,-4.0689,-3.9808,-3.984,-3.9111,-3.875,-3.891,-3.891,-3.8892,-3.8921,-3.9045,-3.9045,-3.8943,-3.9045,-3.8726,-3.8072,-3.9676,-4.003,-3.9469,-4.0502,-4.1668,-4.2883,-4.383,-4.4333,-4.4515,-4.4515,-4.4578,-4.4685,-4.4632,-4.4081,-4.3284,-4.2396,-4.1783,-4.1246,-4.0461,-4.052,-4.0864,-4.0893,-4.1033,-4.1191,-4.1191,-4.1191,-4.1191,-4.1189,-4.1189,-4.1163,-4.1016,-4.1557,-4.2063,-4.1943,-4.1846,-4.1822,-4.1832,-4.1208,-4.0713,-4.0713,-4.0087,-3.9309,-3.8496,-3.7213,-3.6021,-3.5188,-3.4607,-3.3849,-3.2841,-3.278,-3.1987,-2.9963,-2.9851,-2.9825,-2.9722,-2.6862,-2.5223,-2.5278,-2.5184,-2.518,-2.5294,-2.5236,-2.5241,-2.5303,-2.5303,-2.5303,-2.5303,-2.5361,-2.537,-1.9561,0.0,-2.1669,-2.0184,-1.9656,0.0,0.0,0.0,0.0,0.0,0.0,0.0,0.0,0.0,0.0,0.0,0.0,0.0,0.0,0.0,0.0,0.0,0.0,-4.1107,-3.9557,-4.0423,-4.0878,-4.0339,-3.9502,-3.8995,-3.9056,-3.883,-3.875,-3.891,-3.891,-3.895,-3.9045,-3.9073,-3.8524,-3.7424,-3.8542,-3.8163,-3.6521,-3.9181,-4.003,-3.9518,-4.152,-4.2579,-4.2954,-4.3959,-4.443,-4.4515,-4.457,-4.4632,-4.4685,-4.4632,-4.4465,-4.4089,-4.2629,-4.2119,-4.1936,-4.0801,-4.0495,-4.0622,-4.0788,-4.0964,-4.1133,-4.1191,-4.1191,-4.1183,-4.1063,-4.11,-4.1082,-4.0893,-4.1001,-4.1112,-4.1021,-4.094,-4.094,-4.1049,-4.0868,-4.0738,-4.0834,-4.0641,-4.0203,-3.9348,-3.8232,-3.7108,-3.606,-3.5131,-3.4449,-3.4092,-3.393,-3.377,-3.3616,-3.1239,-2.9732,-2.9712,-2.677,-2.5657,-2.7029,-2.5956,-2.559,-2.6181,-2.5589,-2.5293,-2.5303,-2.5303,-2.5303,-2.5303,-2.5313,-2.5341,-1.9143,-1.9811,-2.0267,-1.9334,-1.8817,-1.8293,0.0,0.0,0.0,0.0,0.0,0.0,0.0,0.0,0.0,0.0,0.0,0.0,0.0,0.0,0.0,0.0,0.0,-3.8726,0.0,-3.9502,-3.9981,-3.9292,-3.8915,-3.8738,-3.875,-3.8719,-3.875,-3.891,-3.891,-3.895,-3.9045,-3.9073,-3.8159,-3.6376,-3.8678,-3.8536,-3.6494,-3.9973,-4.1119,-4.0449,-4.1465,-4.2277,-4.2891,-4.2827,-4.3472,-4.4515,-4.4578,-4.4632,-4.4659,-4.4605,-4.438,-4.3928,-4.305,-4.237,-4.1727,-4.0728,-4.0454,-4.0523,-4.0675,-4.0818,-4.0992,-4.1111,-4.1172,-4.1179,-4.1064,-4.1081,-4.1061,-4.0855,-4.0789,-4.0742,-4.0665,-4.0603,-4.0583,-4.0694,-4.07,-4.0718,-4.0837,-4.0818,-4.0516,-3.9661,-3.8507,-3.7345,-3.6326,-3.5244,-3.4505,-3.4395,-3.3481,-3.2826,-3.2615,-3.0879,-2.9765,-2.9693,-2.8092,-2.6957,-2.6555,-2.6251,-2.6042,-2.5953,-2.5563,-2.5341,-2.5312,-2.5312,-2.5293,-2.5303,-2.5322,-2.5341,-1.9375,-1.9942,-2.0501,-2.0429,-1.971,-1.9068,0.0,0.0,0.0,0.0,0.0,0.0,0.0,0.0,0.0,0.0,0.0,0.0,0.0,0.0,0.0,0.0,-3.4903,0.0,-3.7295,-3.883,-3.9438,-3.8762,-3.8707,-3.8738,-3.8738,-3.8719,-3.878,-3.891,-3.8939,-3.895,-3.9007,-3.9073,-3.8011,-3.5909,-3.8891,-3.9227,-3.7386,-4.1027,-4.2459,-4.1954,-4.1482,0.0,-4.3032,-4.1893,-4.2667,-4.4515,-4.4578,-4.4605,-4.4605,-4.4605,-4.4146,-4.3544,-4.3516,-4.2541,-4.1201,-4.0654,-4.0476,-4.0479,-4.0543,-4.0665,-4.0811,-4.098,-4.1108,-4.1153,-4.1061,-4.1042,-4.101,-4.0803,-4.0742,-4.068,-4.0607,-4.0558,-4.0519,-4.0588,-4.0655,-4.0718,-4.0807,-4.0818,-4.0574,-3.9887,-3.8652,-3.7446,-3.6517,-3.5282,-3.4423,-3.427,-3.2405,-3.0829,-2.9963,-2.9902,-2.9853,-2.9744,-2.9718,-2.8493,-2.5722,-2.6458,-2.6472,-2.5524,-2.5444,-2.5436,-2.5484,-2.5349,-2.5302,-2.5303,-2.5361,-2.5341,-2.0292,-2.0444,-2.0566,-2.0507,-1.9275,-1.8497,-1.996,0.0,0.0,0.0,0.0,0.0,0.0,0.0,0.0,0.0,0.0,0.0,0.0,0.0,-3.2902,-3.5067,0.0,-3.8982,-3.6946,-3.8552,-3.9438,-3.8762,-3.875,-3.8792,-3.8792,-3.8851,-3.891,-3.8979,-3.8979,-3.9007,-3.9073,-3.9101,-3.829,-3.6732,-3.8484,-3.9192,-3.8988,-4.0914,-4.2523,-4.3811,0.0,-4.3914,-4.4177,-4.3999,-4.4213,-4.4578,-4.4605,-4.4605,-4.4605,-4.4605,-4.4476,-4.4269,-4.375,-4.2572,-4.1296,-4.1303,-4.0864,-4.0346,-4.0415,-4.0527,-4.0648,-4.0738,-4.089,-4.1,-4.0885,-4.0855,-4.0803,-4.066,-4.0617,-4.0607,-4.0607,-4.0558,-4.0534,-4.0655,-4.0694,-4.073,-4.0859,-4.0839,-4.0768,-4.0632,-3.9797,-3.8724,-3.7467,-3.5891,-3.4813,-3.4567,-3.1878,-3.0077,-2.9923,-2.9903,-2.9897,-2.9877,-2.9874,-2.9159,-2.7547,-2.7227,-2.6901,-2.6494,-2.5766,-2.5697,-2.6318,-2.5629,-2.5303,-2.5303,-2.5313,-2.5313,-2.0536,-2.0202,-2.0172,-2.1562,-2.0248,-1.9284,-2.1899,0.0,0.0,0.0,0.0,0.0,0.0,0.0,0.0,0.0,0.0,0.0,-3.8371,-3.7322,-3.6033,0.0,0.0,-3.6036,-3.6163,-3.7982,-3.9012,-3.8726,-3.8719,-3.8762,-3.8792,-3.8822,-3.8892,-3.8997,-3.8524,-3.8563,-3.9082,-3.8674,-3.772,-3.6335,-3.8768,-3.9029,-3.751,-4.0419,-4.1931,-4.2172,0.0,-4.2554,-4.3699,-4.2923,-4.3363,-4.4542,-4.4542,-4.4288,-4.3837,-4.3412,-4.3578,-4.3863,-4.2711,-4.2183,-4.1909,-4.1113,-4.0597,-4.031,-4.0379,-4.046,-4.0569,-4.0635,-4.0812,-4.0965,-4.0823,-4.0803,-4.077,-4.064,-4.0598,-4.0607,-4.0607,-4.0558,-4.0549,-4.0668,-4.0694,-4.0742,-4.0869,-4.0849,-4.0807,-4.0807,-3.9934,-3.8902,-3.7797,-3.6476,-3.5381,-3.4736,-3.2996,-3.1374,-3.0019,-3.0425,-3.0487,-2.9832,-2.987,-2.962,-2.9003,-2.7271,-2.6528,-2.6908,-2.6525,-2.6601,-2.7144,-2.6335,-2.5953,-2.5955,-2.5995,-2.5755,-2.0506,-1.9914,-1.9758,-2.1933,0.0,-1.9687,-2.3883,0.0,0.0,0.0,0.0,0.0,0.0,0.0,0.0,0.0,0.0,-4.1324,-4.2502,-4.1183,-3.9391,-3.7405,-3.4982,-3.4293,-3.6325,-3.7853,-3.875,-3.875,-3.8584,-3.8504,-3.8545,-3.8556,-3.8522,-3.8451,-3.8155,-3.8285,-3.885,-3.8422,-3.7671,-3.6635,-3.9144,-3.9126,-3.7033,-4.0169,-4.1417,-4.1111,-4.0703,-4.1649,-4.3399,-4.2278,-4.2881,-4.4496,-4.4289,-4.3839,-4.3219,-4.2596,-4.3026,-4.3705,-4.2492,-4.2338,-4.2503,-4.1284,-4.0635,-4.031,-4.0379,-4.0444,-4.0543,-4.081,-4.0899,-4.0913,-4.0797,-4.0751,-4.0737,-4.0626,-4.0583,-4.0573,-4.0573,-4.0539,-4.0549,-4.0668,-4.0694,-4.0742,-4.0869,-4.0849,-4.0807,-4.0807,-4.0063,-3.9099,-3.7967,-3.708,-3.6081,-3.4807,-3.3979,-3.2543,-3.0113,-3.0649,-3.0744,-2.9884,-3.074,-3.0921,-3.0132,-2.8041,-2.7089,-2.7509,-2.7384,-2.7546,-2.7988,-2.7213,-2.6699,-2.651,-2.6561,-2.614,-2.0291,-1.9907,-1.9526,-2.0443,0.0,0.0,-2.5196,-2.2806,0.0,0.0,0.0,0.0,0.0,0.0,0.0,0.0,0.0,-4.2532,-4.2054,0.0,-4.2359,-4.0107,-3.8866,-3.8313,-3.8564,-3.8704,-3.8826,-3.8862,-3.818,-3.7755,-3.7784,-3.7822,-3.7525,-3.6785,-3.821,-3.8701,-3.8093,-3.8755,-3.9061,-3.895,-3.9309,-3.9746,-4.0277,-4.0576,-4.1557,-4.2988,-4.296,-4.3502,-4.4393,-4.4289,-4.4346,-4.4439,-4.3688,-4.3351,-4.3294,-4.3219,-4.3841,-4.4701,-4.4643,-4.3779,-4.2694,-4.264,-4.1571,-4.031,-4.0379,-4.0444,-4.0677,-4.1493,-4.1224,-4.072,-4.072,-4.0665,-4.0607,-4.0588,-4.0539,-4.0523,-4.0523,-4.0504,-4.0549,-4.0668,-4.0694,-4.0742,-4.0869,-4.0849,-4.0807,-4.0807,-4.073,-4.0005,-3.8132,-3.7775,-3.6891,-3.4829,-3.3842,-3.2392,-3.0088,-2.9978,-3.0059,-3.0166,-3.3453,-3.3986,-3.0851,-3.0547,-2.9904,-2.8791,-2.8216,-2.8251,-2.89,-2.8099,-2.7297,-2.651,-2.6561,-2.614,-1.9804,-1.9075,-1.8838,-2.082,0.0,0.0,0.0,0.0,0.0,0.0,0.0,0.0,0.0,0.0,0.0,0.0,-3.7452,-4.3164,-4.2945,-4.1521,-4.0198,-3.9337,-3.8989,-3.8859,-3.8973,-3.8947,-3.8678,-3.8132,-3.7819,-3.7432,-3.699,-3.6925,-3.6833,-3.6599,-3.6719,-3.7161,-3.792,-3.7787,-3.8249,-3.9346,-3.9418,-3.9638,-3.9937,-3.9944,-4.0589,-4.1667,-4.2227,-4.2948,-4.3782,-4.4289,-4.4515,-4.4383,-4.3031,-4.2852,-4.3299,-4.278,-4.3271,-4.4185,-4.4212,-4.3583,-4.2698,-4.2163,-4.1227,-4.0291,-4.0328,-4.0413,-4.0581,-4.0904,-4.0829,-4.077,-4.1316,-4.1036,-4.0607,-4.0607,-4.0539,-4.0489,-4.0489,-4.0534,-4.0588,-4.0681,-4.073,-4.0776,-4.0878,-4.0888,-4.1098,-4.1757,-4.1246,-4.0507,-3.9734,-3.8755,-3.7313,-3.5193,-3.4572,-3.3899,-3.2916,-3.328,-3.3615,-3.3743,-3.3119,-3.2178,-3.0847,-3.0794,-3.0569,-3.0101,-2.9606,-2.9486,-2.9752,-2.8943,-2.8382,-2.8063,-2.808,-2.7355,-1.9269,-1.8388,-1.8016,0.0,0.0,0.0,0.0,0.0,0.0,0.0,0.0,0.0,0.0,0.0,0.0,0.0,-3.5781,-4.1582,-4.0474,-3.9388,-3.8546,-3.8169,-3.7613,-3.7739,-3.8939,-3.8356,-3.7848,-3.7681,-3.7145,-3.6629,-3.6131,-3.604,-3.5965,-3.5821,-3.581,-3.6363,-3.7582,-3.7329,-3.794,-3.9391,-3.9469,-3.9495,-3.9495,-3.9546,-4.0002,-4.0765,-4.1327,-4.2262,-4.334,-4.3595,-4.3557,-4.3265,-4.21,-4.2201,-4.2937,-4.241,-4.3047,-4.414,-4.3878,-4.3531,-4.3004,-4.1838,-4.1304,-4.0998,-4.05,-4.0605,-4.0912,-4.0908,-4.0776,-4.0833,-4.1687,-4.1239,-4.0573,-4.0573,-4.0539,-4.0489,-4.0489,-4.0534,-4.0588,-4.0681,-4.073,-4.0807,-4.0878,-4.0888,-4.1147,-4.1854,-4.1742,-4.1388,-4.082,-3.9308,-3.7475,-3.5329,-3.5148,-3.5137,-3.4997,-3.5494,-3.586,-3.5918,-3.2746,-3.0859,-3.0818,-3.0813,-3.0806,-3.08,-3.0529,-3.0341,-3.0235,-2.9694,-2.9289,-2.9009,-2.9002,-2.8241,-1.8737,-1.7965,0.0,0.0,0.0,0.0,0.0,0.0,0.0,0.0,0.0,0.0,-3.1052,0.0,0.0,-3.3627,-3.6409,-3.7479,-3.3929,-3.6458,-3.8253,-3.7034,-3.5071,-3.5159,-3.8549,-3.6878,-3.6205,-3.7674,-3.6196,-3.521,-3.5192,-3.5192,-3.4858,-3.4117,-3.5769,-3.6745,-3.6907,-3.7692,-3.8532,-3.9373,-3.9451,-3.9495,-3.9495,-3.9495,-3.9996,-4.0797,-4.0746,-4.1736,-4.3307,-4.2389,-4.1581,-4.0892,-4.0892,-4.1406,-4.2146,-4.2252,-4.3455,-4.4877,-4.406,-4.3869,-4.369,-4.197,-4.2028,-4.2489,-4.0877,-4.1058,-4.1797,-4.1786,-4.1263,-4.088,-4.1687,-4.1204,-4.0508,-4.0508,-4.0508,-4.0508,-4.0508,-4.0523,-4.0549,-4.0668,-4.0694,-4.0742,-4.0869,-4.0908,-4.0877,-4.0807,-4.2222,-4.2656,-4.097,-3.9308,-3.7417,-3.5158,-3.5437,-3.5811,-3.5803,-3.5869,-3.5922,-3.6008,-3.2732,-3.0837,-3.0899,-3.0863,-3.0829,-3.08,-3.08,-3.063,-3.0306,-3.0364,-2.9913,-2.9015,-2.9015,-2.8567,-1.8205,0.0,0.0,0.0,0.0,0.0,0.0,0.0,0.0,0.0,0.0,-3.375,-3.2428,0.0,0.0,-3.6855,-3.8026,-3.7945,-3.5745,-3.6656,-3.7301,-3.6552,-3.5973,-3.5872,-3.651,-3.6353,-3.6177,-3.5984,-3.5495,-3.4934,-3.4318,-3.4255,-3.4171,-3.4023,-3.458,-3.5212,-3.5926,-3.6193,-3.7038,-3.8398,-3.8391,-3.876,-3.9444,-3.952,-3.9951,-4.0641,-4.0694,-4.1353,-4.2408,-4.2215,-4.1996,-4.1814,-4.1795,-4.2372,-4.3139,-4.3033,-4.3483,-4.4102,-4.3732,-4.2976,-4.2101,-4.1588,-4.1588,-4.1628,-4.0632,-4.0989,-4.1629,-4.1112,-4.0805,-4.0679,-4.0916,-4.1234,-4.1478,-4.1478,-4.1447,-4.1412,-4.1412,-4.1639,-4.1583,-4.072,-4.0707,-4.0849,-4.0878,-4.0908,-4.0897,-4.0867,-4.1244,-4.0488,-3.7589,-3.6823,-3.6299,-3.5659,-3.571,-3.5818,-3.5869,-3.5891,-3.5924,-3.6002,-3.2764,-3.0863,-3.0837,-3.3175,-3.3295,-3.0859,-3.08,-3.071,-3.0515,-3.0482,-3.029,-2.9909,-2.9382,-2.9,-1.7866,0.0,0.0,0.0,0.0,0.0,0.0,0.0,0.0,0.0,0.0,-3.5436,-3.3868,-3.3857,0.0,-3.7341,-3.7586,-3.6934,-3.548,-3.6142,-3.6523,-3.5817,-3.5809,-3.5745,-3.5423,-3.5413,-3.5229,-3.4723,-3.4668,-3.4447,-3.3905,-3.3868,-3.3773,-3.3586,-3.3944,-3.4401,-3.5027,-3.5416,-3.6261,-3.7515,-3.7534,-3.8014,-3.8887,-3.9327,-3.9595,-3.9738,-4.0522,-4.0948,-4.1124,-4.1599,-4.1566,-4.1246,-4.1246,-4.2011,-4.3042,-4.2667,-4.3263,-4.4102,-4.3006,-4.2134,-4.1449,-4.0993,-4.1358,-4.1742,-4.0616,-4.0954,-4.1572,-4.0773,-4.0598,-4.0621,-4.0621,-4.0998,-4.1373,-4.1347,-4.1662,-4.2011,-4.2258,-4.1967,-4.1428,-4.072,-4.0757,-4.0908,-4.0907,-4.0898,-4.0888,-4.0867,-3.9682,-3.8073,-3.6047,-3.5779,-3.5811,-3.5864,-3.5852,-3.5866,-3.5891,-3.5904,-3.5938,-3.6001,-3.4069,-3.2904,-3.2879,-3.4881,-3.5001,-3.291,-3.1523,-3.0734,-3.051,-3.0498,-3.0469,-3.0375,-2.991,-2.967,0.0,0.0,0.0,0.0,0.0,0.0,0.0,0.0,0.0,0.0,0.0,-3.8599,-3.5181,-3.4166,-3.436,-3.5897,-3.5692,-3.495,-3.3842,-3.4997,-3.5614,-3.4649,-3.4632,-3.4679,-3.4743,-3.4045,-3.3587,-3.365,-3.3666,-3.3621,-3.3568,-3.3707,-3.3494,-3.2876,-3.3571,-3.4032,-3.4144,-3.5025,-3.5824,-3.6565,-3.6708,-3.7162,-3.7916,-3.8876,-3.8971,-3.8517,-4.0226,-4.0499,-3.9773,-4.0613,-4.0503,-3.9823,-3.9898,-4.0844,-4.2134,-4.1661,-4.2829,-4.4315,-4.1971,-4.1347,-4.1369,-4.034,-4.1223,-4.2374,-4.073,-4.0971,-4.1623,-4.0754,-4.0598,-4.0687,-4.0607,-4.0665,-4.0675,-4.0531,-4.138,-4.2415,-4.3143,-4.1975,-4.0742,-4.0713,-4.08,-4.0886,-4.0898,-4.0771,-4.0655,-4.0595,-3.8121,-3.6289,-3.6367,-3.6032,-3.5791,-3.5791,-3.5866,-3.5891,-3.5908,-3.5914,-3.5951,-3.5994,-3.6007,-3.5991,-3.5991,-3.5996,-3.5843,-3.5547,-3.2489,-3.0732,-3.041,-3.046,-3.0491,-3.0496,-3.0453,-3.0479,0.0,0.0,0.0,0.0,0.0,0.0,0.0,0.0,0.0,0.0,0.0,-3.4661,-3.4994,-3.4666,-3.4468,-3.4828,-3.4441,-3.3998,-3.3744,-3.3451,-3.2931,-3.209,-3.1999,-3.2025,-3.2044,-3.1879,-3.1788,-3.184,-3.1865,-3.1891,-3.1898,-3.1992,-3.2182,-3.2501,-3.2326,-3.2488,-3.3045,-3.3394,-3.399,-3.4833,-3.4875,-3.5347,-3.6272,-3.7882,-3.8855,-3.9331,-3.9807,-3.9886,-3.9735,-4.0034,-4.006,-3.9965,-4.0628,-4.112,-4.1537,-4.2519,-4.25,-4.1829,-4.0634,-4.0298,-4.0421,-4.0233,-4.0921,-4.1685,-4.0735,-4.1056,-4.1572,-4.0795,-4.0598,-4.0636,-4.0603,-4.1104,-4.1435,-4.0735,-4.1408,-4.273,-4.4646,-4.3815,-4.2312,-4.0951,-4.0818,-4.0898,-4.0907,-3.981,-3.8926,-3.8921,-3.9474,-3.991,-3.9967,-3.7527,-3.5807,-3.5807,-3.5859,-3.5911,-3.5908,-3.5953,-3.599,-3.5994,-3.6007,-3.5991,-3.5991,-3.5994,-3.4747,-3.2057,-3.1262,-3.0794,-3.0565,-3.0481,-3.0452,-3.0506,-3.0691,-3.0749,0.0,0.0,0.0,0.0,0.0,0.0,0.0,0.0,0.0,0.0,0.0,-3.2277,-3.4734,-3.4992,-3.4759,-3.4558,-3.4086,-3.3451,-3.2629,-3.19,-3.13,-3.0862,-3.1034,-3.118,-3.1154,-3.118,-3.1206,-3.125,-3.1352,-3.1409,-3.1452,-3.1291,-3.1288,-3.1487,-3.144,-3.1582,-3.1868,-3.2691,-3.3519,-3.4348,-3.4386,-3.4903,-3.5878,-3.7205,-3.8516,-3.9712,-3.9781,-3.9804,-3.9804,-3.9867,-3.9889,-3.9946,-4.0382,-4.084,-4.1237,-4.1632,-4.1651,-4.1345,-4.0336,-4.0077,-4.0176,-4.0157,-4.054,-4.0954,-4.0575,-4.0765,-4.105,-4.0699,-4.0603,-4.0607,-4.0607,-4.0935,-4.1166,-4.0712,-4.2248,-4.4168,-4.5437,-4.3819,-4.1879,-4.0974,-4.0858,-4.0907,-4.0907,-4.017,-3.9422,-3.8906,-3.9607,-4.0392,-4.0981,-3.9455,-3.8345,-3.8345,-3.6878,-3.5891,-3.5899,-3.5958,-3.6009,-3.5997,-3.6007,-3.5991,-3.5991,-3.5991,-3.5154,-3.3383,-3.1734,-3.109,-3.1468,-3.0818,-3.0525,-3.0595,-3.0734,-3.0804,0.0,0.0,0.0,0.0,0.0,0.0,0.0,0.0,0.0,0.0,-2.9477,-3.0795,-3.3733,-3.4166,-3.3939,-3.3548,-3.3173,-3.2405,-3.0943,-3.0355,-3.0093,-3.0093,-3.0472,-3.0735,-3.0701,-3.0753,-3.0805,-3.0823,-3.098,-3.1078,-3.1096,-3.0794,-3.0509,-3.0283,-3.0612,-3.0767,-3.0711,-3.212,-3.3253,-3.4105,-3.4386,-3.4983,-3.5849,-3.6635,-3.7885,-3.941,-3.9605,-3.9702,-3.9702,-3.9702,-3.9778,-3.9911,-3.9911,-4.0388,-4.094,-4.0344,-4.0708,-4.1395,-4.0441,-4.0215,-4.0291,-4.0196,-4.0252,-4.0411,-4.0441,-4.0473,-4.0504,-4.0573,-4.0492,-4.038,-4.038,-4.038,-4.038,-4.0385,-4.2595,-4.4762,-4.4868,-4.2769,-4.088,-4.0901,-4.0907,-4.0771,-4.0383,-4.0636,-4.0471,-3.9198,-3.9112,-3.9463,-4.0325,-4.0812,-4.1104,-4.1091,-3.7981,-3.5903,-3.5904,-3.5958,-3.599,-3.5997,-3.6007,-3.5991,-3.5991,-3.5991,-3.5718,-3.5132,-3.2338,-3.1297,-3.2104,-3.1136,-3.0664,-3.071,-3.071,-3.0782,0.0,0.0,0.0,0.0,0.0,0.0,0.0,0.0,0.0,0.0,-2.7803,-3.0042,-3.0508,-2.9978,-2.9465,-2.9412,-2.9332,-2.921,-2.8985,-2.8876,-2.883,-2.883,-2.896,-2.9046,-2.9021,-2.9071,-2.9162,-2.93,-2.9305,-2.9375,-2.951,-2.9521,-2.9468,-2.9394,-2.9532,-2.9611,-2.9611,-3.0735,-3.1846,-3.2941,-3.4116,-3.4787,-3.5078,-3.5891,-3.678,-3.7769,-3.8527,-3.885,-3.885,-3.885,-3.9267,-3.9911,-4.0036,-4.0133,-4.0229,-4.0196,-4.0273,-4.0387,-4.0234,-4.0271,-4.0379,-4.0379,-4.0411,-4.0508,-4.0558,-4.0539,-4.0504,-4.0573,-4.0057,-3.9465,-3.9465,-3.9465,-3.9465,-3.9475,-4.0346,-4.1189,-4.12,-4.0939,-4.0761,-4.0886,-4.0908,-4.0266,-3.8276,-3.9577,-4.0196,-3.8131,-3.8259,-3.8493,-3.8171,-3.9875,-4.1097,-4.1103,-3.7974,-3.5903,-3.5894,-3.5909,-3.5942,-3.5994,-3.6007,-3.5991,-3.5991,-3.5991,-3.4605,-3.1633,-3.1126,-3.0914,-3.0923,-3.0888,-3.0789,-3.0691,-3.0817,-3.0878,0.0,0.0,0.0,0.0,0.0,0.0,0.0,0.0,0.0,0.0,-2.5928,-2.7581,-2.9549,-2.9193,-2.8613,-2.8597,-2.859,-2.8593,-2.8605,-2.7825,-2.7259,-2.726,-2.7272,-2.7507,-2.8027,-2.7687,-2.7707,-2.8282,-2.8368,-2.8433,-2.8519,-2.9045,-2.9347,-2.9307,-2.9368,-2.9407,-2.9407,-3.0474,-3.1624,-3.2816,-3.3181,-3.3638,-3.4207,-3.504,-3.6139,-3.7409,-3.7807,-3.7959,-3.7997,-3.851,-3.8906,-3.9307,-3.9886,-4.0117,-4.0137,-4.0252,-4.0325,-4.0325,-4.0325,-4.0377,-4.046,-4.0411,-4.0444,-4.0504,-4.0573,-4.0539,-4.0504,-4.0573,-3.9961,-3.9296,-3.9296,-3.9296,-3.9311,-3.9307,-3.9942,-4.0569,-4.0604,-4.0668,-4.0745,-4.0865,-4.0111,-3.9442,-3.9403,-4.0238,-4.0563,-3.9591,-3.891,-3.8079,-3.6894,-3.9282,-4.0343,-3.8394,-3.681,-3.5908,-3.5894,-3.5909,-3.5938,-3.6005,-3.6004,-3.5991,-3.5991,-3.4117,-3.2831,-3.2311,-3.1385,-3.1323,-3.2211,-3.1326,-3.0868,-3.0808,-3.087,-3.0898,0.0,0.0,0.0,0.0,0.0,0.0,0.0,0.0,0.0,0.0,-2.4062,-2.4709,-2.8812,-2.8972,-2.8492,-2.8482,-2.8495,-2.851,-2.8511,-2.6795,-2.5577,-2.5589,-2.6,-2.655,-2.726,-2.6812,-2.679,-2.7506,-2.7588,-2.7742,-2.8025,-2.8604,-2.8998,-2.9072,-2.8998,-2.9109,-2.939,-3.0251,-3.1158,-3.2108,-3.2241,-3.2657,-3.3355,-3.4207,-3.5287,-3.6481,-3.6898,-3.7087,-3.7163,-3.8016,-3.851,-3.8817,-3.9774,-4.0157,-4.0177,-4.013,-4.0255,-4.0389,-4.0085,-4.021,-4.0489,-4.0444,-4.046,-4.0504,-4.0573,-4.0404,-4.0254,-4.0515,-3.9653,-3.8738,-3.9181,-3.9123,-3.8992,-3.9238,-3.9788,-4.0333,-4.063,-4.0365,-4.0106,-4.0234,-3.9187,-3.8586,-3.9458,-4.0325,-4.061,-3.9772,-3.863,-3.742,-3.6153,-3.821,-3.8789,-3.6172,-3.5914,-3.5914,-3.5899,-3.6709,-3.6874,-3.6055,-3.6001,-3.5991,-3.5991,-3.3492,-3.2326,-3.2764,-3.153,-3.1528,-3.2758,-3.1502,-3.0898,-3.0898,-3.0898,-3.0898,0.0,0.0,0.0,0.0,0.0,0.0,0.0,0.0,0.0,0.0,-2.2359,-2.1826,-2.7585,-2.8421,-2.8223,-2.8227,-2.8232,-2.82,-2.8215,-2.5691,-2.3856,-2.3927,-2.5447,-2.6508,-2.6563,-2.6636,-2.672,-2.6856,-2.6856,-2.7228,-2.8049,-2.7901,-2.7901,-2.8142,-2.792,-2.8312,-2.9397,-2.9636,-2.9831,-2.9979,-3.1544,-3.2391,-3.2572,-3.3391,-3.3809,-3.3979,-3.5571,-3.6253,-3.6329,-3.7125,-3.7982,-3.8899,-3.9834,-4.027,-4.03,-3.9611,-3.9835,-4.0335,-3.9262,-3.9604,-4.0489,-4.0489,-4.0489,-4.0489,-4.0504,-3.9969,-3.9508,-4.0292,-3.8719,-3.7219,-3.8873,-3.865,-3.8197,-3.9104,-3.9296,-3.9518,-4.0494,-3.9456,-3.8355,-3.8421,-3.8363,-3.782,-3.6317,-3.8743,-3.9843,-3.6715,-3.6189,-3.6099,-3.6016,-3.6104,-3.6094,-3.5922,-3.5967,-3.5967,-3.5908,-3.8936,-3.9453,-3.6207,-3.6001,-3.5991,-3.5991,-3.5835,-3.4254,-3.1092,-3.0934,-3.0937,-3.1035,-3.0937,-3.0898,-3.0898,-3.0898,-3.0898,0.0,0.0,0.0,0.0,0.0,0.0,0.0,0.0,0.0,-2.365,-2.4021,-2.3637,-2.5217,-2.5447,-2.6051,-2.8118,-2.8456,-2.8463,-2.8456,-2.5901,-2.4053,-2.4112,-2.4661,-2.5055,-2.5132,-2.5151,-2.5208,-2.5337,-2.5925,-2.6428,-2.6786,-2.7379,-2.8108,-2.8968,-2.8145,-2.8258,-2.9437,-2.9661,-2.9795,-2.9864,-3.0466,-3.1085,-3.1684,-3.2501,-3.3164,-3.3752,-3.487,-3.5363,-3.542,-3.6331,-3.7224,-3.808,-3.8475,-3.904,-3.955,-3.9362,-3.9123,-3.8988,-3.9662,-3.9815,-3.9719,-3.9719,-4.0065,-4.0392,-3.9892,-3.9892,-4.0123,-4.0412,-3.9469,-3.8507,-3.9142,-3.905,-3.9027,-3.9914,-3.9758,-3.949,-3.9862,-3.9325,-3.8678,-3.8315,-3.8559,-3.886,-3.8984,-3.9161,-3.8548,-3.6324,-3.6,-3.5977,-3.5942,-3.5909,-3.5894,-3.5899,-3.5914,-3.5933,-3.5899,-3.7084,-3.7303,-3.6075,-3.6001,-3.5991,-3.5991,-3.4605,-3.359,-3.3083,-3.1654,-3.0898,-3.0898,-3.0898,-3.0897,-3.0891,-3.0898,-3.0898,0.0,0.0,0.0,0.0,0.0,0.0,0.0,0.0,0.0,-2.2147,-2.2413,-2.2101,-2.3531,-2.38,-2.4823,-2.7966,-2.7574,-2.6513,-2.5443,-2.3696,-2.2779,-2.3453,-2.3474,-2.3455,-2.3562,-2.3544,-2.3635,-2.3908,-2.4631,0.0,-2.4543,-2.6255,-2.7428,-2.7849,-2.7065,-2.7028,-2.7867,-2.8765,-2.9251,-2.9372,-2.9727,-3.0213,-3.0795,-3.1629,-3.2312,-3.2918,-3.3714,-3.4415,-3.504,-3.5931,-3.6671,-3.7313,-3.7663,-3.8188,-3.8719,-3.8497,-3.8243,-3.8084,-3.8627,-3.8839,-3.8834,-3.8661,-3.9084,-3.9623,-3.9373,-3.9469,-3.9777,-4.0335,-3.97,-3.8988,-3.9546,-3.9715,-3.973,-3.973,-3.9586,-3.9308,-3.874,-3.8501,-3.8539,-3.898,-3.9076,-3.9468,-4.0633,-3.9947,-3.851,-3.6324,-3.6473,-3.661,-3.5981,-3.5909,-3.5899,-3.5904,-3.5894,-3.5914,-3.5924,-3.5973,-3.5997,-3.6001,-3.5974,-3.5989,-3.5993,-3.4525,-3.3781,-3.396,-3.2694,-3.166,-3.0891,-3.0897,-3.0896,-3.0905,-3.0874,-3.0878,0.0,0.0,0.0,0.0,0.0,0.0,0.0,0.0,-1.6229,-1.9205,-1.7382,-1.6973,-2.2648,-2.3766,-2.4774,-2.7638,-2.5528,-2.2451,-1.9391,-1.9175,-2.0019,-2.1808,-2.1985,-2.1941,-2.1941,-2.2004,-2.2274,-2.2817,-2.3091,-2.2732,-2.1553,-2.4558,-2.5794,-2.4647,-2.4559,-2.4614,-2.4752,-2.6877,-2.8049,-2.8291,-2.9347,-2.9855,-2.9888,-3.0795,-3.1212,-3.125,-3.2084,-3.3427,-3.5092,-3.5892,-3.6379,-3.6677,-3.7444,-3.7836,-3.7873,-3.7002,-3.7228,-3.7704,-3.6128,-3.6622,-3.7892,-3.7358,-3.755,-3.8142,-3.8969,-3.8642,-3.8334,-3.9969,-3.9238,-3.8373,-4.0027,-4.05,-4.0145,-3.845,-3.8697,-3.8878,-3.724,-3.6925,-3.7702,-4.0227,-3.9867,-3.9511,-4.066,-4.0859,-3.9793,-3.6618,-3.7459,-3.7815,-3.6163,-3.5968,-3.5963,-3.5908,-3.5908,-3.5933,-3.5987,-3.6001,-3.5986,-3.5947,-3.5911,-3.5916,-3.5916,-3.5876,-3.5038,-3.3312,-3.3879,-3.3102,-3.0906,-3.0897,-3.0892,-3.0892,-3.0825,-3.0831,-1.115,0.0,0.0,0.0,0.0,0.0,0.0,0.0,0.0,-1.9331,-1.9257,-1.9114,-2.0629,-2.2768,-2.4578,-2.5375,-2.4664,-2.3749,-2.3022,-2.3033,-2.2994,-2.2693,-2.2848,-2.2986,-2.2986,-2.2967,-2.3265,0.0,-2.4125,-2.4031,-2.3724,-2.535,-2.5794,-2.4644,-2.5426,-2.5926,-2.5991,-2.666,-2.7213,-2.7664,-2.8534,-2.8985,-2.9074,-3.0497,-3.114,-3.1288,-3.2728,-3.3348,-3.342,-3.4279,-3.5414,-3.6577,-3.6257,-3.6503,-3.7021,-3.6776,-3.6449,-3.6234,-3.6987,-3.7156,-3.7046,-3.6877,-3.7373,-3.793,-3.7546,-3.77,-3.8104,-3.8565,-3.8354,-3.8238,-3.9345,-3.9678,-3.9609,-3.9135,-3.8286,-3.7452,-3.7,-3.6469,-3.6624,-3.8559,-3.9677,-4.0253,-3.9993,-4.001,-3.9935,-3.9656,-3.7907,-3.6742,-3.7079,-3.7503,-3.7297,-3.6025,-3.5908,-3.5908,-3.5933,-3.5929,-3.5608,-3.4827,-3.5483,-3.5363,-3.4164,-3.4523,-3.4118,-3.2745,-3.2042,-3.1403,-3.0833,-3.0877,-3.0897,-3.0898,-3.0837,-3.0849,0.0,0.0,0.0,0.0,0.0,0.0,-1.1834,-1.2546,-1.3787,0.0,-1.8117,-1.9982,-1.9904,-2.1287,-2.2454,-2.2464,-2.2358,-2.2827,-2.4376,-2.4594,-2.4195,-2.3063,-2.2902,-2.2858,-2.2858,-2.2824,-2.3108,-2.3889,-2.4005,-2.4222,-2.4613,-2.53,-2.5391,-2.4741,-2.5412,-2.5799,-2.5875,-2.6214,-2.6563,-2.6919,-2.7733,-2.8339,-2.8733,-2.9664,-3.0288,-3.072,-3.1722,-3.2145,-3.2206,-3.2737,-3.4002,-3.5566,-3.5128,-3.5474,-3.6195,-3.6161,-3.5835,-3.558,-3.6526,-3.6575,-3.6199,-3.6199,-3.6546,-3.693,-3.6757,-3.7046,-3.7526,-3.7906,-3.8017,-3.8147,-3.8642,-3.8824,-3.882,-3.844,-3.7614,-3.6806,-3.6477,-3.6284,-3.6593,-3.7947,-3.8756,-3.9303,-3.9558,-3.9349,-3.9215,-3.9396,-3.7726,-3.6553,-3.686,-3.72,-3.7024,-3.6006,-3.5908,-3.6055,-3.6415,-3.6103,-3.578,-3.5527,-3.573,-3.5412,-3.4438,-3.4047,-3.3844,-3.3887,-3.3231,-3.2189,-3.0723,-3.0839,-3.0896,-3.0892,-3.0829,-3.0845,0.0,0.0,0.0,0.0,0.0,0.0,-1.0367,-1.0157,-1.0069,0.0,-1.5056,-1.9193,-1.9194,-1.8705,-1.8345,-1.8528,-1.8852,-2.0274,-2.3673,-2.4209,-2.3852,-2.2753,-2.2335,-2.2125,-2.2125,-2.22,-2.2537,-2.3142,-2.3427,-2.3904,-2.4666,-2.4772,-2.484,-2.4926,-2.4926,-2.495,-2.5002,-2.5688,-2.6029,-2.6091,-2.6958,-2.774,-2.843,-2.8521,-2.8995,-2.9788,-2.995,-3.0513,-3.1283,-3.1446,-3.2511,-3.4064,-3.416,-3.468,-3.5359,-3.5393,-3.5446,-3.5493,-3.5412,-3.5446,-3.5493,-3.5493,-3.5474,-3.5622,-3.6353,-3.6579,-3.6733,-3.7511,-3.786,-3.7951,-3.7885,-3.7964,-3.7873,-3.7081,-3.6822,-3.6574,-3.5839,-3.6265,-3.7019,-3.7889,-3.7575,-3.7598,-3.9072,-3.8816,-3.8174,-3.7442,-3.7253,-3.6921,-3.6142,-3.6045,-3.6011,-3.5919,-3.5997,-3.6317,-3.7003,-3.6346,-3.6183,-3.6851,-3.6203,-3.5679,-3.5427,-3.4202,-3.4132,-3.5476,-3.5434,-3.3818,-3.0588,-3.0772,-3.0862,-3.0878,-3.0829,-3.0836,0.0,0.0,0.0,0.0,-1.2401,0.0,-1.0722,-0.9218,-0.8606,0.0,-1.2386,-1.4207,-1.4195,-1.1906,-1.0456,-1.1814,-1.4166,-1.6969,-2.0288,-2.1485,-2.1618,-2.0474,-2.147,-2.2267,-2.2267,-2.2896,-2.361,-2.4385,-2.4505,-2.4605,-2.4861,-2.4823,-2.4879,-2.5063,-2.5057,-2.5069,-2.5087,-2.5335,-2.5375,-2.5237,-2.6121,-2.6597,-2.6702,-2.7414,-2.8203,-2.9064,-2.9832,-3.0303,-3.0573,-3.1224,-3.2141,-3.3218,-3.393,-3.4263,-3.4466,-3.5144,-3.5412,-3.5412,-3.533,-3.5398,-3.5493,-3.5446,-3.5468,-3.5541,-3.574,-3.581,-3.5849,-3.6023,-3.6569,-3.7134,-3.7134,-3.7139,-3.7104,-3.693,-3.6419,-3.5897,-3.5723,-3.582,-3.6179,-3.7054,-3.7676,-3.7947,-3.7646,-3.8079,-3.8435,-3.8266,-3.7653,-3.7133,-3.696,-3.6941,-3.6684,-3.5981,-3.6531,-3.6723,-3.6191,-3.5957,-3.5591,-3.5065,-3.5509,-3.4972,-3.314,-3.4595,-3.4874,-3.3644,-3.2329,-3.1303,-3.0597,-3.0635,-3.0664,-3.0659,-3.0812,-3.0856,0.0,0.0,0.0,-1.3501,0.0,0.0,0.0,-1.0859,-0.9485,-1.124,-1.1568,-1.1554,-1.1555,-1.0832,-1.0512,-1.1356,-1.4137,-1.6315,-1.6668,-1.8546,-2.0195,-2.1003,-2.184,-2.247,-2.2778,-2.2918,-2.336,-2.4246,-2.4661,-2.4926,-2.5004,-2.4966,-2.5006,-2.5151,-2.5177,-2.5196,-2.5201,-2.5172,-2.5106,-2.501,-2.543,-2.5848,-2.6223,-2.6692,-2.7608,-2.8827,-2.9377,-2.9883,-3.0331,-3.0746,-3.1207,-3.1737,-3.259,-3.3417,-3.4191,-3.4587,-3.5062,-3.5446,-3.5412,-3.5446,-3.5488,-3.5468,-3.5476,-3.5515,-3.5591,-3.5604,-3.5596,-3.5604,-3.5929,-3.6292,-3.6269,-3.6273,-3.6306,-3.6303,-3.5994,-3.5568,-3.5154,-3.5396,-3.5591,-3.5241,-3.6181,-3.7053,-3.7097,-3.7164,-3.735,-3.7795,-3.7102,-3.6703,-3.7145,-3.6813,-3.6389,-3.595,-3.6283,-3.6543,-3.6548,-3.6083,-3.578,-3.5748,-3.576,-3.5243,-3.4088,-3.4371,-3.4495,-3.4391,-3.2667,-3.14,-3.0558,-3.0528,-3.0511,-3.0498,-3.0707,-3.0814,0.0,0.0,0.0,0.0,0.0,-1.4522,0.0,0.0,0.0,0.0,0.0,0.0,0.0,0.0,0.0,0.0,0.0,0.0,0.0,-1.5606,0.0,-2.0736,-2.1225,-2.1502,-2.1962,-2.1977,-2.2443,-2.3647,-2.4335,-2.4764,-2.4903,-2.503,-2.5156,-2.5244,-2.5278,-2.5291,-2.5253,-2.5133,-2.5044,-2.501,-2.5018,-2.5359,-2.5991,-2.6053,-2.6911,-2.8374,-2.8683,-2.9289,-3.0068,-3.0074,-3.0194,-3.0475,-3.1309,-3.2462,-3.3737,-3.4019,-3.4595,-3.5243,-3.5416,-3.5474,-3.5501,-3.5509,-3.5515,-3.5521,-3.5604,-3.562,-3.5612,-3.5628,-3.5654,-3.5697,-3.5623,-3.5657,-3.5697,-3.5695,-3.5695,-3.5502,-3.4807,-3.5068,-3.5088,-3.3774,-3.4614,-3.5779,-3.6501,-3.6216,-3.6131,-3.6846,-3.6345,-3.6159,-3.6855,-3.6348,-3.5898,-3.5898,-3.5897,-3.6183,-3.6863,-3.624,-3.6066,-3.6706,-3.6086,-3.5695,-3.5704,-3.4341,-3.4148,-3.5321,-3.3925,-3.2405,-3.0837,-3.0537,-3.0422,-3.0413,-3.0597,-3.0715,0.0,0.0,0.0,0.0,-1.4693,0.0,0.0,0.0,-1.3655,-1.3622,0.0,0.0,0.0,0.0,0.0,0.0,0.0,0.0,-1.4722,-1.2812,-1.2324,-1.5567,-1.6823,-1.7418,-1.7377,-1.9122,-2.1175,-2.3358,-2.3629,-2.383,-2.4199,-2.4832,-2.5244,-2.5367,-2.534,-2.5236,-2.5118,-2.5215,-2.519,-2.501,-2.505,-2.5132,-2.5222,-2.5302,-2.5844,-2.6822,-2.772,-2.8539,-2.9225,-2.9236,-2.9698,-3.0494,-3.134,-3.1782,-3.2065,-3.3609,-3.4224,-3.437,-3.5144,-3.5435,-3.5502,-3.5501,-3.554,-3.5596,-3.5673,-3.5695,-3.5697,-3.5684,-3.5687,-3.5697,-3.5695,-3.5687,-3.5697,-3.5695,-3.5706,-3.5669,-3.5572,-3.5059,-3.4581,-3.4396,-3.452,-3.471,-3.4865,-3.5451,-3.5936,-3.6024,-3.5955,-3.5942,-3.6035,-3.5957,-3.5897,-3.5901,-3.5907,-3.5914,-3.5956,-3.5854,-3.5814,-3.5853,-3.5746,-3.5697,-3.5704,-3.551,-3.4977,-3.4124,-3.3903,-3.3205,-3.2,-3.1,-3.0492,-3.0488,-3.0559,-3.0549,0.0,0.0,0.0,0.0,0.0,0.0,-1.6797,0.0,-1.4219,0.0,0.0,0.0,0.0,0.0,0.0,0.0,-1.0912,0.0,0.0,0.0,-1.1123,0.0,0.0,0.0,-1.6663,-1.8879,-2.0959,-2.2579,-2.269,-2.306,-2.3879,-2.4855,-2.5359,-2.5343,-2.5284,-2.522,-2.5149,-2.5134,-2.5082,-2.501,-2.5063,-2.5088,-2.5101,-2.5168,-2.5683,-2.6527,-2.6987,-2.7652,-2.8429,-2.8909,-2.9313,-2.9737,-3.0559,-3.1181,-3.17,-3.2417,-3.3281,-3.4159,-3.4564,-3.5053,-3.5515,-3.5586,-3.5666,-3.5704,-3.5704,-3.5734,-3.5745,-3.5715,-3.5753,-3.5822,-3.5773,-3.5794,-3.5805,-3.5763,-3.5766,-3.5621,-3.5119,-3.5113,-3.493,-3.3983,-3.4598,-3.5106,-3.4675,-3.531,-3.6065,-3.6582,-3.621,-3.6074,-3.6596,-3.5773,-3.5334,-3.5846,-3.4993,-3.4574,-3.501,-3.4581,-3.4283,-3.4246,-3.469,-3.4496,-3.3478,-3.4408,-3.4475,-3.3456,-3.2943,-3.2681,-3.2667,-3.1171,-3.0441,-3.0443,-3.0507,-3.0486,-1.8277,0.0,0.0,0.0,0.0,0.0,0.0,0.0,0.0,0.0,0.0,0.0,0.0,0.0,0.0,0.0,0.0,-0.9359,0.0,-0.9081,0.0,0.0,0.0,0.0,0.0,-1.7204,-1.8954,-1.9739,-2.0383,-2.1262,-2.2475,-2.3804,-2.4633,-2.4838,-2.5129,-2.5253,-2.5194,-2.5115,-2.5063,-2.5063,-2.5125,-2.5156,-2.5156,-2.5225,-2.5606,-2.6233,-2.6736,-2.7323,-2.7948,-2.8538,-2.9049,-2.9503,-2.9616,-3.0348,-3.1349,-3.1533,-3.2524,-3.3851,-3.4121,-3.4817,-3.5585,-3.5707,-3.5757,-3.5795,-3.5737,-3.5756,-3.5803,-3.5737,-3.5795,-3.5854,-3.5815,-3.5842,-3.5854,-3.5819,-3.5807,-3.5643,-3.5021,-3.5152,-3.5055,-3.3882,-3.4637,-3.53,-3.4699,-3.5314,-3.6118,-3.6747,-3.63,-3.6122,-3.6757,-3.5533,-3.484,-3.5477,-3.4172,-3.3502,-3.4085,-3.3546,-3.3267,-3.3519,-3.408,-3.3944,-3.2917,-3.3837,-3.4077,-3.3448,-3.2353,-3.2081,-3.2629,-3.1152,-3.0409,-3.0398,-3.0466,-3.0463,0.0,0.0,0.0,-1.8306,0.0,0.0,0.0,0.0,-1.5136,0.0,0.0,0.0,0.0,0.0,0.0,0.0,0.0,0.0,0.0,0.0,0.0,0.0,0.0,0.0,0.0,-1.255,-1.3926,-1.3975,-1.6013,-1.7877,-1.9266,-2.1108,-2.2617,-2.3715,-2.4884,-2.5404,-2.5204,-2.526,-2.5263,-2.5186,-2.5254,-2.5293,-2.5301,-2.5354,-2.5416,-2.5524,-2.7161,-2.7873,-2.7901,-2.7933,-2.8926,-3.0308,-2.87,-2.9124,-3.0711,-3.1368,-3.2211,-3.3152,-3.4002,-3.4939,-3.5787,-3.5794,-3.5805,-3.5805,-3.5805,-3.5807,-3.5795,-3.5807,-3.5805,-3.5805,-3.5805,-3.5805,-3.5802,-3.5806,-3.5843,-3.5884,-3.5864,-3.5218,-3.4624,-3.4565,-3.4608,-3.4628,-3.4593,-3.531,-3.5906,-3.5942,-3.5916,-3.5903,-3.5933,-3.5165,-3.462,-3.4633,-3.3779,-3.3206,-3.325,-3.3161,-3.346,-3.4322,-3.4399,-3.4737,-3.553,-3.4754,-3.4287,-3.4248,-3.2643,-3.178,-3.1746,-3.0895,-3.0471,-3.0398,-3.0471,-3.0458,0.0,0.0,-2.0636,-2.1208,0.0,0.0,0.0,0.0,0.0,0.0,0.0,0.0,0.0,0.0,0.0,0.0,0.0,0.0,0.0,0.0,0.0,0.0,0.0,0.0,0.0,0.0,-1.2368,-1.4584,-1.3384,-1.4084,-1.7624,-1.9838,-2.1711,-2.3257,-2.4736,-2.5471,-2.5398,-2.532,-2.5284,-2.5273,-2.5322,-2.5371,-2.5369,-2.5437,-2.5476,-2.5505,-2.6079,-2.6641,-2.7222,-2.7799,-2.8691,-2.9718,-2.973,-3.0083,-3.0627,-3.0856,-3.1834,-3.3277,-3.4772,-3.5172,-3.5098,-3.5688,-3.5897,-3.5927,-3.5888,-3.5896,-3.5919,-3.5885,-3.5903,-3.593,-3.5937,-3.5935,-3.5932,-3.5937,-3.5954,-3.5972,-3.5974,-3.5662,-3.5417,-3.5444,-3.5466,-3.5469,-3.5452,-3.5695,-3.5891,-3.5908,-3.59,-3.5685,-3.5112,-3.4314,-3.3776,-3.3692,-3.24,-3.1755,-3.2294,-3.1796,-3.1555,-3.1806,-3.2908,-3.3401,-3.3117,-3.4483,-3.4928,-3.4306,-3.3746,-3.3164,-3.2551,-3.1763,-3.1039,-3.0398,-3.0419,-3.0406,-2.371,-2.3203,0.0,-2.2611,-2.1012,0.0,-2.0024,0.0,-1.6517,0.0,0.0,0.0,0.0,0.0,0.0,0.0,0.0,0.0,0.0,-0.8982,0.0,0.0,0.0,0.0,0.0,-1.3421,-1.1326,-1.1652,-1.0779,-1.1717,-1.5112,-1.9179,-2.2006,-2.3338,-2.4817,-2.5568,-2.5568,-2.549,-2.5434,-2.5406,-2.5467,-2.5485,-2.5468,-2.5526,-2.554,-2.5549,-2.5834,-2.6281,-2.685,-2.7433,-2.8327,-2.9357,-2.9641,-3.0125,-3.0676,-3.0627,-3.1695,-3.3433,-3.5237,-3.5524,-3.5178,-3.5742,-3.5955,-3.5996,-3.595,-3.5966,-3.5995,-3.5953,-3.5968,-3.5991,-3.5996,-3.6005,-3.5991,-3.5994,-3.6007,-3.6004,-3.6004,-3.5911,-3.5859,-3.5897,-3.5641,-3.554,-3.5845,-3.5408,-3.5206,-3.5816,-3.5899,-3.5587,-3.4717,-3.4158,-3.3556,-3.2854,-3.179,-3.1204,-3.1426,-3.0926,-3.0704,-3.0955,-3.2019,-3.2512,-3.2268,-3.3884,-3.4784,-3.4812,-3.3873,-3.3426,-3.345,-3.2064,-3.1039,-3.0394,-3.0394,-3.0525]}]]